     2              OBSERVATION DATA    GPS                 RINEX VERSION / TYPE
teqc 1997Jun30 19970702                                     PGM / RUN BY / DATE
                                                            COMMENT
BIT 2 OF LLI FLAGS DATA COLLECTED UNDER A-S CONDITION       COMMENT
BIT 2 OF LLI FLAGS DATA COLLECTED UNDER A-S CONDITION       COMMENT
Original Marker Name: HMCP                                  COMMENT
Campaign Name: HMC San Gabriel Valley 1993-1996             COMMENT
4-Character Station Name: HMCP                              COMMENT
6-Character Antenna Code: DMRCHT                            COMMENT
Vertical Measurement Point: BPA                             COMMENT
Vertical Offset to Rinex Ref. Point: 0.0000                 COMMENT
Radial Measurement Point: RRP                               COMMENT
Radial Offset to Rinex Ref. Point: 0.0000                   COMMENT
Antenna Height from Field Measurement: 0.0000 m             COMMENT
Additional Antenna Identification Info.:                    COMMENT
Turborogue and Ashtech Choke Ring                           COMMENT
Fixed antenna mounting on roof of Parsons                   COMMENT
building, HMC.                                              COMMENT
Original XYZ: -2458578.0216 -4680505.7487 3556413.0886      COMMENT
New XYZ position is based on association with SCEC monument COMMENT
E1D0R2C7+0011. Position of that monument is believed to be  COMMENT
valid to within 1 m horizontally; vertical accuracy         COMMENT
should be no worse than 3-times this value.                 COMMENT
                                                            COMMENT
Revised Rinex header created by UCSD GPS archive for        COMMENT
GSAC on 13-Apr-1999 (1999:103) 20:26:26 GMT                 COMMENT
For assistance contact dagnew@ucsd.edu or hjohnson@ucsd.edu COMMENT
                                                            COMMENT
HARVEY MUDD COLLEGE PHYSICS                                 MARKER NAME
MGB HARVEY MUDD COLLEGE                                     OBSERVER / AGENCY
T-262/263 TURBOROGUE SNR-8000 95.03.08                      REC # / TYPE / VERS
260/329 DORNE-MARGOL. TYPE T                                ANT # / TYPE
 -2458598.0000 -4680494.0000  3556451.0000                  APPROX POSITION XYZ
        0.0000        0.0000        0.0000                  ANTENNA: DELTA H/E/N
     1     1     0                                          WAVELENGTH FACT L1/2
     5    L1    L2    C1    P2    P1                        # / TYPES OF OBSERV
     0                                                      INTERVAL
  1996     4    21     0     0    0.000000                  TIME OF FIRST OBS
  1996     4    21    23    59   30.000000                  TIME OF LAST OBS
     0                                                      # OF SATELLITES
                                                            END OF HEADER
 96  4 21  0  0  0.0000000  0  7G 9G20G24G 6G 4G16G 5
  -3043051.57144  -2371213.88944  24454579.4934   24454580.9354
 -21278136.85344 -16580356.28544  20899436.5544   20899437.0304
 -15628308.08344 -12177888.29644  21459168.7994   21459169.5984
 -12646561.01044  -9854448.37244  22751808.2514   22751808.4354
    541072.35444    421621.40244  24103271.9894   24103271.2714
 -13841954.83344 -10785924.88944  21802153.8094   21802155.5574
 -26734848.28844 -20832336.68344  20258702.4434   20258702.4184
 96  4 21  0  0 30.0000000  0  7G 9G20G24G 6G 4G16G 5
  -2952067.19744  -2300317.06344  24471893.3934   24471895.1814
 -21327739.23944 -16619007.47244  20889997.4934   20889998.1004
 -15566182.60144 -12129478.83244  21470990.8094   21470991.4584
 -12711001.49744  -9904661.69944  22739545.3744   22739545.2714
    637174.02944    496505.79644  24121560.6654   24121561.3074
 -13907518.91644 -10837013.74844  21789677.5784   21789678.8694
 -26721407.49444 -20821863.33944  20261260.2984   20261260.2624
 96  4 21  0  1  0.0000000  0  7G 9G20G24G 6G 4G16G 5
  -2861136.65744  -2229462.20944  24489196.4724   24489200.0294
 -21376880.40544 -16657299.27244  20880646.5264   20880646.9224
 -15503809.39244 -12080876.33244  21482860.0194   21482860.4634
 -12775410.68244  -9954850.63744  22727288.3634   22727289.1994
    733271.31544    571386.78144  24139846.3144   24139848.0904
 -13972662.94844 -10887775.30044  21777281.2214   21777282.2274
 -26707416.62744 -20810961.36944  20263922.6164   20263922.6264
 96  4 21  0  1 30.0000000  0  7G 9G20G24G 6G 4G16G 5
  -2770254.24844  -2158644.87744  24506490.6714   24506496.9704
 -21425550.92244 -16695224.33544  20871384.5434   20871385.1084
 -15441199.79244 -12032089.63144  21494774.1824   21494774.8674
 -12839776.64244 -10005005.88344  22715039.8794   22715041.2994
    829363.99344    646264.13844  24158132.5784   24158132.9914
 -14037389.42544 -10938211.48744  21764964.0004   21764965.1014
 -26692866.15444 -20799623.33644  20266691.5414   20266691.2784
 96  4 21  0  2  0.0000000  0  7G 9G20G24G 6G 4G16G 5
  -2679424.14144  -2087868.32344  24523775.0994   24523778.4164
 -21473737.70644 -16732772.46044  20862214.8834   20862215.2694
 -15378360.91944 -11983124.27444  21506732.0924   21506732.7184
 -12904077.68344 -10055110.60644  22702804.0244   22702805.1094
    925469.50044    721151.52944  24176420.5464   24176422.3154
 -14101700.77744 -10988324.19444  21752725.8604   21752727.3144
 -26677773.90144 -20787863.14044  20269563.3694   20269563.5304
 96  4 21  0  2 30.0000000  0  7G 9G20G24G 6G 4G16G 5
  -2588659.06244  -2017142.42744  24541048.4154   24541050.4174
 -21521432.41644 -16769937.15444  20853139.0724   20853139.6664
 -15315286.03244 -11933975.01744  21518734.5164   21518735.5384
 -12968304.68544 -10105157.55744  22690581.9944   22690582.7754
   1021587.68244    796048.78544  24194711.1014   24194713.0284
 -14165575.58344 -11038096.75244  21740570.8684   21740571.7584
 -26662161.57244 -20775697.69244  20272534.2724   20272534.3244
 96  4 21  0  3  0.0000000  0  7G 9G20G24G 6G 4G16G 5
  -2497968.22444  -1946474.36144  24558306.5554   24558308.4704
 -21568632.99944 -16806716.81044  20844157.1624   20844157.4954
 -15251973.36344 -11884640.47244  21530782.8414   21530783.9154
 -13032483.86044 -10155167.27544  22678368.7964   22678369.4404
   1117712.03144    870950.83744  24213003.5934   24213005.0504
 -14229012.24144 -11087527.89244  21728499.1864   21728500.5284
 -26646038.10444 -20763133.95344  20275602.5464   20275602.7144
 96  4 21  0  3 30.0000000  0  7G 9G20G24G 6G 4G16G 5
  -2407362.88244  -1875872.89644  24575548.0374   24575553.1974
 -21615347.25644 -16843117.52044  20835267.7404   20835268.0684
 -15188428.87544 -11835125.28444  21542874.7484   21542875.6674
 -13096611.98544 -10205137.22244  22666165.5714   22666167.0724
   1213851.73144    945864.86444  24231297.6744   24231299.5824
 -14292027.04544 -11136630.31244  21716507.9924   21716509.2484
 -26629410.59044 -20750177.45444  20278766.7224   20278766.4584
 96  4 21  0  4  0.0000000  0  7G 9G20G24G 6G 4G16G 5
  -2316864.18644  -1805354.59544  24592768.0204   24592774.2034
 -21661605.10044 -16879162.57744  20826464.9044   20826465.5964
 -15124652.11244 -11785429.10844  21555011.0204   21555011.9854
 -13160711.81844 -10255085.11144  22653967.7644   22653968.4594
   1309985.19644   1020774.04744  24249591.4724   24249592.9174
 -14354632.17344 -11185413.50144  21704594.6644   21704596.1234
 -26612289.06244 -20736836.00744  20282024.8304   20282024.8034
 96  4 21  0  4 30.0000000  0  7G 9G20G24G 6G 4G16G 5
  -2226453.33044  -1734904.74144  24609973.3194   24609977.2594
 -21707394.97344 -16914842.98344  20817751.4674   20817751.9784
 -15060625.95744 -11735538.60144  21567194.8634   21567195.9464
 -13224785.07544 -10305012.29544  22641775.1174   22641776.0724
   1406110.59544   1095676.93644  24267884.0244   24267886.2694
 -14416815.69944 -11233868.17544  21692761.6434   21692762.6474
 -26594619.27744 -20723067.34644  20285387.2764   20285387.3514
 96  4 21  0  5  0.0000000  0  8G 9G20G24G 6G 4G17G16G 5
  -2136096.56944  -1664497.01744  24627168.3854   24627172.6404
 -21752681.51744 -16950131.18944  20809133.7444   20809134.0884
 -14996325.94844 -11685434.69744  21579430.8474   21579431.4624
 -13288795.82444 -10354890.78344  22629594.7054   22629594.3834
   1502251.39244   1170591.84944  24286178.8844   24286179.2764
        -0.67254                  25556587.9264
 -14478553.02244 -11281975.15144  21681012.9214   21681014.2764
 -26576336.87644 -20708821.32244  20288866.2294   20288866.3624
 96  4 21  0  5 30.0000000  0  7G 9G20G24G 6G 4G16G 5
  -2045864.70644  -1594186.59444  24644338.0744   24644341.3424
 -21797532.16244 -16985079.73044  20800599.1624   20800599.5144
 -14931829.43844 -11635177.67744  21591704.0124   21591704.7494
 -13352797.61944 -10404762.28544  22617415.5834   22617415.5444
   1598341.08444   1245466.88544  24304464.7034   24304463.3854
 -14539909.34944 -11329785.24744  21669337.3364   21669338.4724
 -26557500.47444 -20694143.61044  20292450.6134   20292450.6734
 96  4 21  0  6  0.0000000  0  7G 9G20G24G 6G 4G16G 5
  -1955745.93344  -1523964.32344  24661487.4624   24661489.4984
 -21841921.21544 -17019668.59544  20792151.9264   20792152.3834
 -14867138.33344 -11584769.02744  21604014.5074   21604015.4874
 -13416781.39544 -10454619.75444  22605239.6494   22605239.8324
   1694393.99944   1320313.29144  24322742.6894   24322741.3784
 -14600847.67544 -11377269.62544  21657741.2974   21657742.7964
 -26538092.60844 -20679020.60344  20296143.7684   20296143.8184
 96  4 21  0  6 30.0000000  0  8G 9G20G24G 6G 4G17G16G 5
  -1865720.27644  -1453814.55444  24678620.0424   24678623.8294
 -21885806.45944 -17053864.87644  20783800.8724   20783801.4454
 -14802240.37744 -11534199.19544  21616364.0604   21616364.9184
 -13480714.09844 -10504437.41944  22593073.6904   22593073.8684
   1790437.03144   1395152.00744  24341019.4624   24341022.2334
        -0.14654                  25500382.7574
 -14661326.54244 -11424395.98144  21646232.9364   21646234.7284
 -26518094.26844 -20663437.48444  20299949.4164   20299949.4564
 96  4 21  0  7  0.0000000  0  8G 9G20G24G 6G 4G17G16G 5
  -1775802.73544  -1383749.10644  24695729.9994   24695734.6594
 -21929187.59044 -17087668.34844  20775545.7014   20775546.2474
 -14737131.50744 -11483465.00944  21628754.0194   21628754.5594
 -13544591.76944 -10554212.19644  22580917.7074   22580918.0994
   1886462.50344   1469977.02644  24359292.5074
    -98221.68844                  25481692.6564
 -14721332.15544 -11471153.57144  21634813.8094   21634815.3384
 -26497539.47644 -20647420.76544  20303861.0064   20303861.2194
 96  4 21  0  7 30.0000000  0  8G 9G20G24G 6G 4G17G16G 5
  -1685975.08344  -1313753.68544  24712823.1084   24712831.0034
 -21972041.65744 -17121061.11744  20767391.3314   20767391.8094
 -14671805.22944 -11432561.41644  21641185.2834   21641185.8294
 -13608405.25944 -10603936.96344  22568774.5404   22568774.8374
   1982488.59244   1544802.51244  24377565.9764   24377568.6914
   -196298.39744                  25463027.6944
 -14780849.02644 -11517530.31644  21623488.2324   21623489.5024
 -26476435.01444 -20630975.73044  20307876.9654   20307877.0944
 96  4 21  0  8  0.0000000  0  7G 9G20G24G 6G 4G16G 5
  -1596237.09644  -1243828.09544  24729900.9214   24729906.0834
 -22014359.59544 -17154036.12644  20759338.2544   20759338.6544
 -14606252.99444 -11381481.74944  21653659.2964   21653660.1914
 -13672155.82044 -10653612.69444  22556643.1534   22556642.7374
   2078511.65944   1619625.61544  24395837.9114   24395839.9194
 -14839875.50844 -11563524.94744  21612255.9864   21612257.1784
 -26454794.84944 -20614113.26644  20311995.1304   20311995.0994
 96  4 21  0  8 30.0000000  0  7G 9G20G24G 6G 4G16G 5
  -1506581.28144  -1173966.56044  24746961.7104   24746967.0524
 -22056132.49544 -17186586.42744  20751389.0834   20751389.6854
 -14540452.06744 -11330208.30544  21666180.8494   21666181.8114
 -13735836.06744 -10703233.63844  22544525.1254   22544525.5594
   2174531.09544   1694445.96644  24414110.1474   24414110.4424
 -14898409.59544 -11609135.88444  21601116.9814   21601118.5504
 -26432611.09844 -20596827.22644  20316216.5114   20316216.5124
 96  4 21  0  9  0.0000000  0  7G 9G20G24G 6G 4G16G 5
  -1417012.15144  -1104172.61344  24764006.5964   24764009.9324
 -22097356.21044 -17218708.79744  20743544.3944   20743544.6044
 -14474413.70444 -11278749.84144  21678747.4834   21678748.1344
 -13799444.73144 -10752798.80444  22532420.8304   22532420.7074
   2270539.29144   1769257.54844  24432380.0714   24432380.8954
 -14956455.12544 -11654366.12944  21590071.4644   21590072.0454
 -26409893.09744 -20579124.89144  20320539.6054   20320539.3404
 96  4 21  0  9 30.0000000  0  8G 9G20G24G 6G 4G17G16G 5
  -1327527.19844  -1034444.20544  24781034.9554   24781038.1624
 -22138032.35744 -17250404.48944  20735804.2444   20735804.6554
 -14408160.12344 -11227123.67744  21691355.2204   21691356.1264
 -13862980.37144 -10802307.06044  22520330.5844   22520330.9924
   2366541.93544   1844064.72244  24450648.8324   24450649.8934
        -0.55354                  25388611.1244
 -15014019.77044 -11699221.66244  21579117.2654   21579118.0494
 -26386633.28244 -20561000.36544  20324965.7694   20324965.9114
 96  4 21  0 10  0.0000000  0  8G 9G20G24G 6G 4G17G16G 5
  -1238141.24644   -964792.96844  24798044.7074   24798048.1544
 -22178173.81844 -17281683.54144  20728165.3174   20728165.6954
 -14341687.05244 -11175326.48444  21704004.6114   21704005.2794
 -13926442.97944 -10851758.41844  22508254.2144   22508254.5764
   2462535.96344   1918865.22444  24468915.8894   24468916.0734
    -97517.84744    -75987.17044  25370054.4824
 -15071102.90744 -11743701.99844  21568254.3244   21568255.6974
 -26362831.11244 -20542453.22844  20329495.2454   20329495.3754
 96  4 21  0 10 30.0000000  0  8G24G 9G20G 6G 4G17G16G 5
 -14275035.87644 -11123390.50744  21716687.8304   21716688.3724
  -1148882.44044   -895240.78344  24815030.6504   24815037.5614
 -22217810.73444 -17312569.44644  20720622.6824   20720623.3444
 -13989852.16244 -10901168.13944  22496188.1144   22496188.4004
   2558501.72044   1993643.71444  24487176.9164   24487177.2414
   -194966.04344                  25351512.3724
 -15127727.13944 -11787824.74344  21557479.3804   21557480.0614
 -26338500.83744 -20523494.57944  20334125.3224   20334125.3034
 96  4 21  0 11  0.0000000  0  8G24G 9G20G 6G 4G17G16G 5
 -14208207.04644 -11071316.09944  21729405.2014   21729405.7334
  -1059744.79044   -825783.04044  24831992.7894   24831994.6614
 -22256941.52444 -17343060.96144  20713176.4064   20713177.0284
 -14053204.64044 -10950533.67844  22484132.8314   22484133.1644
   2654449.37344   2068408.08044  24505435.4914   24505435.0534
   -292327.04644   -227786.28344  25332985.9144
 -15183891.99044 -11831589.53044  21546791.0084   21546792.4734
 -26313628.42344 -20504113.48444  20338858.1054   20338858.1694
 96  4 21  0 11 30.0000000  0  8G24G 9G20G 6G 4G17G16G 5
 -14141174.06544 -11019082.61444  21742161.1274   21742161.4554
   -970716.18744   -756410.21544  24848932.9744   24848940.3384
 -22295562.59544 -17373155.30144  20705827.1094   20705827.4654
 -14116495.31544 -10999851.05444  22472088.5814   22472088.4544
   2750399.73444   2143174.59844  24523693.4054   24523695.6424
   -389573.13244   -303562.31044  25314480.4194
 -15239602.20144 -11875000.04944  21536190.0674   21536191.4654
 -26288197.44844 -20484297.14344  20343697.4604   20343697.5914
 96  4 21  0 12  0.0000000  0  8G24G 9G20G 6G 4G17G16G 5
 -14073943.05144 -10966694.81644  21754954.5424   21754955.0444
   -881808.28944   -687131.49944  24865852.8654   24865859.1654
 -22333677.80144 -17402855.45444  20698573.9344   20698574.2934
 -14179729.86244 -11049124.69744  22460055.8184   22460055.3524
   2846340.25644   2217933.41244  24541950.7674   24541949.4294
   -486691.95844   -379239.19344  25295997.2184
 -15294861.93144 -11918059.55044  21525674.5544   21525675.6114
 -26262224.51144 -20464058.49744  20348639.9984   20348640.2054
 96  4 21  0 12 30.0000000  0  8G24G 9G20G 6G 4G17G16G 5
 -14006522.71544 -10914159.49144  21767784.3144   21767785.1434
   -793004.73444   -617934.04744  24882750.2004
 -22371270.07844 -17432148.13044  20691420.2544   20691420.7254
 -14242910.01544 -11098355.96244  22448032.3504   22448033.0294
   2942269.00344   2292683.07244  24560206.2164   24560209.0134
   -583655.18144                  25277541.6474
 -15349653.56944 -11960754.30644  21515248.1504   21515249.5344
 -26235686.24844 -20443379.33744  20353690.1604   20353690.2264
 96  4 21  0 13  0.0000000  0  8G24G 9G20G 6G 4G17G16G 5
 -13938905.87644 -10861471.05944  21780651.1814   21780652.0344
   -704304.44444   -548817.10944  24899630.4464   24899639.1344
 -22408335.70444 -17461030.42844  20684367.0514   20684367.5234
 -14306039.66644 -11147547.87044  22436019.2004   22436019.2584
   3038180.35344   2367419.18244  24578456.0784   24578459.1754
   -680454.28444                  25259116.7454
 -15403967.02144 -12003076.44344  21504912.3704   21504913.7454
 -26208585.09144 -20422261.55544  20358847.2424   20358847.2694
 96  4 21  0 13 30.0000000  0  8G24G 9G20G 6G 4G17G16G 5
 -13871114.63744 -10808646.72944  21793551.7304   21793552.3604
   -615716.89944   -479787.95644  24916487.1994   24916495.8864
 -22444877.59344 -17489504.61744  20677413.0394   20677413.6544
 -14369112.73444 -11196695.69444  22424016.2784   22424016.7884
   3134061.23844   2442131.53144  24596701.7394
   -777096.17244                  25240726.4174
 -15457796.76544 -12045021.66544  21494669.0924   21494670.3424
 -26180939.75044 -20400719.73844  20364107.8704   20364107.6784
 96  4 21  0 14  0.0000000  0  7G24G 6G 9G20G 4G16G 5
 -13803209.76244 -10755733.84444  21806473.0294   21806473.8414
 -14432176.01644 -11245835.88644  22412016.0304   22412016.4064
   -527301.93044   -410893.39044  24933314.2864   24933322.9734
 -22480950.08644 -17517613.05044  20670548.9674   20670549.4294
   3229852.57244   2516774.11544  24614930.4474   24614932.6834
 -15511167.94744 -12086609.56644  21484512.5824   21484513.8724
 -26152797.68144 -20378790.85844  20369463.1544   20369463.0094
 96  4 21  0 14 30.0000000  0  7G24G 6G 9G20G 4G16G 5
 -13735136.86344 -10702690.03644  21819426.9354   21819427.7674
 -14495183.08544 -11294932.28144  22400026.2364   22400026.6674
   -439005.27544   -342090.95944  24950115.1824   24950121.2894
 -22516509.33844 -17545321.54644  20663782.0644   20663782.5554
   3325605.14944   2591386.50644  24633151.2154   24633149.0964
 -15564029.66144 -12127800.48344  21474453.2584   21474454.5854
 -26124104.82144 -20356432.79144  20374923.2174   20374923.2294
 96  4 21  0 15  0.0000000  0  8G24G 6G 9G20G 4G17G16G 5
 -13666868.39244 -10649493.82844  21832418.4854   21832419.0544
 -14558089.65744 -11343950.36044  22388056.1334   22388056.1734
   -350808.49144   -273366.30544  24966900.2794   24966904.9324
 -22551534.32444 -17572613.74044  20657116.9534   20657117.3024
   3421351.44144   2665993.97144  24651371.9034   24651373.4184
        -0.37454         0.58154  25185695.0054   25185694.5544
 -15616360.79244 -12168577.95744  21464495.0574   21464496.2394
 -26094857.97144 -20333643.04244  20380488.6874   20380488.6914
 96  4 21  0 15 30.0000000  0  8G24G 6G16G 9G20G 4G17G 5
 -13598454.90244 -10596184.62944  21845436.8244   21845437.7214
 -14620945.90644 -11392929.23644  22376094.5224   22376094.9334
 -15668219.07344 -12208986.98244  21454627.0464   21454628.0544
   -262765.03144   -204761.18744  24983653.6154   24983659.1594
 -22586077.72744 -17599530.67244  20650543.6744   20650544.0564
   3517040.92144   2740557.15544  24669581.3714   24669581.7314
    -96208.42444    -74966.55744  25167386.7464   25167388.0044
 -26065115.34844 -20310466.97744  20386148.5494   20386148.6324
 96  4 21  0 16  0.0000000  0  8G24G 6G16G 9G20G 4G17G 5
 -13529870.24744 -10542742.05144  21858488.2424   21858489.1074
 -14683758.97544 -11441874.45244  22364141.5164   22364142.0694
 -15719593.78344 -12249019.19544  21444850.7294   21444851.8684
   -174878.36544   -136278.25044  25000378.9544   25000381.3874
 -22620133.24944 -17626067.43244  20644063.1484   20644063.6814
   3612683.97744   2815084.15144  24687781.7234   24687779.3344
   -192351.23744   -149882.87344  25149091.5054   25149092.1314
 -26034867.38444 -20286897.14044  20391904.5904   20391904.7114
 96  4 21  0 16 30.0000000  0  8G24G 6G16G 9G20G 4G17G 5
 -13461086.64444 -10489144.44644  21871577.2354   21871577.9114
 -14746499.97044 -11490763.51144  22352202.1544   22352202.5064
 -15770467.68144 -12288661.16244  21435169.5384   21435170.9654
    -87111.45744    -67888.57844  25017078.6524   25017084.6304
 -22653652.00444 -17652185.93544  20637684.6954   20637685.0564
   3708304.15344   2889593.42044  24705977.0764   24705976.3964
   -288399.53144   -224725.54044  25130813.4314   25130813.8194
 -26004082.09544 -20262908.60944  20397762.9264   20397763.1934
 96  4 21  0 17  0.0000000  0  8G24G 6G16G 9G20G 4G17G 5
 -13392123.63144 -10435407.03244  21884700.3964   21884700.7394
 -14809203.68744 -11539623.52744  22340270.3024   22340270.0914
 -15820867.70344 -12327933.87944  21425578.6174   21425580.1534
       487.64244       370.25344  25033749.9564   25033754.2654
 -22686648.08844 -17677897.15944  20631405.6334   20631406.0154
   3803869.59144   2964059.95044  24724162.5174   24724163.2774
   -384376.34244   -299512.49744  25112549.3524   25112551.3404
 -25972782.68844 -20238519.46744  20403718.8694   20403719.1334
 96  4 21  0 17 30.0000000  0  8G24G 6G 9G20G 4G17G16G 5
 -13322950.21244 -10381505.66144  21897863.6644   21897863.8564
 -14871866.34844 -11588451.54544  22328345.4074   22328345.3854
     87921.60344                  25050387.4544
 -22719094.13044 -17703179.78344  20625231.6614   20625232.0824
   3899388.49544   3038490.20844  24742338.7904   24742339.5624
   -480259.39544   -374226.41144  25094297.8314
 -15870775.47344 -12366823.02144  21416080.9994   21416082.5864
 -25940942.36544 -20213708.83344  20409777.9834   20409778.0514
 96  4 21  0 18  0.0000000  0  8G24G 6G16G 9G20G 4G17G 5
 -13253573.77344 -10327446.10444  21911065.6444   21911066.4374
 -14934481.79544 -11637242.77444  22316430.2594   22316430.6854
 -15920190.90444 -12405328.51944  21406677.9714   21406679.6634
    175194.22544                  25066995.2704
 -22750968.71144 -17728017.10944  20619165.9904   20619166.3084
   3994856.02744   3112880.51944  24760505.2964   24760505.4804
   -576019.43744                  25076070.1324
 -25908542.65044 -20188462.30844  20415943.4584   20415943.7174
 96  4 21  0 18 30.0000000  0  8G24G 6G16G 9G20G 4G17G 5
 -13184049.34444 -10273271.22944  21924295.9044   21924296.5774
 -14997080.40944 -11686020.89044  22304518.4144   22304518.5354
 -15969160.77844 -12443486.83644  21397359.2744   21397360.7424
    262272.65044    204358.02544  25083566.1594
 -22782302.16444 -17752432.78044  20613203.1814   20613203.5024
   4090237.56544   3187203.79144  24778655.8344   24778656.4774
   -671669.95944                  25057871.7504
 -25875620.65544 -20162808.81344  20422208.1274   20422208.4204
 96  4 21  0 19  0.0000000  0  8G24G 6G16G 9G20G 4G17G 5
 -13114344.22044 -10218955.56044  21937560.4734   21937560.9424
 -15059626.62144 -11734758.16844  22292616.3414   22292616.3044
 -16017643.96844 -12481265.91744  21388132.8684   21388134.2924
    349184.61044    272081.45144  25100105.1054
 -22813065.88844 -17776404.50944  20607349.0654   20607349.4244
   4185575.54544   3261493.12044  24796799.3214   24796800.2754
   -767165.95444   -597789.39644  25039701.5564   25039708.4824
 -25842156.46644 -20136732.83244  20428576.3334   20428576.5244
 96  4 21  0 19 30.0000000  0  8G24G 6G16G 9G20G 4G17G 5
 -13044449.21544 -10164491.92544  21950860.6434   21950861.4084
 -15122063.09144 -11783409.93644  22280734.7394   22280734.9184
 -16065601.42544 -12518635.33744  21379007.2064   21379008.2154
    435981.22344    339714.98044  25116622.3894   25116625.5604
 -22843228.28344 -17799907.66744  20601609.5954   20601609.9864
   4280901.79744   3335773.31344  24814940.3944   24814941.1354
   -862466.69644   -672049.59344  25021567.5824   25021574.1134
 -25808115.81244 -20110207.65944  20435054.0214   20435054.0774
 96  4 21  0 20  0.0000000  0  8G24G 6G16G 9G20G 4G17G 5
 -12974372.60344 -10109886.77344  21964195.9664   21964196.9544
 -15184378.97444 -11831967.74344  22268876.3134   22268876.6504
 -16113017.78244 -12555583.12244  21369984.1354   21369985.2474
    522676.92044    407269.84844  25133119.6884   25133126.0714
 -22872790.66944 -17822943.28544  20595984.0374   20595984.5894
   4376221.11444   3410048.06444  24833079.1064   24833080.2424
   -957562.44144   -746150.10144  25003473.3104   25003476.7184
 -25773499.98744 -20083234.29844  20441641.2554   20441641.4404
 96  4 21  0 20 30.0000000  0  8G24G 6G16G 9G20G 4G17G 5
 -12904151.02944 -10055168.67644  21977558.7564   21977559.3694
 -15246600.14444 -11880451.74444  22257036.0914   22257036.5144
 -16159914.80344 -12592126.22544  21361059.9484   21361060.7304
    609226.02544    474710.50244  25149590.7714   25149597.7774
 -22901801.21244 -17845548.89444  20590463.4534   20590463.8994
   4471500.95344   3484292.11144  24851210.7604   24851210.7474
  -1052499.64344   -820126.98744  24985408.1304   24985409.7394
 -25738354.89044 -20055848.51944  20448329.2854   20448329.2934
 96  4 21  0 21  0.0000000  0  8G24G 6G16G 9G20G 4G17G 5
 -12833789.76244 -10000341.72344  21990948.1344   21990948.6394
 -15308719.76344 -11928856.61444  22245215.0254   22245215.5684
 -16206275.46844 -12628251.38644  21352237.9454   21352238.9544
    695625.37844    542034.48944  25166031.3074   25166038.8294
 -22930264.62944 -17867728.17644  20585047.2304   20585047.6724
   4566724.34744   3558492.10644  24869330.0234   24869331.9584
  -1147285.22444   -893985.77444  24967370.2154   24967372.6864
 -25702677.44344 -20028047.92244  20455118.2784   20455118.5444
 96  4 21  0 21 30.0000000  0  8G24G 6G16G 9G20G 4G17G 5
 -12763298.44644  -9945413.43044  22004362.1734   22004362.9754
 -15370748.00444 -11977190.27844  22233411.7614   22233412.3044
 -16252113.03144 -12663968.94244  21343515.3564   21343516.8384
    781854.12044    609225.50044  25182440.2804   25182446.1394
 -22958207.58244 -17889501.90144  20579729.8314   20579730.1824
   4661869.06244   3632630.82244  24887433.7514
  -1241937.40244   -967740.63344  24949358.0214   24949359.4894
 -25666470.83344 -19999834.99244  20462008.1624   20462008.4894
 96  4 21  0 22  0.0000000  0  8G24G 6G16G 9G20G 4G17G 5
 -12692658.98644  -9890369.70144  22017803.9054   22017804.7764
 -15432700.05744 -12025464.58244  22221622.4214   22221622.7624
 -16297424.42644 -12699276.50044  21334892.6214   21334893.8144
    867905.46444                  25198814.3384
 -22985619.60544 -17910861.91444  20574513.4584   20574513.8774
   4756947.49544   3706717.94444  24905525.9404
  -1336449.90244  -1041386.60844  24931370.8644   24931374.8314
 -25629730.53944 -19971206.20744  20468999.5774   20468999.6644
 96  4 21  0 22 30.0000000  0  8G24G 6G16G 9G20G 4G17G 5
 -12621883.81044  -9835220.22744  22031272.5304   22031273.0734
 -15494587.14844 -12073688.26044  22209845.7344   22209845.7804
 -16342218.16044 -12734180.68544  21326368.5824   21326370.0074
    953770.45444    743185.80144  25215153.6214
 -23012510.60344 -17931815.93644  20569396.1384   20569396.4804
   4851958.79544                  24923606.7244
  -1430829.07544                  24913408.4524
 -25592459.24544 -19942163.65444  20476092.0544   20476092.0534
 96  4 21  0 23  0.0000000  0  8G24G 6G16G 9G20G 4G17G 5
 -12550925.72744  -9779928.23044  22044774.9834   22044775.8504
 -15556394.43544 -12121849.75744  22198084.4034   22198084.5054
 -16386454.19344 -12768650.29344  21317950.7334   21317952.1844
   1039487.05044    809977.71444  25231465.8784
 -23038831.96844 -17952326.08644  20564387.4104   20564387.8704
   4946944.60844                  24941680.9834
  -1525044.45744                  24895478.9554
 -25554630.26644 -19912686.54144  20483290.8354   20483291.1324
 96  4 21  0 23 30.0000000  0  8G24G 6G16G 9G20G 4G17G 5
 -12479791.94744  -9724499.32244  22058311.5754   22058312.3254
 -15618158.84044 -12169977.83744  22186331.0944   22186330.7984
 -16430159.59744 -12802706.43044  21309634.3924   21309635.3964
   1125034.48344                  25247744.0154
 -23064591.75444 -17972398.64544  20559485.4204   20559486.0704
   5041894.17844                  24959752.2474
  -1619122.97544  -1261650.97644  24877577.6884
 -25516264.51244 -19882791.16244  20490591.5654   20490591.8574
 96  4 21  0 24  0.0000000  0  8G24G 6G16G 9G20G 4G17G 5
 -12408553.98044  -9668989.23244  22071867.5744   22071868.2404
 -15679945.44444 -12218123.21744  22174573.3594   22174573.7024
 -16473381.00144 -12836385.42444  21301409.4294   21301410.5384
   1210351.81944    943118.65044  25263981.1854
 -23089833.80444 -17992067.76944  20554682.1744   20554682.7034
   5136751.53144                  24977803.2284
  -1713124.29344  -1334898.63644  24859691.5514
 -25477419.65144 -19852522.45444  20497983.5524   20497983.8374
 96  4 21  0 24 30.0000000  0  8G24G 6G16G 9G20G 4G17G 5
 -12337199.85044  -9613388.62444  22085445.9254   22085446.4414
 -15741721.03844 -12266260.01544  22162817.7004   22162817.5114
 -16516092.39944 -12869667.01044  21293281.5914   21293282.6034
   1295457.38344   1009434.42644  25280175.5124   25280180.5054
 -23114545.99244 -18011324.01744  20549979.6084   20549980.0864
   5231527.34344                  24995838.1734
  -1807042.45844                  24841820.5034
 -25438084.82244 -19821871.95344  20505468.6584   20505469.0404
 96  4 21  0 25  0.0000000  0  8G24G 6G16G 9G20G 4G17G 5
 -12265682.24144  -9557660.62144  22099055.4114   22099055.7394
 -15803427.67844 -12314343.09244  22151075.5554   22151075.9884
 -16558255.30144 -12902521.19444  21285258.3374   21285259.4184
   1380399.33544   1075622.69944  25296340.2764
 -23138671.36644 -18030123.00944  20545388.6494   20545389.1614
   5326261.63144   4150339.28844  25013866.0464
  -1900828.73644  -1481161.66344  24823973.4944   24823972.8564
 -25398215.83344 -19790805.22144  20513055.5484   20513055.7974
 96  4 21  0 25 30.0000000  0  8G24G 6G16G 9G20G 4G17G 5
 -12193955.57544  -9501769.71144  22112704.5484   22112705.1274
 -15864997.80344 -12362319.79044  22139358.6954   22139359.2114
 -16599823.94744 -12934912.32744  21277347.8364   21277349.1194
   1465231.16044   1141725.16844  25312483.8184   25312487.2204
 -23162170.52444 -18048434.03644  20540916.8804   20540917.2014
   5420995.70044                  25031892.0934
  -1994410.86544  -1554082.67944  24806165.0764   24806168.5534
 -25357745.38144 -19759269.81944  20520756.8954   20520757.1554
 96  4 21  0 26  0.0000000  0  8G24G 6G16G 9G20G 4G17G 5
 -12122091.64144  -9445771.85544  22126379.8714   22126380.7944
 -15926472.70044 -12410222.28844  22127660.2484   22127660.9374
 -16640857.69444 -12966886.65144  21269539.0704   21269540.4864
   1549892.09644   1207694.52644  25328594.1314
 -23185106.12344 -18066305.92844  20536552.2144   20536552.7794
   5515665.87044                  25049909.5974
  -2087844.21444                  24788385.7814
 -25316746.97544 -19727323.02044  20528558.6504   20528558.5854
 96  4 21  0 26 30.0000000  0  8G24G 6G16G 9G20G 4G17G 5
 -12050098.83444  -9389673.58044  22140079.4644   22140080.2574
 -15987868.25444 -12458062.95844  22115977.0734   22115977.4524
 -16681384.62344 -12998466.05344  21261827.1724   21261828.3704
   1634368.29344   1273519.82644  25344670.5564
 -23207488.23344 -18083746.52944  20532293.3674   20532293.6194
   5610245.77044                  25067907.5154
  -2181138.21344  -1699584.34244  24770633.1764   24770632.3244
 -25275245.07744 -19694983.89144  20536456.3094   20536456.4034
 96  4 21  0 27  0.0000000  0  8G24G 6G16G 9G20G 4G17G 5
 -11978008.15944  -9333499.03344  22153798.0924   22153799.0914
 -16049233.24744 -12505879.82444  22104299.9204   22104299.9714
 -16721435.81644 -13029674.75644  21254206.0554   21254206.9814
   1718616.87244                  25360702.4054
 -23229345.10344 -18100777.85444  20528134.1544   20528134.5284
   5704707.47944                  25085882.1134
  -2274312.13644  -1772187.28244  24752902.5844   24752903.0784
 -25233266.27144 -19662273.14644  20544444.3874   20544444.6764
 96  4 21  0 27 30.0000000  0  8G24G 6G16G 9G20G 4G17G 5
 -11905737.78244  -9277184.46744  22167550.5864   22167551.9364
 -16110501.56944 -12553621.36144  22092641.1634   22092641.4384
 -16760914.84344 -13060437.61644  21246693.4064   21246694.0774
   1802701.30144                  25376700.6824
 -23250599.84144 -18117339.98244  20524089.5164   20524089.9334
   5799136.76144                  25103850.6054
  -2367300.84844  -1844645.86544  24735207.0164   24735213.1134
 -25190733.97644 -19629131.10944  20552538.1464   20552538.2774
 96  4 21  0 28  0.0000000  0  7G24G 6G16G 9G20G17G 5
 -11833293.09844  -9220734.07644  22181336.3334   22181337.2094
 -16171663.17744 -12601279.73944  22081002.6474   22081002.9654
 -16799830.30244 -13090761.32744  21239288.0814   21239289.0704
   1886617.04844                  25392670.9814
 -23271242.11944 -18133424.87344  20520161.2274   20520161.5994
  -2460120.16544  -1916972.47044  24717542.7114   24717546.3984
 -25147648.90044 -19595558.33144  20560737.0514   20560737.2044
 96  4 21  0 28 30.0000000  0  7G24G 6G16G 9G20G17G 5
 -11760709.92944  -9164175.77144  22195148.2484   22195148.8554
 -16232759.58744 -12648887.30944  22069376.0234   22069376.5914
 -16838222.51944 -13120677.32344  21231982.0624   21231983.1314
   1970324.07344                  25408602.1614
 -23291317.75444 -18149068.22644  20516341.0504   20516341.4344
  -2552795.11344  -1989186.57844  24699904.9654   24699911.2114
 -25104041.10844 -19561578.23944  20569035.4664   20569035.5244
 96  4 21  0 29  0.0000000  0  6G24G 6G17G16G20G 5
 -11687997.93144  -9107517.08044  22208985.3114   22208985.4444
 -16293782.72744 -12696437.78344  22057763.8664   22057764.2454
  -2645324.43144  -2061287.19044  24682297.8924   24682308.0694
 -16876093.75044 -13150187.35544  21224775.6324   21224776.6194
 -23310834.23344 -18164275.87344  20512627.4324   20512627.7814
 -25059913.72944 -19527193.27944  20577432.4564   20577432.8034
 96  4 21  0 29 30.0000000  0  6G24G 6G16G17G20G 5
 -11615148.60944  -9050751.38144  22222847.7154   22222848.5714
 -16354703.10544 -12743908.18544  22046171.2514   22046171.0854
 -16913441.86344 -13179289.76244  21217668.5164   21217669.6544
  -2737701.99944  -2133269.56344  24664718.3224   24664727.5064
 -23329777.93344 -18179037.19544  20509022.3204   20509022.8364
 -25015263.56944 -19492400.95744  20585929.3384   20585929.6594
 96  4 21  0 30  0.0000000  0  7G24G20G 6G25G17G16G 5
 -11542163.50144  -8993879.88144  22236736.5864   22236737.0514
 -23348138.42144 -18193344.07544  20505528.3224   20505528.9624
 -16415495.23444 -12791278.65644  22034602.8184   22034602.6434
        -0.91154                  25119106.2254
  -2829892.28244  -2205106.02344  24647176.0274   24647182.0584
 -16950258.38344 -13207977.94044  21210662.2994   21210663.3404
 -24970080.25844 -19457193.19644  20594527.2444   20594527.5614
 96  4 21  0 30 30.0000000  0  7G24G 6G20G25G17G16G 5
 -11469049.28244  -8936907.77644  22250649.6904   22250650.6984
 -16476180.15244 -12838565.58444  22023054.8044   22023054.7414
 -23365920.97244 -18207200.60944  20502144.4424   20502144.9384
    -22933.30644    -17869.79444  25114743.3524   25114742.0794
  -2921889.71344  -2276792.19644  24629669.2354   24629672.8914
 -16986516.94644 -13236231.34744  21203762.5234   21203763.9474
 -24924376.81444 -19421580.13744  20603224.3724   20603224.5254
 96  4 21  0 31  0.0000000  0  7G24G 6G16G20G25G17G 5
 -11395839.98044  -8879861.57544  22264580.7224   22264581.3374
 -16536804.24644 -12885805.11744  22011518.4254   22011518.6064
 -17022237.07044 -13264065.19044  21196965.1684   21196966.2434
 -23383156.83444 -18220631.15344  20498864.8284   20498865.1934
    -45431.52244    -35400.82844  25110463.2614   25110463.3754
  -3013751.37444  -2348372.57344  24612189.6844   24612196.7054
 -24878200.24344 -19385598.41144  20612011.4154   20612011.6644
 96  4 21  0 31 30.0000000  0  8G24G 6G16G 4G20G25G17G 5
 -11322547.32544  -8822750.42544  22278527.9494   22278528.9694
 -16597380.63144 -12933007.47144  21999991.0044   21999991.1994
 -17057415.43544 -13291476.88644  21190270.9564   21190272.0304
        -0.50754                  25247291.9044
 -23399866.07344 -18233651.33944  20495685.0234   20495685.4644
    -67499.74044    -52596.85444  25106264.6634   25106261.9164
  -3105489.49544  -2419856.74644  24594731.9424   24594735.9244
 -24831560.62144 -19349255.86044  20620886.6634   20620886.8904
 96  4 21  0 32  0.0000000  0  8G24G 6G16G 4G20G25G17G 5
 -11249143.38344  -8765552.55744  22292496.3464   22292497.0894
 -16657880.86444 -12980150.49544  21988478.1234   21988478.0564
 -17092019.02444 -13318440.70044  21183686.4454   21183687.3604
     93846.22844                  25265149.8904
 -23416025.15444 -18246242.83844  20492609.9974   20492610.3354
    -89093.31544                  25102156.8114
  -3197065.21844  -2491214.30144  24577306.9654   24577307.3994
 -24784419.35344 -19312522.42344  20629857.4094   20629857.8304
 96  4 21  0 32 30.0000000  0  8G24G 6G16G 4G20G25G17G 5
 -11175613.25944  -8708256.36544  22306488.8274   22306489.0044
 -16718306.05144 -13027235.04244  21976980.0804   21976979.9384
 -17126041.61544 -13344951.78944  21177212.0944   21177213.0794
    187612.15244                  25282993.2344
 -23431621.37844 -18258395.74344  20489642.1984   20489642.7614
   -110185.98944                  25098142.6014
  -3288476.86844  -2562444.06744  24559912.8474   24559916.0224
 -24736770.14844 -19275393.18944  20638924.7014   20638924.9764
 96  4 21  0 33  0.0000000  0  8G24G 6G16G 4G20G25G17G 5
 -11101986.29644  -8650884.71244  22320499.3184   22320500.1254
 -16778678.23044 -13074278.27744  21965491.2844   21965491.5494
 -17159528.08244 -13371045.11944  21170839.5924   21170840.9794
    281256.79644                  25300812.5834
 -23446686.52844 -18270134.82144  20486775.4734   20486775.9534
   -130801.54744                  25094217.5634
  -3379756.44544  -2633570.91144  24542542.9714   24542543.3364
 -24688638.80044 -19237888.26144  20648083.8314   20648084.2584
 96  4 21  0 33 30.0000000  0  8G24G 6G16G 4G20G25G17G 5
 -11028264.13844  -8593438.88944  22334528.3044   22334529.2994
 -16838978.53444 -13121265.51744  21954016.2664   21954016.7014
 -17192482.62544 -13396723.96144  21164568.7654   21164569.8274
    374801.93244                  25318615.3144
 -23461210.22344 -18281451.99044  20484011.6364   20484011.9794
   -150928.06644                  25090388.8944
  -3470875.97044  -2704573.04144  24525202.9984   24525203.8074
 -24639994.98144 -19199984.00544  20657340.3834   20657340.4054
 96  4 21  0 34  0.0000000  0  7G24G 6G25G20G17G16G 5
 -10954442.02344  -8535915.17644  22348576.4184   22348576.9824
 -16899212.58644 -13168201.12844  21942553.8854   21942554.4144
   -170568.39444                  25086647.6304
 -23475163.43944 -18292324.62944  20481356.6444   20481357.0984
  -3561838.52044  -2775452.79644  24507891.6364   24507894.8194
 -17224902.48144 -13421986.16844  21158399.2554   21158400.2484
 -24590829.81144 -19161673.49844  20666696.2724   20666696.7724
 96  4 21  0 34 30.0000000  0  6G24G 6G17G16G20G 5
 -10880523.05244  -8478315.98544  22362642.9894   22362643.4644
 -16959392.92644 -13215094.88244  21931101.9774   21931102.4994
  -3652662.37444  -2846224.51644  24490607.4024   24490611.5244
 -17256770.00644 -13446817.98544  21152335.1394   21152336.1214
 -23488528.80944 -18302739.20744  20478812.9974   20478813.5384
 -24541149.39344 -19122961.50144  20676150.4144   20676150.4414
 96  4 21  0 35  0.0000000  0  6G24G 6G17G16G20G 5
 -10806518.63844  -8420650.22744  22376725.0884   22376725.4914
 -17019526.89944 -13261952.50644  21919659.1424   21919659.3014
  -3743367.43244  -2916903.69144  24473346.6514   24473352.9454
 -17288099.39144 -13471230.47344  21146373.3734   21146373.8574
 -23501320.25544 -18312706.57244  20476378.9864   20476379.4394
 -24490962.82444 -19083855.09944  20685700.4884   20685700.6284
 96  4 21  0 35 30.0000000  0  6G24G 6G17G16G20G 5
 -10732376.97644  -8362877.51644  22390833.9454   22390834.3584
 -17079551.15244 -13308724.63344  21908236.8584   21908236.9664
  -3833899.82744  -2987448.28544  24456119.0414   24456122.3764
 -17318832.85444 -13495178.60144  21140524.7174   21140525.8484
 -23513474.67644 -18322177.55044  20474066.1824   20474066.6494
 -24440214.28844 -19044310.80244  20695357.5674   20695357.8754
 96  4 21  0 36  0.0000000  0  6G24G 6G16G17G20G 5
 -10658129.86444  -8305022.64644  22404962.6144   22404963.1894
 -17139493.68944 -13355433.08144  21896830.1804   21896829.9664
 -17348989.15444 -13518676.99744  21134786.3034   21134787.2254
  -3924302.84744  -3057892.07344  24438915.2884   24438919.4634
 -23525019.11644 -18331173.21844  20471869.2254   20471869.7994
 -24388950.95144 -19004365.36344  20705112.7604   20705112.9224
 96  4 21  0 36 30.0000000  0  7G24G 6G25G20G17G16G 5
 -10583771.92744  -8247081.39944  22419113.1904   22419113.7354
 -17199334.99244 -13402062.65444  21885442.9094   21885443.0884
        -1.09154                  25069310.8344
 -23535963.35044 -18339701.19644  20469786.4724   20469787.0094
  -4014561.32044  -3128223.21844  24421739.5094   24421744.3504
 -17378556.73444 -13541716.64944  21129159.7044   21129160.8374
 -24337169.48244 -18964016.18944  20714966.2004   20714966.6774
 96  4 21  0 37  0.0000000  0  7G24G 6G25G17G20G16G 5
 -10509288.56544  -8189042.42544  22433286.7484   22433287.5134
 -17259050.53544 -13448594.23944  21874079.6494   21874079.9724
    -16737.42244                  25066128.6634
  -4104637.57644  -3198412.41344  24404599.1414   24404603.0244
 -23546290.65544 -18347748.44944  20467821.4744   20467821.9574
 -17407524.49744 -13564288.91144  21123647.4594   21123648.3394
 -24284855.06044 -18923251.72444  20724921.2874   20724921.5264
 96  4 21  0 37 30.0000000  0  6G24G 6G17G20G16G 5
 -10434708.43844  -8130928.04444  22447478.8194   22447479.2234
 -17318665.65444 -13495047.56444  21862734.8584   21862735.4504
  -4194547.33044  -3268471.85544  24387489.7724   24387493.0104
 -23556012.23444 -18355323.71144  20465971.4654   20465971.8464
 -17435900.47144 -13586400.04244  21118247.6794   21118248.3284
 -24232035.11044 -18882093.33844  20734972.8514   20734973.1944
 96  4 21  0 38  0.0000000  0  7G24G 6G25G17G20G16G 5
 -10360029.42544  -8072736.62244  22461689.4414   22461690.1424
 -17378189.30144 -13541429.61644  21851407.9224   21851408.2574
        -0.77954                  25060063.6984
  -4284279.17944  -3338392.64544  24370413.9244   24370418.2164
 -23565125.49544 -18362424.95444  20464237.2914   20464237.6204
 -17463687.64044 -13608052.36144  21112959.7724   21112960.9394
 -24178718.52744 -18840547.97044  20745118.6984   20745118.9194
 96  4 21  0 38 30.0000000  0  7G24G 6G25G17G20G16G 5
 -10285210.87244  -8014436.44944  22475926.7774   22475927.0934
 -17437591.54444 -13587717.06344  21840103.8954   21840103.9464
    -15103.94944                  25057186.6234
  -4373792.65044  -3408143.28244  24353380.9024   24353388.3504
 -23573607.35544 -18369034.19444  20462623.2574   20462623.6854
 -17490864.11944 -13629228.81544  21107788.2184   21107789.3064
 -24124870.93244 -18798588.82044  20755365.5364   20755365.8124
 96  4 21  0 39  0.0000000  0  7G24G 6G25G17G20G16G 5
 -10210253.25644  -7956027.92444  22490190.8534   22490191.4624
 -17496883.59444 -13633918.65244  21828821.1924   21828820.8974
    -29681.18244    -23127.83344  25054408.6984   25054409.2464
  -4463088.17944  -3477724.16144  24336388.3294   24336391.3054
 -23581467.91444 -18375159.30844  20461127.3284   20461127.9024
 -17517453.26644 -13649947.61344  21102728.7394   21102729.6354
 -24070498.05344 -18756220.35844  20765712.3654   20765712.6624
 96  4 21  0 39 30.0000000  0  7G24G 6G25G17G20G16G 5
 -10135171.14244  -7897522.39044  22504478.5664   22504480.0914
 -17556071.65044 -13680039.20444  21817557.9564   21817557.9654
    -43783.69644    -34117.16344  25051726.5974   25051726.6964
  -4552181.83144  -3547147.67844  24319435.0084   24319438.3294
 -23588745.27744 -18380829.97944  20459742.7664   20459743.2864
 -17543483.04444 -13670230.53744  21097775.3824   21097776.3074
 -24015614.27244 -18713453.79444  20776156.3504   20776156.5134
 96  4 21  0 40  0.0000000  0  7G24G 6G25G17G20G16G 5
 -10059989.18444  -7838939.06744  22518785.4374   22518785.6174
 -17615180.23144 -13726097.82744  21806309.6484   21806309.6494
    -57465.89944    -44778.51044  25049120.2604   25049124.0364
  -4641104.77044  -3616438.16144  24302513.0014   24302516.8904
 -23595486.87044 -18386083.16644  20458460.0154   20458460.5104
 -17568997.45544 -13690111.87544  21092920.0584   21092921.1384
 -23960252.82744 -18670315.02144  20786691.4454   20786691.5454
 96  4 21  0 40 30.0000000  0  7G24G 6G25G17G20G16G 5
  -9984701.94844  -7780273.69944  22533112.1354   22533112.7554
 -17674195.29044 -13772083.57444  21795079.3914   21795079.4744
    -70708.65944    -55097.54044  25046602.5844   25046600.4394
  -4729855.73544  -3685594.68444  24285624.2954   24285623.5714
 -23601679.73244 -18390908.77244  20457281.3074   20457281.7974
 -17593975.39544 -13709575.18344  21088166.7214   21088167.7904
 -23904403.25144 -18626795.89244  20797319.2414   20797319.6404
 96  4 21  0 41  0.0000000  0  7G24G 6G25G17G20G16G 5
  -9909332.84844  -7721544.53844  22547454.7094   22547454.9364
 -17733118.46044 -13817997.71744  21783867.1184   21783867.3854
    -83522.23544    -65082.14544  25044165.8314   25044166.2974
  -4818438.76144  -3754620.32344  24268767.4904   24268769.4014
 -23607309.96744 -18395295.96744  20456209.9044   20456210.3514
 -17618407.99144 -13728613.55444  21083517.4964   21083518.3744
 -23848087.22244 -18582913.29644  20808035.8204   20808036.1644
 96  4 21  0 41 30.0000000  0  7G24G 6G25G17G20G16G 5
  -9833918.85044  -7662780.40344  22561805.0064   22561805.5224
 -17791961.94244 -13863849.76944  21772669.7324   21772669.5824
    -95920.95244    -74743.48644  25041809.3514   25041806.3844
  -4906885.18344  -3823539.50844  24251937.3734   24251938.1524
 -23612382.90444 -18399248.90644  20455244.5704   20455244.9574
 -17642288.01444 -13747221.34444  21078973.2154   21078974.1654
 -23791332.18944 -18538688.62244  20818835.8154   20818836.1144
 96  4 21  0 42  0.0000000  0  7G24G 6G25G17G20G16G 5
  -9758439.72444  -7603965.51244  22576168.1934   22576168.6454
 -17850706.47644 -13909624.71344  21761490.8274   21761491.2044
   -107859.99644    -84046.67444  25039538.7614   25039536.4184
  -4995177.30844  -3892338.51244  24235135.6434   24235136.8804
 -23616853.59444 -18402732.56044  20454393.6534   20454394.1804
 -17665577.11044 -13765368.67444  21074541.2704   21074542.1544
 -23734112.38844 -18494101.78644  20829724.3094   20829724.8354
 96  4 21  0 42 30.0000000  0  7G24G 6G25G17G20G16G 5
  -9682880.51544  -7545088.21544  22590547.0044   22590547.7724
 -17909327.05144 -13955303.06344  21750335.7994   21750336.3574
   -119302.08544    -92962.62544  25037362.1224   25037361.3294
  -5083283.59744  -3960992.67544  24218368.9354   24218372.5424
 -23620698.13444 -18405728.30944  20453662.2654   20453662.8444
 -17688241.57744 -13783029.28144  21070228.5864   21070229.5924
 -23676402.63244 -18449133.16444  20840706.1824   20840706.5884
 96  4 21  0 43  0.0000000  0  7G24G 6G25G17G20G16G 5
  -9607246.01144  -7486152.25844  22604939.5584   22604940.4344
 -17967829.74344 -14000889.56144  21739202.8974   21739203.2734
   -130250.94544   -101494.20044  25035278.9884   25035277.3684
  -5171211.11744  -4029507.51444  24201634.9244   24201638.8084
 -23623939.17044 -18408253.79144  20453045.4464   20453045.9274
 -17710290.75744 -13800210.44244  21066032.8664   21066033.4344
 -23618204.48244 -18403783.97844  20851781.2944   20851781.3174
 96  4 21  0 43 30.0000000  0  7G24G 6G25G17G20G16G 5
  -9531526.01544  -7427149.67644  22619348.5254   22619349.1364
 -18026225.09944 -14046392.43244  21728090.5464   21728090.3684
   -140687.62744   -109626.69344  25033292.5534   25033290.2924
  -5258957.04644  -4097880.89444  24184938.1074   24184940.0894
 -23626588.70844 -18410318.36444  20452541.2464   20452541.8664
 -17731737.30544 -13816922.02144  21061951.7784   21061952.6014
 -23559502.21644 -18358041.97344  20862951.8854   20862952.0564
 96  4 21  0 44  0.0000000  0  7G24G 6G25G17G16G20G 5
  -9455718.95544  -7368079.25444  22633774.2514   22633775.1034
 -18084524.75144 -14091820.71644  21716996.6044   21716996.8474
   -150615.49944   -117362.66844  25031403.3124   25031402.2364
  -5346523.11444  -4166114.09244  24168275.5754   24168279.5714
 -17752611.03544 -13833187.25144  21057979.3724   21057980.3154
 -23628661.89444 -18411933.83644  20452146.7354   20452147.2464
 -23500311.19744 -18311919.11644  20874215.5454   20874215.6344
 96  4 21  0 44 30.0000000  0  7G24G 6G25G17G20G16G 5
  -9379834.99444  -7308948.90644  22648214.6024   22648215.2214
 -18142740.90344 -14137183.93244  21705918.7924   21705918.3944
   -160047.63244   -124712.38844  25029607.0384   25029606.4094
  -5433912.12444  -4234209.32044  24151646.2674   24151649.7344
 -23630162.12044 -18413102.84644  20451861.3154   20451861.8724
 -17772922.84744 -13849014.62244  21054114.3694   21054114.9624
 -23440645.93144 -18265426.71144  20885569.5504   20885569.8834
 96  4 21  0 45  0.0000000  0  7G24G 6G25G17G20G16G 5
  -9303881.23344  -7249764.18544  22662668.1804   22662669.0344
 -18200881.36244 -14182488.17644  21694854.8124   21694854.5574
   -168994.16344   -131683.70244  25027906.1614   25027905.9764
  -5521126.53744  -4302168.54644  24135049.0394   24135050.7064
 -23631071.57844 -18413811.52044  20451688.3204   20451688.7854
 -17792676.02844 -13864406.69644  21050355.2194   21050355.9524
 -23380511.09944 -18218568.42444  20897012.8124   20897013.1794
 96  4 21  0 45 30.0000000  0  7G24G 6G25G17G20G16G 5
  -9227848.77544  -7190518.12344  22677136.6734   22677137.3064
 -18258934.65744 -14227724.49844  21683807.7584   21683807.8264
   -177455.28544   -138276.83644  25026294.2804   25026297.8944
  -5608155.12844  -4369982.95144  24118488.6754   24118492.6824
 -23631379.79644 -18414051.68944  20451629.5714   20451629.9714
 -17811870.53944 -13879363.44544  21046702.9714   21046703.9164
 -23319907.12944 -18171344.57244  20908544.9984   20908545.4814
 96  4 21  0 46  0.0000000  0  7G24G 6G25G17G16G20G 5
  -9151758.13344  -7131226.72544  22691615.6764   22691616.7374
 -18316900.92744 -14272893.00444  21672776.8894   21672777.4064
   -185454.22244   -144509.76344  25024770.5814   25024771.6434
  -5695018.17444  -4437668.32344  24101959.2744   24101962.4334
 -17830513.49544 -13893890.41244  21043154.9994   21043155.9974
 -23631105.54944 -18413837.99544  20451681.5574   20451682.1144
 -23258856.75744 -18123772.87444  20920162.6904   20920163.2244
 96  4 21  0 46 30.0000000  0  7G24G 6G25G17G20G16G 5
  -9075607.52144  -7071888.59944  22706106.6454   22706107.3334
 -18374769.38444 -14317985.28744  21661764.5464   21661765.0004
   -192990.47944   -150382.18044  25023335.2384   25023339.7264
  -5781709.36944  -4505219.81744  24085463.2114   24085465.5034
 -23630241.00744 -18413164.33044  20451846.3284   20451846.7604
 -17848579.06244 -13907967.46844  21039717.4134   21039718.3534
 -23197339.23844 -18075837.16944  20931869.2674   20931869.7174
 96  4 21  0 47  0.0000000  0  7G24G 6G25G17G20G16G 5
  -8999379.91144  -7012490.47644  22720612.4624   22720613.3004
 -18432514.83044 -14362981.71844  21650776.3774   21650776.5504
   -200055.70644   -155887.56944  25021989.9794   25021993.7834
  -5868224.63444  -4572634.25944  24068998.5564   24068999.1704
 -23628788.81144 -18412032.75644  20452122.7694   20452123.3444
 -17866057.81744 -13921587.26344  21036391.0554   21036392.4144
 -23135340.27044 -18027526.30844  20943667.1634   20943667.8074
 96  4 21  0 47 30.0000000  0  7G24G 6G25G17G20G16G 5
  -8923069.24744  -6953027.63144  22735133.9794   22735134.4804
 -18490122.83444 -14407871.05144  21639814.3814   21639813.9774
   -206654.10244   -161029.19344  25020734.9474   25020737.0574
  -5954567.25244  -4639914.12944  24052567.1854   24052569.9834
 -23626752.76344 -18410446.22844  20452510.1704   20452510.6364
 -17882937.84244 -13934740.52244  21033179.1144   21033179.8174
 -23072853.61444 -17978835.42944  20955558.1844   20955558.7414
 96  4 21  0 48  0.0000000  0  7G24G 6G25G17G20G16G 5
  -8846690.84044  -6893511.99944  22749668.5064   22749670.0934
 -18547607.53744 -14452664.30944  21628875.0864   21628874.7164
   -212799.56744   -165817.94244  25019563.6884   25019565.2314
  -6040755.56044  -4707073.75744  24036167.3924   24036169.4184
 -23624125.94344 -18408399.36444  20453009.8394   20453010.4344
 -17899214.67544 -13947423.75844  21030082.1644   21030082.9264
 -23009885.99644 -17929769.78244  20967540.5514   20967540.8494
 96  4 21  0 48 30.0000000  0  7G20G24G 6G25G17G16G 5
 -23620890.19144 -18405878.00744  20453625.6714   20453626.1544
  -8770240.60844  -6833940.40044  22764216.5144   22764217.1904
 -18604973.44444 -14497364.99544  21617958.4814   21617958.6254
   -218496.84044   -170257.34244  25018480.1014   25018480.6854
  -6126782.14444  -4774107.36244  24019798.4874   24019801.3694
 -17914881.06244 -13959631.32244  21027100.4934   21027101.4974
 -22946425.00344 -17880319.68444  20979617.0104   20979617.2194
 96  4 21  0 49  0.0000000  0  7G20G24G 6G25G17G16G 5
 -23617041.44144 -18402878.98944  20454358.0214   20454358.6134
  -8693704.84144  -6774302.16044  22778781.0874   22778781.5414
 -18662217.27244 -14541970.55344  21607065.6704   21607066.0104
   -223732.74044   -174337.27844  25017484.5764
  -6212636.10744  -4841006.50844  24003459.5584   24003463.3794
 -17929933.03644 -13971360.12344  21024236.0734   21024237.1594
 -22882474.45644 -17830488.10644  20991786.3274   20991786.6364
 96  4 21  0 49 30.0000000  0  7G20G24G 6G25G17G16G 5
 -23612588.15844 -18399408.90644  20455205.6564   20455206.0604
  -8617098.60944  -6714609.00344  22793359.0164   22793359.1234
 -18719363.20544 -14586499.83544  21596190.8704   21596191.2014
   -228512.29544   -178061.57644  25016573.2944
  -6298323.23244  -4907775.60844  23987153.5354   23987156.1194
 -17944380.88744 -13982618.17944  21021486.7874   21021487.8094
 -22818050.93644 -17780287.98444  21004045.6754   21004045.8184
 96  4 21  0 50  0.0000000  0  7G20G24G 6G25G17G16G 5
 -23607525.25444 -18395463.79144  20456169.1054   20456169.6254
  -8540411.96844  -6654853.20144  22807951.4804   22807952.4864
 -18776401.62944 -14630945.34144  21585336.8494   21585337.0894
   -232809.93244   -181410.37944  25015758.5204   25015758.8414
  -6383822.22244  -4974398.15944  23970883.4464   23970885.6614
 -17958231.30744 -13993410.70744  21018851.3984   21018852.1244
 -22753153.68644 -17729718.71844  21016395.1324   21016395.4994
 96  4 21  0 50 30.0000000  0  7G20G24G 6G25G17G16G 5
 -23601861.53744 -18391050.51144  20457246.8604   20457247.6164
  -8463634.50444  -6595026.61244  22822561.6624   22822562.9364
 -18833306.65144 -14675286.90144  21574508.0734   21574508.0314
   -236606.89244   -184369.12244  25015036.0834   25015034.5124
  -6469110.65644  -5040856.61444  23954654.7204   23954656.5944
 -17971486.72944 -14003739.59744  21016328.7344   21016329.6224
 -22687785.70444 -17678782.65244  21028834.1884   21028834.8024
 96  4 21  0 51  0.0000000  0  7G20G24G 6G25G17G16G 5
 -23595619.06544 -18386186.25344  20458434.6474   20458435.1994
  -8386784.18044  -6535143.26944  22837185.5314   22837186.3174
 -18890067.44844 -14719516.07544  21563706.9874   21563706.8134
   -239901.79944   -186936.61044  25014409.8114
  -6554198.63744  -5107158.88844  23938462.6084   23938465.2234
 -17984168.07844 -14013621.15744  21013915.8314   21013916.4144
 -22621971.48244 -17627498.86844  21041358.0644   21041358.5834
 96  4 21  0 51 30.0000000  0  7G20G24G 6G25G17G16G 5
 -23588785.75244 -18380861.60144  20459735.2564   20459735.7934
  -8309873.96644  -6475213.23144  22851821.2524   22851821.9794
 -18946675.06844 -14763625.89144  21552934.7454   21552934.9584
   -242705.57844   -189121.34044  25013876.2694   25013881.7194
  -6639088.05144  -5173306.39444  23922306.9224   23922309.9544
 -17996279.96944 -14023058.98844  21011610.9374   21011611.7824
 -22555716.53844 -17575871.66044  21053966.0624   21053966.5574
 96  4 21  0 52  0.0000000  0  7G20G24G 6G25G17G16G 5
 -23581342.94944 -18375062.02144  20461151.4544   20461151.7234
  -8232897.14044  -6415231.30544  22866469.4964   22866470.9744
 -19003109.47044 -14807600.73344  21542195.7244   21542195.9014
   -245010.38844   -190917.28044  25013436.1624
  -6723761.62344  -5239285.73244  23906194.6704   23906198.4344
 -18007801.47744 -14032036.78244  21009418.0764   21009418.8564
 -22489014.99844 -17523896.45344  21066659.1914   21066659.5244
 96  4 21  0 52 30.0000000  0  7G20G24G 6G25G17G16G 5
 -23573297.37844 -18368792.75444  20462682.4654   20462682.8784
  -8155870.75344  -6355210.76744  22881127.3024   22881128.0594
 -19059397.52944 -14851461.54544  21531484.6714   21531484.5744
   -246838.55644   -192341.86044  25013090.2774   25013092.4904
  -6808236.96344  -5305110.64844  23890120.1724   23890121.9274
 -18018736.86944 -14040557.85944  21007337.0894   21007338.0464
 -22421880.03944 -17471583.52544  21079434.5734   21079434.8694
 96  4 21  0 53  0.0000000  0  7G20G24G 6G25G17G16G 5
 -23564625.64144 -18362035.56344  20464332.7544   20464333.2364
  -8078790.18844  -6295148.00944  22895795.1824   22895795.9004
 -19115551.26444 -14895217.69344  21520798.6434   21520798.4304
   -248188.14844                  25012832.5934
  -6892496.83544  -5370767.64644  23874084.7914   23874088.0004
 -18029057.70444 -14048600.06044  21005373.2154   21005373.8574
 -22354295.66044 -17418920.39944  21092295.4294   21092295.8744
 96  4 21  0 53 30.0000000  0  7G20G24G 6G25G17G16G 5
 -23555338.46544 -18354798.81444  20466099.8154   20466100.3434
  -8001665.31544  -6235050.72844  22910471.5284   22910472.6464
 -19171618.00944 -14938906.05244  21510129.3074   21510129.1664
   -249079.97044   -194088.49044  25012662.3614
  -6976554.09344  -5436266.71644  23858088.1904   23858094.0134
 -18038763.28344 -14056162.83944  21003526.5494   21003527.1244
 -22286275.73344 -17365917.88544  21105239.0964   21105239.5194
 96  4 21  0 54  0.0000000  0  7G20G24G 6G25G17G16G 5
 -23545463.40844 -18347103.97444  20467979.0644   20467979.5644
  -7924505.10244  -6174925.89444  22925154.5454   22925155.8464
 -19227614.93744 -14982540.01244  21499473.6884   21499473.3654
   -249511.59744   -194424.83344  25012580.0134
  -7060415.34944  -5501613.04844  23842132.2104   23842136.2284
 -18047873.46144 -14063261.66844  21001792.8574   21001793.5454
 -22217819.11344 -17312575.09144  21118266.1654   21118266.5444
 96  4 21  0 54 30.0000000  0  7G20G24G 6G25G17G16G 5
 -23535008.82644 -18338957.55444  20469968.3744   20469969.0234
  -7847304.28044  -6114769.41844  22939845.4284   22939846.2984
 -19283535.76244 -15026114.67344  21488832.2774   21488831.9974
   -249488.89644   -194407.06644  25012584.3954
  -7144088.74044  -5566813.03144  23826209.7734   23826211.8184
 -18056396.43844 -14069902.93744  21000170.8744   21000171.5354
 -22148922.67344 -17258889.57944  21131376.5984   21131376.8324
 96  4 21  0 55  0.0000000  0  7G20G24G 6G25G17G16G 5
 -23523973.88744 -18330358.90644  20472068.4054   20472068.9144
  -7770058.91744  -6054578.23544  22954545.2414   22954545.5814
 -19339364.89344 -15069617.87644  21478208.4144   21478208.5364
   -249006.12944   -194030.93244  25012675.4754   25012676.2894
  -7227585.54444  -5631875.43744  23810320.7964   23810322.3944
 -18064334.13244 -14076088.14444  20998660.4754   20998661.0854
 -22079583.81644 -17204859.32644  21144571.2414   21144571.4634
 96  4 21  0 55 30.0000000  0  7G20G24G 6G25G17G16G 5
 -23512364.93344 -18321312.97344  20474277.4604   20474277.8264
  -7692763.94244  -5994348.40044  22969253.8874   22969254.5534
 -19395081.88644 -15113033.70344  21467605.8124   21467605.8594
   -248065.45544   -193297.99044  25012854.9394   25012853.7534
  -7310926.47044  -5696816.36844  23794460.9944   23794464.6944
 -18071712.19944 -14081837.27644  20997256.6114   20997257.1974
 -22009803.05844 -17150484.73144  21157850.2444   21157850.5794
 96  4 21  0 56  0.0000000  0  7G20G24G 6G25G17G16G 5
 -23500176.48244 -18311815.48244  20476596.9014   20476597.3264
  -7615407.59344  -5934070.74344  22983974.4704   22983974.9734
 -19450650.94044 -15156334.25544  21457031.2954   21457031.5684
   -246661.04744                  25013122.0284
  -7394097.75244  -5761625.07244  23778634.4074   23778635.4494
 -18078523.30644 -14087144.62044  20995960.5804   20995961.2314
 -21939577.86544 -17095763.82844  21171213.8264   21171214.3734
 96  4 21  0 56 30.0000000  0  7G20G24G 6G25G17G16G 5
 -23487400.35344 -18301860.06144  20479028.2284   20479028.9284
  -7538011.40844  -5873762.04544  22998702.6224   22998703.2444
 -19506075.49244 -15199522.20644  21446483.9174   21446483.8974
   -244818.53944                  25013470.3004
  -7477109.38744  -5826309.38144  23762836.9844   23762839.2234
 -18084754.55044 -14092000.12344  20994774.6484   20994775.6134
 -21868934.27944 -17040716.90444  21184656.8274   21184657.2634
 96  4 21  0 57  0.0000000  0  7G20G24G 6G25G17G16G 5
 -23474010.82644 -18291426.66844  20481576.1944   20481576.6284
  -7460572.25244  -5813419.83944  23013438.3744   23013439.4064
 -19561337.79944 -15242583.73344  21435968.5284   21435968.2084
   -242518.20444                  25013907.8724
  -7559929.18644  -5890844.22944  23747077.7804   23747079.3914
 -18090372.29344 -14096377.57244  20993705.7464   20993706.3214
 -21797845.36944 -16985322.97044  21198184.6564   21198185.0694
 96  4 21  0 57 30.0000000  0  7G20G24G 6G25G17G16G 5
 -23460027.01744 -18280530.19944  20484237.1024   20484237.6554
  -7383113.59544  -5753062.46544  23028177.9154   23028178.4134
 -19616446.54744 -15285525.60544  21425481.3774   21425481.4644
   -239765.81544                  25014431.0534
  -7642546.16944  -5955221.00344  23731356.0524   23731357.5574
 -18095366.21144 -14100268.92744  20992755.4824   20992756.1024
 -21726325.74244 -16929593.40944  21211794.4014   21211794.8584
 96  4 21  0 58  0.0000000  0  7G20G24G 6G25G17G16G 5
 -23445445.27744 -18269167.81044  20487012.0344   20487012.6144
  -7305646.21844  -5692698.30344  23042919.7804   23042920.3964
 -19671412.27544 -15328356.02944  21415021.9074   21415021.6754
   -236549.40844   -184324.50844  25015045.5434
  -7724943.05144  -6019426.32544  23715675.5674   23715677.6574
 -18099715.07544 -14103657.64344  20991927.7144   20991928.2754
 -21654377.51744 -16873529.88744  21225485.6884   21225486.0124
 96  4 21  0 58 30.0000000  0  7G20G24G 6G25G17G16G 5
 -23430253.43944 -18257330.01644  20489902.8944   20489903.2954
  -7228171.99244  -5632328.79344  23057662.7814   23057663.2774
 -19726235.35144 -15371075.28944  21404589.4384   21404589.1824
   -232860.64644   -181450.19844  25015747.8014   25015749.1924
  -7807122.94744  -6083462.52644  23700038.3274   23700039.8104
 -18103419.97844 -14106544.56944  20991222.6964   20991223.4194
 -21581991.24044 -16817125.01844  21239260.0274   21239260.5584
 96  4 21  0 59  0.0000000  0  7G20G24G 6G25G17G16G 5
 -23414442.57644 -18245009.86744  20492911.7084   20492912.2594
  -7150641.67344  -5571915.56744  23072416.0174   23072416.6434
 -19780890.02444 -15413663.33844  21394188.9664   21394188.6264
   -228658.24844                  25016544.7854
  -7889062.88544  -6147311.74844  23684445.0714   23684446.9484
 -18106469.10044 -14108920.49844  20990642.5514   20990643.3534
 -21509132.95944 -16760352.36644  21253124.7024   21253125.3284
 96  4 21  0 59 30.0000000  0  7G20G24G 6G25G17G16G 5
 -23398032.41144 -18232222.73444  20496034.3264   20496034.8064
  -7073047.69844  -5511452.73444  23087181.7264   23087182.6224
 -19835400.26244 -15456138.83644  21383815.8554   21383815.7704
   -223961.32344   -174515.69544  25017440.5194   25017442.3694
  -7970780.31944  -6210987.53644  23668894.4904   23668896.7984
 -18108905.68344 -14110819.12444  20990178.6084   20990179.3424
 -21435838.07144 -16703239.50044  21267072.6074   21267073.2414
 96  4 21  1  0  0.0000000  0  7G20G24G 6G25G17G16G 5
 -23381033.23144 -18218976.62844  20499269.1764   20499269.5994
  -6995400.22544  -5450948.23744  23101957.6874   23101958.7294
 -19889791.49444 -15498521.60244  21373465.5614   21373465.5024
   -218821.56544   -170510.75844  25018419.8994   25018422.0314
  -8052314.20344  -6274520.37944  23653379.2294   23653382.0604
 -18110777.72044 -14112277.84044  20989822.3914   20989823.4334
 -21362138.89944 -16645811.60744  21281097.1954   21281097.3914
 96  4 21  1  0 30.0000000  0  7G20G24G 6G25G17G16G 5
 -23363441.49844 -18205268.79444  20502616.8704   20502617.3174
  -6917673.00244  -5390381.60044  23116748.8004   23116749.2854
 -19944044.72844 -15540796.83844  21363141.6124   21363141.6934
   -213235.65144   -166158.03844  25019482.2294   25019483.2474
  -8133669.10144  -6337913.76244  23637897.8244   23637899.5114
 -18112079.55144 -14113292.24544  20989574.7674   20989575.4934
 -21288024.93644 -16588060.49944  21295200.3654   21295200.8584
 96  4 21  1  1  0.0000000  0  7G24G20G 6G25G17G16G 5
  -6839866.87144  -5329753.45444  23131555.4474   23131555.9094
 -23345268.01444 -18191107.64544  20506075.1254   20506075.5344
 -19998157.86044 -15582962.90744  21352844.1924   21352843.8534
   -207204.61244   -161458.64044  25020630.3244   25020632.9174
  -8214838.34844  -6401162.46744  23622451.8914   23622455.3264
 -18112813.69744 -14113864.29544  20989435.1234   20989435.8104
 -21213497.02544 -16529986.83144  21309382.3024   21309382.9414
 96  4 21  1  1 30.0000000  0  7G20G24G 6G25G17G16G 5
 -23326492.24244 -18176477.18644  20509647.8864   20509648.7214
  -6761982.82544  -5269064.60244  23146375.8374   23146376.4194
 -20052117.25644 -15625009.17844  21342576.2234   21342576.1004
   -200723.88844   -156408.74044  25021864.0014   25021864.1744
  -8295808.00244  -6464255.59944  23607043.1374   23607047.3024
 -18112961.81144 -14113979.69744  20989406.9604   20989407.6894
 -21138552.13444 -16471588.24544  21323643.8234   21323644.5124
 96  4 21  1  2  0.0000000  0  7G20G24G 6G25G17G16G 5
 -23307122.32444 -18161383.75544  20513334.1154   20513334.5464
  -6684054.23244  -5208341.04144  23161204.5334   23161204.8354
 -20105923.10844 -15666935.79644  21332336.8664   21332337.0134
   -193800.23744   -151013.71544  25023181.7914   25023182.2284
  -8376605.28844  -6527214.42544  23591668.2834   23591671.9154
 -18112510.44344 -14113627.97644  20989492.7104   20989493.2814
 -21063192.60844 -16412866.55944  21337984.2574   21337984.9884
 96  4 21  1  2 30.0000000  0  7G20G24G 6G25G17G16G 5
 -23287174.66744 -18145840.14044  20517129.8834   20517130.8054
  -6606097.36844  -5147595.44444  23176039.1644   23176040.3894
 -20159580.35444 -15708746.62344  21322126.3304   21322126.6254
   -186418.55044   -145261.75844  25024587.5444   25024589.5004
  -8457219.81144  -6590030.90744  23576327.6624   23576329.0564
 -18111461.07644 -14112810.27544  20989692.1074   20989692.9054
 -20987411.99744 -16353816.75544  21352405.4244   21352406.1184
 96  4 21  1  3  0.0000000  0  7G20G24G 6G25G17G16G 5
 -23266654.01544 -18129850.03344  20521035.0274   20521035.6644
  -6528143.24544  -5086851.99044  23190873.7534   23190874.5124
 -20213115.03444 -15750461.95644  21311939.1964   21311939.3354
   -178598.87744   -139168.53644  25026074.4904   25026077.7044
  -8537649.84644  -6652703.61744  23561022.0944   23561024.5534
 -18109829.61944 -14111539.00044  20990002.9164   20990003.6274
 -20911230.27244 -16294454.39944  21366902.1254   21366902.5674
 96  4 21  1  3 30.0000000  0  7G20G24G 6G25G17G16G 5
 -23245525.03744 -18113385.90544  20525055.6634   20525056.1594
  -6450177.95344  -5026099.82544  23205710.2024   23205711.6934
 -20266518.38644 -15792074.94944  21301776.8704   21301776.5614
   -170333.66644   -132728.12644  25027646.1864   25027653.7934
  -8617881.58944  -6715221.79944  23545754.5064   23545757.6494
 -18107594.85144 -14109797.61544  20990428.1504   20990428.6814
 -20834642.42344 -16234775.58144  21381476.2084   21381476.9424
 96  4 21  1  4  0.0000000  0  7G20G24G 6G25G17G16G 5
 -23223791.88444 -18096450.99444  20529191.2804   20529191.8054
  -6372210.44344  -4965345.92244  23220546.7224   23220548.9504
 -20319793.55344 -15833588.06044  21291638.9884   21291638.8614
   -161626.80544   -125943.62444  25029305.1084
  -8697918.36644  -6777588.05244  23530524.8264   23530526.0794
 -18104766.16544 -14107593.43444  20990966.5094   20990967.1164
 -20757653.04944 -16174783.87944  21396126.7374   21396127.1124
 96  4 21  1  4 30.0000000  0  7G20G24G 6G25G17G16G 5
 -23201457.08744 -18079047.26944  20533441.5804   20533442.0374
  -6294226.46544  -4904579.17244  23235386.2434   23235388.0774
 -20372940.01044 -15875000.87644  21281525.3834   21281525.1434
   -152467.75644   -118806.74644  25031049.4864   25031048.9874
  -8777729.76344  -6839778.69844  23515336.6484   23515339.8124
 -18101348.16244 -14104930.04344  20991616.9524   20991617.6484
 -20680259.78444 -16114477.46444  21410854.5634   21410855.0984
 96  4 21  1  5  0.0000000  0  7G20G24G 6G25G17G16G 5
 -23178524.99444 -18061178.12344  20537805.2394   20537806.0084
  -6216234.26644  -4843806.03444  23250228.0764   23250228.2054
 -20425962.35444 -15916316.97744  21271435.6124   21271435.5564
   -142864.62944   -111323.84044  25032876.7784   25032878.9134
  -8857323.49544  -6901799.72844  23500190.6304   23500191.8064
 -18097347.05744 -14101812.28944  20992378.1464   20992378.9534
 -20602477.34244 -16053867.79744  21425656.1184   21425656.4754
 96  4 21  1  5 30.0000000  0  7G20G24G 6G25G17G16G 5
 -23155007.68944 -18042852.96044  20542280.3584   20542280.9574
  -6138228.88244  -4783022.71444  23265072.2044   23265073.5254
 -20478839.77344 -15957520.15344  21261373.6724   21261373.5584
   -132815.32944   -103493.20444  25034789.8004   25034792.2864
  -8936703.02444  -6963653.89044  23485084.9974   23485085.9804
 -18092767.18244 -14098243.54744  20993249.7424   20993250.3944
 -20524300.08744 -15992950.48444  21440532.6734   21440533.2184
 96  4 21  1  6  0.0000000  0  7G20G24G 6G25G17G16G 5
 -23130923.93744 -18024086.40744  20546863.7554   20546864.3754
  -6060206.11244  -4722225.75044  23279919.9014   23279920.8764
 -20531551.89244 -15998594.52244  21251342.6454   21251342.4524
   -122308.46344    -95306.17044  25036788.7964   25036791.1704
  -9015856.72344  -7025332.06744  23470022.5754   23470024.2014
 -18087603.20244 -14094219.65544  20994232.4934   20994233.0144
 -20445708.92744 -15931710.65344  21455487.8834   21455488.6294
 96  4 21  1  6 30.0000000  0  7G20G24G 6G25G17G16G 5
 -23106279.28344 -18004882.79544  20551553.3664   20551553.9984
  -5982170.26244  -4661418.60744  23294769.1014   23294769.6274
 -20584094.39644 -16039536.72244  21241344.3094   21241343.9514
   -111359.73544    -86774.71144  25038871.8614   25038875.9724
  -9094793.86844  -7086841.47344  23455001.4684   23455004.8674
 -18081852.61844 -14089738.66844  20995326.6724   20995327.6574
 -20366712.48544 -15870155.01544  21470520.5494   21470521.1524
 96  4 21  1  7  0.0000000  0  7G20G24G 6G25G17G16G 5
 -23081081.19944 -17985247.93744  20556348.3094   20556348.9564
  -5904138.37244  -4600614.55144  23309618.2794   23309619.3004
 -20636463.81144 -16080344.04844  21231378.6134   21231378.5454
    -99994.73744    -77918.89044  25041033.1274   25041033.7064
  -9173551.15344  -7148210.75544  23440014.6924   23440017.7474
 -18075515.64244 -14084800.75944  20996532.5764   20996533.2784
 -20287330.22244 -15808298.74244  21485626.4194   21485627.3044
 96  4 21  1  7 30.0000000  0  7G20G24G 6G25G17G16G 5
 -23055316.37544 -17965171.46544  20561251.4224   20561251.9104
  -5826097.46444  -4539803.44844  23324468.2214   23324469.6344
 -20688638.65644 -16120999.76144  21221450.1414   21221450.1034
    -88218.03544    -68742.28144  25043273.1714   25043276.0484
  -9252132.60944  -7209443.01544  23425060.1914   23425062.3784
 -18068568.82344 -14079387.64944  20997854.5634   20997855.2134
 -20207555.71644 -15746136.82644  21500807.0514   21500807.5314
 96  4 21  1  8  0.0000000  0  7G20G24G 6G25G17G16G 5
 -23028967.83244 -17944640.14644  20566265.2144   20566265.7104
  -5748035.24844  -4478975.76344  23339322.9554   23339324.7974
 -20740616.13644 -16161501.68144  21211558.9544   21211558.8094
    -76024.39944    -59240.75544  25045594.5514   25045596.8834
  -9330534.87044  -7270535.65744  23410140.9974   23410144.0904
 -18060988.50744 -14073480.90344  20999297.1594   20999297.7074
 -20127390.89944 -15683670.76644  21516062.0214   21516062.5914
 96  4 21  1  8 30.0000000  0  7G20G24G 6G25G17G16G 5
 -23002007.33044 -17923631.97644  20571395.3574   20571395.9394
  -5669927.78244  -4418112.81744  23354186.4164   23354186.7244
 -20792393.65544 -16201847.78844  21201706.1864   21201705.8574
    -63400.89744    -49404.25144  25047996.3014   25047994.1974
  -9408742.71244  -7331476.81044  23395259.1184   23395261.7794
 -18052760.12644 -14067069.17544  21000862.7724   21000863.2544
 -20046825.77844 -15620892.78944  21531393.1814   21531393.7264
 96  4 21  1  9  0.0000000  0  7G20G24G 6G25G17G16G 5
 -22974436.97544 -17902148.59944  20576642.1574   20576642.7154
  -5591767.25544  -4357208.51144  23369060.1044   23369060.5844
 -20843988.37344 -16242051.44944  21191888.1544   21191887.7544
    -50338.48644    -39225.80644  25050482.9624   25050480.2264
  -9486746.88644  -7392259.24044  23380414.6314   23380417.9544
 -18043902.10444 -14060166.81944  21002548.4414   21002548.8554
 -19965856.03044 -15557799.51444  21546801.3434   21546801.8684
 96  4 21  1  9 30.0000000  0  7G20G24G 6G25G17G16G 5
 -22946274.16644 -17880203.56344  20582001.5114   20582002.1244
  -5513556.83944  -4296265.33944  23383942.6854   23383944.6694
 -20895432.05844 -16282137.41944  21182098.4594   21182098.4274
    -36844.78544    -28711.24444  25053050.3434   25053048.4744
  -9564547.58244  -7452883.10944  23365608.8534   23365612.4574
 -18034453.98944 -14052804.64644  21004346.5434   21004347.1104
 -19884502.16544 -15494406.93344  21562282.3924   21562282.7954
 96  4 21  1 10  0.0000000  0  7G20G24G 6G25G17G16G 5
 -22917516.68744 -17857795.15144  20587473.5814   20587474.2614
  -5435291.03544  -4235279.03144  23398836.7294   23398837.0984
 -20946730.13444 -16322109.93144  21172336.6324   21172336.4614
    -22895.17944    -17841.43844  25055703.5754   25055704.9364
  -9642125.67244  -7513333.51044  23350846.5344   23350848.4544
 -18024427.61344 -14044991.88444  21006254.3444   21006254.9324
 -19802762.91244 -15430714.03844  21577837.0164   21577837.9844
 96  4 21  1 10 30.0000000  0  7G20G24G 6G25G17G16G 5
 -22888175.82144 -17834932.15344  20593057.0794   20593057.8764
  -5356992.83044  -4174267.48244  23413736.9714   23413737.3794
 -20997896.97344 -16361980.18844  21162600.1074   21162599.8554
     -8496.66844     -6621.86244  25058441.4174   25058439.3784
  -9719481.51044  -7573610.76144  23336127.4774   23336129.1344
 -18013850.31044 -14036749.83044  21008267.1124   21008267.6604
 -19720653.13744 -15366732.43544  21593461.7204   21593462.7514
 96  4 21  1 11  0.0000000  0  7G20G24G 6G25G17G16G 5
 -22858256.55144 -17811618.45144  20598750.3374   20598751.0064
  -5278677.05844  -4113242.23844  23428639.5994   23428639.6634
 -21048918.86644 -16401737.48844  21152891.0214   21152890.6824
      6345.60544      4943.53744  25061266.4394   25061264.2514
  -9796623.14944  -7633721.10544  23321447.6144   23321449.3994
 -18002714.09544 -14028072.25944  21010386.1934   21010386.7414
 -19638190.68544 -15302476.01544  21609153.4554   21609154.8004
 96  4 21  1 11 30.0000000  0  7G20G24G 6G25G17G16G 5
 -22827770.70044 -17787863.25644  20604551.5474   20604552.3614
  -5200361.44644  -4052217.10044  23443542.4244   23443542.3554
 -21099784.24544 -16441372.83444  21143211.5124   21143211.6984
     21613.65444     16840.62444  25064171.3624   25064172.6324
  -9873557.51544  -7693669.92544  23306807.8204   23306808.5944
 -17991006.68644 -14018949.60044  21012613.8844   21012614.7704
 -19555388.56144 -15237954.92944  21624910.4544   21624911.5584
 96  4 21  1 12  0.0000000  0  7G24G20G 6G25G17G16G 5
  -5122061.07944  -3991203.83044  23458442.7394   23458443.3094
 -22796718.91844 -17763667.07744  20610460.8284   20610461.4224
 -21150476.82544 -16480873.52944  21133565.0924   21133564.8304
     37301.21144     29064.63044  25067155.7244   25067158.2144
  -9950278.67044  -7753452.57544  23292207.3614   23292210.5074
 -17978708.40644 -14009366.52544  21014954.6704   21014955.0704
 -19472231.76344 -15173157.45144  21640735.1104   21640735.9224
 96  4 21  1 12 30.0000000  0  7G24G20G 6G25G17G16G 5
  -5043770.28344  -3930198.01944  23473339.9614   23473341.4924
 -22765098.85744 -17739028.08444  20616477.8884   20616478.2304
 -21200982.74944 -16520228.78644  21123953.8774   21123953.5124
     53399.25344     41608.54144  25070218.9554   25070221.6144
 -10026783.90244  -7813066.99444  23277648.4284   23277649.9104
 -17965811.21644 -13999316.76144  21017409.0344   21017409.4494
 -19388711.84444 -15108077.03244  21656628.4854   21656629.0024
 96  4 21  1 13  0.0000000  0  7G24G20G 6G25G17G16G 5
  -4965481.32644  -3869193.65144  23488238.8874   23488240.0254
 -22732924.14144 -17713956.88744  20622600.6704   20622601.0964
 -21251295.90644 -16559433.83944  21114380.0834   21114379.5064
     69908.07244     54472.49244  25073361.8854   25073364.2824
 -10103073.49044  -7872513.38444  23263131.8864   23263133.0914
 -17952313.93844 -13988799.40544  21019977.1564   21019977.5404
 -19304827.99644 -15042713.02544  21672590.6514   21672591.0034
 96  4 21  1 13 30.0000000  0  7G24G20G 6G25G17G16G 5
  -4887208.43744  -3808201.78944  23503134.0214   23503135.3584
 -22700206.60144 -17688462.71344  20628826.5724   20628827.1514
 -21301432.26144 -16598501.12544  21104839.3524   21104839.0084
     86823.60044     67653.33044  25076581.1104   25076583.3494
 -10179154.87644  -7931797.54744  23248654.1734   23248655.2464
 -17938240.69044 -13977833.23744  21022654.8684   21022655.4094
 -19220580.82644 -14977065.90644  21688622.7364   21688623.3264
 96  4 21  1 14  0.0000000  0  7G24G20G 6G25G17G16G 5
  -4808940.59944  -3747213.89144  23518027.7614   23518029.1894
 -22666916.43644 -17662522.34144  20635161.3794   20635162.1374
 -21351385.04644 -16637425.36244  21095333.6124   21095333.2564
    104166.66944     81167.40344  25079881.4474   25079885.1114
 -10255018.66544  -7990912.14944  23234217.5334   23234220.4104
 -17923575.62644 -13966405.91044  21025445.5864   21025446.4204
 -19135963.93444 -14911130.71044  21704724.9634   21704725.6624
 96  4 21  1 14 30.0000000  0  7G24G20G 6G25G17G16G 5
  -4730664.88744  -3686219.84144  23532922.9034   23532923.0624
 -22633043.13644 -17636127.57844  20641607.2594   20641608.1464
 -21401141.27444 -16676196.44644  21085865.0964   21085864.7344
    121950.79444     95025.06844  25083266.3964   25083269.3824
 -10330668.54344  -8049860.05844  23219821.6664   23219823.5064
 -17908306.08144 -13954507.55944  21028351.8254   21028352.2384
 -19050979.35144 -14844908.99044  21720896.8214   21720897.4374
 96  4 21  1 15  0.0000000  0  7G24G20G 6G25G17G16G 5
  -4652392.75844  -3625228.58944  23547818.1834   23547818.7704
 -22598593.88844 -17609284.02444  20648162.7964   20648163.3894
 -21450716.65444 -16714826.60844  21076431.2914   21076431.1954
    140168.59944    109220.70144  25086733.4474
 -10406109.28644  -8108645.00844  23205466.2194   23205467.7874
 -17892434.87144 -13942140.37744  21031371.6514   21031372.3004
 -18965643.73444 -14778413.74944  21737135.1804   21737136.2534
 96  4 21  1 15 30.0000000  0  7G24G20G 6G25G17G16G 5
  -4574132.68944  -3564246.74544  23562709.8034   23562711.0884
 -22563563.10244 -17581987.32144  20654829.0604   20654829.7784
 -21500123.43544 -16753325.39144  21067029.3024   21067029.0664
    158795.68944                  25090277.5764
 -10481358.31444  -8167280.57144  23191146.5884   23191148.6994
 -17875966.74444 -13929308.06244  21034505.3534   21034506.1454
 -18879963.75444 -14711650.16744  21753439.9884   21753440.9884
 96  4 21  1 16  0.0000000  0  7G24G20G 6G25G17G16G 5
  -4495860.74244  -3503255.64744  23577604.6624   23577606.8404
 -22527948.35044 -17554235.58244  20661606.1364   20661607.0154
 -21549351.14044 -16791684.63544  21057661.8854   21057661.6564
    177838.19744                  25093901.7544
 -10556407.03444  -8225760.05444  23176865.5154   23176866.0554
 -17858889.17944 -13916000.86244  21037755.2784   21037755.9114
 -18793937.10644 -14644616.46144  21769810.2004   21769811.1254
 96  4 21  1 16 30.0000000  0  7G20G24G 6G25G17G16G 5
 -22491741.36844 -17526022.36744  20668496.4114   20668497.0134
  -4417552.26444  -3442236.05844  23592506.2254   23592507.3074
 -21598377.12744 -16829886.69944  21048332.5064   21048332.0834
    197318.15844    153749.37244  25097607.9394   25097609.1354
 -10631223.57844  -8284058.62144  23162627.5304   23162628.0944
 -17841192.46744 -13902211.21144  21041122.8964   21041123.5014
 -18707536.04844 -14577291.00144  21786251.5534   21786252.3534
 96  4 21  1 17  0.0000000  0  7G24G20G 6G25G17G16G 5
  -4339243.43944  -3381216.20844  23607407.9184   23607408.2774
 -22454978.14244 -17497375.70944  20675492.0674   20675492.6054
 -21647248.80444 -16867968.52044  21039032.3744   21039031.8624
    217191.36844    169233.72544  25101390.2904   25101392.1214
 -10705832.30044  -8342195.26544  23148429.9794   23148431.5974
 -17822915.29644 -13887969.25544  21044600.9774   21044601.3084
 -18620799.90144 -14509704.43044  21802756.8504   21802757.4464
 96  4 21  1 17 30.0000000  0  7G20G24G 6G25G17G16G 5
 -22417648.18144 -17468287.44344  20682595.8114   20682596.2454
  -4260931.94044  -3320194.28244  23622309.6344   23622312.6994
 -21695945.05444 -16905913.64344  21029765.8634   21029765.6704
    237469.95044    185034.45544  25105250.8334
 -10780225.53444  -8400163.96144  23134273.3164   23134276.3974
 -17804048.44544 -13873267.80444  21048190.9604   21048191.6774
 -18533716.58644 -14441847.34344  21819328.9714   21819329.6614
 96  4 21  1 18  0.0000000  0  7G24G20G 6G25G17G16G 5
  -4182625.96144  -3259176.65344  23637211.2104   23637212.5524
 -22379766.04544 -17438768.90844  20689804.2924   20689804.8454
 -21744463.90744 -16943720.53444  21020532.8464   21020532.8424
    258156.30444                  25109187.6594
 -10854398.60544  -8457961.12944  23120158.7864   23120161.3194
 -17784597.64944 -13858111.33644  21051892.3684   21051892.8944
 -18446302.52644 -14373732.53144  21835963.3164   21835963.8484
 96  4 21  1 18 30.0000000  0  7G20G24G 6G25G17G16G 5
 -22341317.12544 -17408808.72944  20697121.1444   20697122.0544
  -4104319.47544  -3198158.64144  23652112.7714   23652112.4174
 -21792783.74044 -16981372.34144  21011337.9544   21011337.8514
    279246.60244    217588.72844  25113201.2934   25113204.7164
 -10928337.27544  -8515575.63244  23106088.4554   23106090.0514
 -17764546.11844 -13842486.76244  21055708.0384   21055708.6634
 -18358545.02744 -14305350.10144  21852662.5394   21852663.4724
 96  4 21  1 19  0.0000000  0  6G24G20G 6G17G16G 5
  -4026036.26544  -3137158.77544  23667009.7134   23667009.5224
 -22302338.22344 -17378435.57644  20704538.3594   20704539.1774
 -21840931.29744 -17018889.90944  21002175.9344   21002175.4334
 -11002084.75544  -8573041.14944  23092054.7914   23092056.2224
 -17743930.08544 -13826422.31644  21059631.4004   21059631.9124
 -18270482.81044 -14236730.23644  21869420.5654   21869421.2864
 96  4 21  1 19 30.0000000  0  7G20G24G 6G23G17G16G 5
 -22262812.08644 -17347636.00344  20712059.7494   20712060.8684
  -3947738.79444  -3076147.75644  23681909.6774   23681908.8414
 -21888868.43044 -17056243.51144  20993053.9694   20993053.4574
        -0.64654                  25270339.7474
 -11075620.57344  -8630341.74944  23078061.7574   23078062.3674
 -17722732.24844 -13809904.52044  21063664.9614   21063665.5824
 -18182093.73944 -14167855.67544  21886240.6374   21886241.8384
 96  4 21  1 20  0.0000000  0  7G24G17G23G16G 5G20G 6
  -3869406.89744  -3015109.92844  23696815.5984   23696814.4044
 -11148947.44544  -8687479.51844  23064108.2854   23064110.7284
   -107264.43444    -83582.71744  25249926.7554   25249932.0224
 -17700956.38244 -13792936.30744  21067808.7874   21067809.3364
 -18093374.54744 -14098723.88644  21903123.2774   21903124.4334
 -22222737.28844 -17316408.90444  20719686.1204   20719686.9104
 -21936590.40644 -17093429.45544  20983972.8164   20983972.8434
 96  4 21  1 20 30.0000000  0  7G24G17G23G16G 5G20G 6
  -3791076.41844  -2954073.22244  23711721.5064   23711722.4394
 -11222090.42844  -8744474.00644  23050189.1314   23050191.5764
   -214586.13744                  25229502.3554
 -17678639.75244 -13775546.72444  21072055.4014   21072056.0824
 -18004350.65044 -14029354.65944  21920063.8014   21920064.2374
 -22182144.65344 -17284778.29744  20727410.7854   20727411.2944
 -21984129.82844 -17130473.14744  20974925.8844   20974925.5564
 96  4 21  1 21  0.0000000  0  6G24G17G16G 5G20G 6
  -3712740.05344  -2893031.89644  23726627.6184   23726628.2144
 -11295036.29944  -8801314.88244  23036308.2954   23036310.3354
 -17655790.15344 -13757741.83644  21076403.6794   21076404.4154
 -17915008.69544 -13959737.58944  21937064.7174   21937065.6124
 -22141012.66844 -17252727.41644  20735237.7744   20735238.3654
 -22031482.27644 -17167371.15544  20965915.0264   20965914.6874
 96  4 21  1 21 30.0000000  0  6G24G17G16G 5G20G 6
  -3634395.35044  -2831984.08544  23741536.4634   23741538.0944
 -11367763.47044  -8857985.35144  23022468.9154   23022471.4914
 -17632384.40644 -13739503.58944  21080857.6144   21080858.2154
 -17825331.08044 -13889858.97444  21954130.0434   21954130.3934
 -22099311.53944 -17220233.04844  20743173.1514   20743173.7174
 -22078625.37844 -17204106.02744  20956944.1034   20956943.9324
 96  4 21  1 22  0.0000000  0  6G24G17G16G 5G20G 6
  -3556077.49544  -2770957.21844  23756439.7634   23756440.8824
 -11440284.88544  -8914495.49644  23008668.3674   23008668.9054
 -17608440.22344 -13720845.77944  21085414.0324   21085414.5804
 -17735339.75844 -13819735.90244  21971254.8764   21971255.3034
 -22057048.06944 -17187300.49044  20751215.6334   20751216.2624
 -22125577.16844 -17240691.82144  20948009.4864   20948009.1684
 96  4 21  1 22 30.0000000  0  6G24G17G16G 5G20G 6
  -3477783.12144  -2709948.63744  23771337.9744   23771338.5284
 -11512585.96644  -8970833.94944  22994909.3594   22994911.3224
 -17583933.38244 -13701749.54344  21090077.4394   21090077.8954
 -17645021.69444 -13749358.22444  21988441.9204   21988442.9594
 -22014204.79444 -17153916.13844  20759368.4694   20759369.4644
 -22172321.37044 -17277115.86244  20939114.4034   20939114.3584
 96  4 21  1 23  0.0000000  0  6G24G17G16G 5G20G 6
  -3399535.44244  -2648976.40544  23786227.8394   23786230.6974
 -11584715.17344  -9027038.47544  22981183.4024   22981185.3264
 -17558880.17944 -13682227.56144  21094844.8484   21094845.7244
 -17554400.90944 -13678744.66944  22005686.2134   22005687.0114
 -21970802.32944 -17120096.05444  20767627.9564   20767628.5914
 -22218879.20044 -17313394.68444  20930254.7224   20930254.3954
 96  4 21  1 23 30.0000000  0  6G24G17G16G 5G20G 6
  -3321328.07244  -2588035.62744  23801111.4934   23801113.7584
 -11656666.58444  -9083104.45044  22967491.6794   22967493.2654
 -17533243.85744 -13662251.21144  21099723.3294   21099724.0404
 -17463476.20444 -13607894.28744  22022988.7864   22022989.8574
 -21926847.00144 -17085845.16744  20775992.2574   20775992.9044
 -22265234.10044 -17349515.37444  20921433.7744   20921433.6004
 96  4 21  1 24  0.0000000  0  6G24G17G16G 5G20G 6
  -3243139.64944  -2527109.61244  23815989.9484   23815991.8284
 -11728421.05244  -9139016.97044  22953837.4164   22953839.3704
 -17507000.36444 -13641801.72944  21104717.2834   21104717.7004
 -17372226.81844 -13536790.92844  22040353.2604   22040354.6484
 -21882333.90844 -17051159.65544  20784462.9594   20784463.5424
 -22311367.97344 -17385463.83544  20912654.7414   20912654.3564
 96  4 21  1 24 30.0000000  0  7G24G23G17G16G 5G20G 6
  -3164968.50844  -2466197.04944  23830865.4614   23830864.6264
        -0.31554                  25066042.2334
 -11799973.49244  -9194772.05944  22940221.5824   22940223.8254
 -17480143.17344 -13620874.04644  21109827.9584   21109828.8934
 -17280644.11344 -13465427.83444  22057780.8514   22057782.0454
 -21837272.83444 -17016047.14844  20793037.7534   20793038.3684
 -22357280.34744 -17421239.70544  20903917.7624   20903917.4024
 96  4 21  1 25  0.0000000  0  6G24G17G16G 5G20G 6
  -3086801.21844  -2405287.48244  23845740.1194   23845740.5804
 -11871294.00144  -9250346.43544  22926649.4944   22926651.7154
 -17452668.67044 -13599465.34444  21115056.3854   21115056.8574
 -17188736.85644 -13393811.84044  22075269.8934   22075270.2464
 -21791658.74544 -16980503.71944  20801717.6514   20801718.2974
 -22402956.50644 -17456831.50944  20895226.0144   20895225.6004
 96  4 21  1 25 30.0000000  0  7G24G23G17G16G 5G20G 6
  -3008626.17044  -2344371.90244  23860616.6744   23860618.5524
        -1.01354                  25025203.2874
 -11942357.33744  -9305720.43344  22913126.6014   22913127.0744
 -17424581.56744 -13577579.28344  21120401.0854   21120401.4384
 -17096522.35844 -13321956.43344  22092818.2874   22092818.7424
 -21745493.49444 -16944530.81344  20810502.7374   20810503.2914
 -22448388.16744 -17492232.80044  20886580.6554   20886580.0934
 96  4 21  1 26  0.0000000  0  7G24G23G17G16G 5G20G 6
  -2930402.68544  -2283418.53644  23875501.8334   23875501.9124
   -107212.50144                  25004801.4474
 -12013122.72644  -9360862.25444  22899659.9714   22899661.0134
 -17395864.73644 -13555202.53544  21125865.6994   21125866.2354
 -17003981.85344 -13249846.99944  22110427.8734   22110428.7874
 -21698746.03244 -16908104.24144  20819398.0394   20819398.8124
 -22493542.91444 -17527418.30244  20877987.6354   20877987.6014
 96  4 21  1 26 30.0000000  0  7G24G23G17G16G 5G20G 6
  -2852168.42444  -2222456.79244  23890389.5774   23890390.6254
   -214387.88244                  24984407.2784
 -12083639.38344  -9415810.26444  22886241.4994   22886243.1204
 -17366575.01444 -13532379.37444  21131439.5254   21131440.0964
 -16911173.96044 -13177529.20144  22128088.9474   22128089.5374
 -21651452.99144 -16871252.53944  20828397.7284   20828398.5004
 -22538464.07544 -17562421.79544  20869439.8124   20869439.4154
 96  4 21  1 27  0.0000000  0  7G16G23G24G17G 5G20G 6
 -17336714.21544 -13509111.22044  21137121.6094   21137122.4924
   -321527.15044                  24964019.3404
  -2773913.33544  -2161478.81144  23905281.0284   23905281.8274
 -12153919.77344  -9470574.15344  22872867.6484   22872869.5724
 -16818109.35444 -13105011.36244  22145798.3984   22145798.8374
 -21603608.27844 -16833970.96144  20837502.5934   20837503.2394
 -22583151.99844 -17597243.54744  20860935.9014   20860935.6224
 96  4 21  1 27 30.0000000  0  7G24G23G17G16G 5G20G 6
  -2695648.29944  -2100493.07644  23920173.2844   23920174.2944
   -428637.57344                  24943638.7084
 -12223982.78244  -9525168.67844  22859535.1804   22859535.8114
 -17306289.57444 -13485403.70944  21142911.4964   21142911.7964
 -16724778.52744 -13032286.08844  22163558.4064   22163559.3494
 -21555227.94544 -16796272.01444  20846709.1414   20846709.6494
 -22627613.43244 -17631888.81744  20852475.1744   20852474.6804
 96  4 21  1 28  0.0000000  0  7G16G23G24G17G 5G20G 6
 -17275296.58344 -13461253.32744  21148808.9934   21148809.6084
   -535711.78544   -417436.18844  24923264.0524
  -2617380.75544  -2039505.41344  23935068.2404   23935067.6994
 -12293828.33844  -9579593.75744  22846243.6594   22846244.3284
 -16631153.95444 -12959331.92444  22181374.7494   22181375.9804
 -21506320.07744 -16758162.00944  20856015.9844   20856016.6334
 -22671851.87744 -17666360.33244  20844056.7304   20844056.3784
 96  4 21  1 28 30.0000000  0  7G16G23G24G17G 5G20G 6
 -17243761.14544 -13436680.26144  21154809.8744   21154810.4744
   -642766.47144   -500855.19844  24902892.2404   24902897.3134
  -2539136.60944  -1978535.98444  23949957.5474   23949958.1294
 -12363477.58944  -9633865.86844  22832989.8554   22832990.7164
 -16537236.96244 -12886149.90744  22199246.7924   22199247.9814
 -21456902.15944 -16719654.55844  20865419.8874   20865420.7764
 -22715892.97544 -17700678.06044  20835676.0654   20835675.9604
 96  4 21  1 29  0.0000000  0  7G16G23G24G17G 5G20G 6
 -17211682.20944 -13411683.68144  21160914.4354   21160914.9404
   -749803.41444   -584260.39644  24882523.1964   24882525.5434
  -2460923.74044  -1917590.91044  23964840.2014   23964843.2934
 -12432921.06844  -9687977.64244  22819775.5134   22819776.1524
 -16443019.70544 -12812733.91644  22217175.9114   22217176.9264
 -21406985.08244 -16680758.15244  20874918.4604   20874919.1464
 -22759734.76744 -17734840.48744  20827333.1344   20827332.8274
 96  4 21  1 29 30.0000000  0  7G16G23G24G17G 5G20G 6
 -17179075.59144 -13386275.93044  21167119.6664   21167120.3704
   -856825.09944   -667653.75044  24862156.8924
  -2382767.87844  -1856690.25244  23979713.0484   23979713.7974
 -12502158.02144  -9741928.48544  22806599.9844   22806601.5714
 -16348499.84944 -12739082.13444  22235161.8994   22235163.3454
 -21356588.81744 -16641488.35744  20884509.1464   20884509.6484
 -22803385.51744 -17768854.05744  20819026.6144   20819026.3114
 96  4 21  1 30  0.0000000  0  7G16G23G24G17G 5G20G 6
 -17145919.54844 -13360440.05744  21173428.8274   21173429.2604
   -963816.62844   -751023.60044  24841797.1404
  -2304648.12644  -1795817.73944  23994578.9474   23994579.4494
 -12571174.21744  -9795707.31544  22793466.3484   22793468.3044
 -16253669.21244 -12665188.18844  22253208.1124   22253209.3034
 -21305675.64444 -16601815.77244  20894197.2834   20894197.7274
 -22846824.36344 -17802702.50544  20810760.5654   20810760.1304
 96  4 21  1 30 30.0000000  0  7G16G23G24G17G 5G20G 6
 -17112209.55644 -13334172.53044  21179843.7264   21179844.2754
  -1070768.79844   -834362.80944  24821445.9074   24821452.1534
  -2226551.09044  -1734962.90244  24009441.2204   24009443.2134
 -12639961.15744  -9849307.49144  22780376.7364   22780378.9694
 -16158533.16444 -12591056.25944  22271311.8754   22271312.6094
 -21254209.42044 -16561712.24244  20903990.7444   20903991.5714
 -22890028.09644 -17836367.74744  20802539.1094   20802538.6864
 96  4 21  1 31  0.0000000  0  7G16G23G24G17G 5G20G 6
 -17077980.77544 -13307500.75444  21186357.0204   21186357.7684
  -1177720.63544   -917701.69144  24801092.9724   24801097.4424
  -2148522.49744  -1674161.42844  24024289.9514   24024290.8824
 -12708561.72144  -9902762.43844  22767322.5044   22767324.4514
 -16063149.15544 -12516731.11344  22289463.0074   22289463.5784
 -21202233.17244 -16521211.29144  20913881.8074   20913882.4104
 -22933024.74744 -17869871.62944  20794357.0634   20794356.8754
 96  4 21  1 31 30.0000000  0  7G16G23G24G17G 5G20G 6
 -17043219.77044 -13280414.26344  21192971.9234   21192972.5474
  -1284665.99044                  24780741.2204
  -2070552.15544  -1613405.34944  24039126.0384   24039127.5054
 -12776962.75744  -9956061.90944  22754306.5794   22754307.4504
 -15967523.56644 -12442217.71344  22307660.1874   22307660.8234
 -21149731.39344 -16480300.83944  20923872.5774   20923873.3614
 -22975805.77444 -17903207.49044  20786216.3694   20786216.1724
 96  4 21  1 32  0.0000000  0  7G16G23G24G17G 5G20G 6
 -17007909.93844 -13252900.10944  21199690.9324   21199691.4254
  -1391575.07144  -1084341.27744  24760397.2124   24760404.2004
  -1992600.59344  -1552663.89044  24053959.1794   24053960.4314
 -12845128.86244 -10009178.33044  22741334.5224   22741334.9914
 -15871652.24544 -12367512.84644  22325903.7084   22325904.8464
 -21096674.55044 -16438957.86444  20933968.9724   20933969.8574
 -23018342.20344 -17936352.75944  20778122.1084   20778121.5944
 96  4 21  1 32 30.0000000  0  7G16G23G24G17G 5G20G 6
 -16972054.64744 -13224960.92444  21206514.1064   21206514.9544
  -1498432.07344  -1167606.34844  24740063.0154   24740066.1854
  -1914657.96044  -1491929.38444  24068792.4264   24068791.5344
 -12913045.45744 -10062100.30544  22728410.4954   22728411.8524
 -15775524.90244 -12292608.48044  22344195.7164   22344197.3234
 -21043078.62444 -16397194.82844  20944168.0194   20944168.8934
 -23060632.32744 -17969306.09644  20770074.1734   20770073.8204
 96  4 21  1 33  0.0000000  0  7G16G23G24G17G 5G20G 6
 -16935641.69344 -13196587.19344  21213443.2774   21213443.5684
  -1605220.58744  -1250818.03144  24719741.7674   24719746.9304
  -1836711.29144  -1431191.72244  24083624.7254   24083626.0804
 -12980714.22144 -10114829.16944  22715533.5934   22715534.3524
 -15679137.81944 -12217501.71044  22362537.8704   22362539.1824
 -20988967.06144 -16355029.99844  20954465.1764   20954465.9994
 -23102677.84244 -18002068.83544  20762073.1504   20762072.7724
 96  4 21  1 33 30.0000000  0  7G16G23G24G20G 6G17G 5
 -16898682.75844 -13167788.02344  21220476.1844   21220476.9604
  -1711948.69844  -1333982.66244  24699431.8974   24699436.4534
  -1758757.44544  -1370448.51144  24098458.1274   24098460.0064
 -20934354.03744 -16312474.41844  20964857.6104   20964858.3874
 -23144490.18344 -18034649.87744  20754116.5644   20754116.1814
 -13048145.38944 -10167372.88544  22702701.6634   22702702.8874
 -15582490.85344 -12142192.45044  22380929.5354   22380930.5604
 96  4 21  1 34  0.0000000  0  7G16G23G24G17G 5G20G 6
 -16861196.35844 -13138577.84744  21227609.2544   21227610.2634
  -1818622.52144  -1417105.02644  24679132.3434
  -1680808.80344  -1309709.34444  24113290.9404   24113295.5544
 -13115376.53744 -10219760.74844  22689908.3054   22689909.9224
 -15485594.61944 -12066688.94544  22399368.0134   22399369.0854
 -20879266.57944 -16269549.14744  20975340.6504   20975341.4314
 -23186069.91044 -18067049.66044  20746204.4374   20746203.9654
 96  4 21  1 34 30.0000000  0  7G23G20G24G 6G17G16G 5
  -1925251.37544  -1500192.33344  24658839.8864   24658844.5814
 -20823717.63544 -16226264.28044  20985911.1064   20985911.6894
  -1602883.11944  -1248988.01344  24128121.1784   24128119.8324
 -23227411.83544 -18099264.14844  20738337.1724   20738336.7994
 -13182441.51444 -10272019.12044  22677146.3694   22677147.9944
 -16823168.39044 -13108945.66744  21234846.2464   21234846.7444
 -15388455.48744 -11990996.16444  22417853.4014   22417854.5684
 96  4 21  1 35  0.0000000  0  7G23G20G24G 6G17G16G 5
  -2031844.95044  -1583252.12444  24638557.0064   24638565.9424
 -20767711.86744 -16182623.44344  20996568.3254   20996569.0044
  -1525000.58144  -1188300.31644  24142940.7704   24142939.7134
 -23268517.92044 -18131294.85944  20730514.5434   20730514.5344
 -13249343.76944 -10324150.69844  22664415.6524   22664416.3874
 -16784595.82644 -13078889.12844  21242186.6784   21242187.0844
 -15291091.63244 -11915128.28944  22436380.3914   22436381.6084
 96  4 21  1 35 30.0000000  0  7G23G20G24G 6G17G16G 5
  -2138374.36644  -1666261.93444  24618285.7204   24618293.9114
 -20711196.83544 -16138585.77944  21007323.0824   21007323.6944
  -1447141.04544  -1127630.58844  24157757.5964   24157757.6704
 -23309349.73844 -18163111.85444  20722744.4794   20722744.2964
 -13316042.54044 -10376123.71844  22651723.1534   22651724.0594
 -16745447.87244 -13048384.23644  21249635.8824   21249636.5034
 -15193479.20044 -11839066.72244  22454955.9474   22454956.9844
 96  4 21  1 36  0.0000000  0  7G23G20G24G 6G17G16G 5
  -2244852.05744  -1749231.39344  24598021.2764   24598030.2124
 -20654174.73044 -16094152.99644  21018173.8324   21018174.5684
  -1369328.15344  -1066997.17044  24172566.1944   24172565.2344
 -23349920.55744 -18194725.48144  20715024.6254   20715024.1144
 -13382551.34144 -10427948.70744  22639066.2914   22639067.4754
 -16705745.16044 -13017447.05744  21257190.9634   21257191.6854
 -15095633.70644 -11762823.52644  22473575.1144   22473575.5524
 96  4 21  1 36 30.0000000  0  7G23G20G24G 6G17G16G 5
  -2351268.10144  -1832152.77544  24577771.5094   24577779.7004
 -20596630.76144 -16049313.56444  21029123.9324   21029125.0484
  -1291556.42544  -1006395.84744  24187364.7874   24187365.7104
 -23390246.42044 -18226148.23344  20707350.8174   20707350.4124
 -13448847.35744 -10479607.89644  22626450.7334   22626451.2664
 -16665494.87244 -12986083.20444  21264850.1234   21264850.8774
 -14997540.38644 -11686387.23344  22492241.5344   22492242.4414
 96  4 21  1 37  0.0000000  0  7G23G20G24G 6G17G16G 5
  -2457624.41944  -1915027.62644  24557533.0234   24557540.4104
 -20538564.48244 -16004067.14044  21040174.0804   21040174.7434
  -1213824.81944   -945825.77744  24202155.5434   24202157.3094
 -23430347.58644 -18257395.89344  20699719.5884   20699719.5784
 -13514921.78144 -10531094.41844  22613877.1084   22613878.5474
 -16624724.89444 -12954314.39744  21272609.0894   21272609.3974
 -14899200.50244 -11609758.81244  22510955.0834   22510956.7094
 96  4 21  1 37 30.0000000  0  7G23G20G24G 6G17G16G 5
  -2563910.53744  -1997847.81644  24537308.2364   24537314.2864
 -20479958.15844 -15958399.90044  21051326.4224   21051326.9104
  -1136117.69644   -885274.76444  24216944.0974   24216945.3144
 -23470205.62444 -18288454.10144  20692134.7624   20692134.7774
 -13580773.32544 -10582407.26544  22601345.5994   22601346.3614
 -16583435.65444 -12922140.96644  21280465.8614   21280466.4534
 -14800601.07444 -11532928.14644  22529718.3544   22529719.3844
 96  4 21  1 38  0.0000000  0  7G23G20G24G 6G17G16G 5
  -2670116.59444  -2080605.58144  24517097.4404   24517101.7104
 -20420833.03244 -15912328.39844  21062577.7744   21062578.3534
  -1058421.44144   -824732.24644  24231728.1014   24231728.9754
 -23509807.01944 -18319312.32544  20684599.0704   20684598.8904
 -13646393.33344 -10633539.70344  22588858.2934   22588859.6324
 -16541625.96444 -12889561.98944  21288422.1184   21288422.5964
 -14701729.67244 -11455885.54844  22548532.5794   22548533.6204
 96  4 21  1 38 30.0000000  0  7G23G20G24G 6G17G16G 5
  -2776241.57544  -2163300.14344  24496903.0774   24496909.9384
 -20361209.39544 -15865868.44744  21073923.8494   21073924.5984
   -980740.99644   -764202.06944  24246509.9884   24246512.8464
 -23549152.07644 -18349970.81044  20677111.7484   20677111.3704
 -13711779.13644 -10684489.63944  22576415.8094   22576417.1024
 -16499289.45544 -12856572.50844  21296478.3564   21296478.8514
 -14602610.14144 -11378649.61044  22567395.5464   22567397.0124
 96  4 21  1 39  0.0000000  0  7G23G20G24G 6G17G16G 5
  -2882278.66944  -2245926.25844  24476725.5374   24476729.1394
 -20301083.25344 -15819016.93244  21085364.9664   21085366.0624
   -903071.60644   -703680.48144  24261289.5934   24261291.3114
 -23588209.33344 -18380405.03644  20669679.5874   20669679.4734
 -13776919.30144 -10735248.18044  22564020.1144   22564021.2024
 -16456405.85644 -12823156.72044  21304638.8714   21304639.6924
 -14503256.05744 -11301230.89444  22586301.8084   22586302.7344
 96  4 21  1 39 30.0000000  0  7G23G20G24G 6G17G16G 5
  -2988233.05344  -2328487.88844  24456562.2934   24456568.2054
 -20240472.01244 -15771787.41844  21096898.4204   21096899.6334
   -825420.34244   -643173.01244  24276066.0774   24276066.0504
 -23626961.39144 -18410601.44144  20662305.3254   20662305.1704
 -13841823.44344 -10785822.81244  22551668.9864   22551670.4114
 -16412979.17844 -12789317.75844  21312902.4794   21312903.1344
 -14403675.33944 -11223635.60544  22605250.9214   22605252.6494
 96  4 21  1 40  0.0000000  0  7G23G20G24G 6G17G16G 5
  -3094108.39444  -2410987.98344  24436414.2644   24436418.5064
 -20179394.97344 -15724194.94544  21108521.3004   21108522.3134
   -747794.87144   -582685.65044  24290838.8874   24290841.1854
 -23665422.72044 -18440571.30444  20654986.4784   20654986.4514
 -13906507.39444 -10836225.85444  22539360.6134   22539361.6654
 -16369021.09444 -12755064.71044  21321267.6134   21321268.1954
 -14303879.86144 -11145872.94944  22624242.2914   22624243.0124
 96  4 21  1 40 30.0000000  0  7G23G20G24G 6G17G16G 5
  -3199897.20244  -2493420.60044  24416281.7244   24416288.1114
 -20117830.48144 -15676222.63744  21120236.9464   21120237.7674
   -670193.88444   -522217.33544  24305606.0964   24305606.5894
 -23703588.42144 -18470310.80544  20647723.7004   20647723.3954
 -13970967.64144 -10886454.57744  22527093.8314   22527095.1224
 -16324530.38044 -12720396.63144  21329733.5884   21329734.0414
 -14203873.20144 -11067945.73044  22643272.3064   22643273.8364
 96  4 21  1 41  0.0000000  0  7G23G20G24G 6G17G16G 5
  -3305618.85044  -2575800.90544  24396164.7934   24396170.2384
 -20055798.06144 -15627885.70944  21132041.2324   21132041.8414
   -592631.46644   -461779.08944  24320365.2474   24320363.9834
 -23741474.27044 -18499832.24544  20640514.1134   20640513.7694
 -14035231.95544 -10936530.63644  22514864.8784   22514866.3504
 -16279534.05644 -12685334.56644  21338296.5284   21338296.7804
 -14103661.42844 -10989858.70044  22662342.2014   22662343.5244
 96  4 21  1 41 30.0000000  0  7G23G20G24G 6G17G16G 5
  -3411257.64644  -2658116.67444  24376060.5064   24376065.0564
 -19993305.11244 -15579189.92244  21143933.5984   21143934.1934
   -515102.38644   -401366.79444  24335119.2014   24335117.2234
 -23779088.34444 -18529141.91744  20633356.1314   20633355.7104
 -14099295.81244 -10986450.50244  22502673.8664   22502675.0824
 -16234033.55144 -12649879.63744  21346954.8694   21346955.3424
 -14003235.55744 -10911604.83544  22681452.7574   22681453.2464
 96  4 21  1 42  0.0000000  0  7G23G20G24G 6G17G16G 5
  -3516809.13244  -2740364.40044  24355975.8104   24355981.4844
 -19930353.46944 -15530136.71844  21155912.8994   21155913.3114
   -437617.55344   -340989.03044  24349863.7144   24349864.1734
 -23816460.67844 -18558263.21244  20626244.9554   20626244.3424
 -14163148.24244 -11036205.62044  22490523.3124   22490524.3714
 -16188033.55044 -12614035.49044  21355708.2634   21355708.9044
 -13902611.51244 -10833196.53544  22700600.6854   22700601.7944
 96  4 21  1 42 30.0000000  0  7G23G20G24G 6G17G16G 5
  -3622261.58344  -2822534.96344  24335909.9604   24335912.4124
 -19866936.51344 -15480720.92744  21167980.6614   21167981.4904
   -360175.35644   -280644.47544  24364600.6684   24364601.1994
 -23853590.68144 -18587195.67344  20619179.0854   20619178.6954
 -14226768.12644 -11085779.53644  22478416.4684   22478417.3634
 -16141523.64844 -12577794.01244  21364558.8364   21364559.3564
 -13801790.84244 -10754635.03144  22719785.9244   22719786.8494
 96  4 21  1 43  0.0000000  0  7G23G20G24G 6G17G16G 5
  -3727589.42844  -2904608.46744  24315864.5504   24315869.1884
 -19803037.05244 -15430929.16044  21180139.9124   21180140.7144
   -282752.84144   -220315.22844  24379333.1124   24379333.5654
 -23890462.29244 -18615926.79044  20612162.6904   20612162.1044
 -14290133.45744 -11135155.10544  22466358.5514   22466360.0404
 -16094477.21844 -12541134.46644  21373511.4974   21373511.9414
 -13700753.79444 -10675904.94044  22739013.0264   22739014.8064
 96  4 21  1 43 30.0000000  0  7G23G20G24G 6G17G16G 5
  -3832803.44544  -2986593.25944  24295844.0654   24295850.7724
 -19738658.49944 -15380764.07844  21192391.2114   21192391.7594
   -205366.13944   -160013.88744  24394059.3544   24394061.7014
 -23927087.59544 -18644465.98744  20605193.1504   20605192.7284
 -14353249.77444 -11184336.62544  22454347.9744   22454349.6024
 -16046902.91544 -12504063.58844  21382564.3124   21382565.0444
 -13599517.01544 -10597019.20644  22758277.8054   22758278.4004
 96  4 21  1 44  0.0000000  0  7G23G20G24G 6G17G16G 5
  -3937925.17944  -3068506.18644  24275840.0884   24275846.8874
 -19673799.56244 -15330224.67144  21204733.2184   21204733.9384
   -128021.44244    -99745.29744  24408775.8954   24408778.6294
 -23963463.42644 -18672810.78744  20598270.9804   20598270.5544
 -14416137.39244 -11233339.94044  22442380.5674   22442381.9254
 -15998803.30744 -12466583.38144  21391717.3914   21391717.9624
 -13498081.11944 -10517978.30744  22777580.1464   22777581.4504
 96  4 21  1 44 30.0000000  0  7G23G20G24G 6G17G16G 5
  -4042979.76544  -3150366.73944  24255847.6914   24255852.9134
 -19608480.98344 -15279327.09744  21217162.9294   21217163.7934
    -50724.54844    -39513.99444  24423484.1464   24423487.8754
 -23999584.99244 -18700957.45744  20591397.1954   20591396.7774
 -14478833.25244 -11282193.83644  22430450.0844   22430451.2614
 -15950187.66244 -12428701.06844  21400968.8894   21400969.4164
 -13396462.71044 -10438795.17344  22796917.6764   22796918.6724
 96  4 21  1 45  0.0000000  0  7G23G20G24G 6G17G16G 5
  -4147987.34744  -3232190.65344  24235865.7984   24235870.6044
 -19542720.34144 -15228085.06644  21229676.8404   21229677.6464
     26524.78044     20680.22144  24438186.6734   24438188.6034
 -24035448.27944 -18728902.87244  20584572.8514   20584572.3774
 -14541359.34344 -11330915.44744  22418552.0564   22418553.9144
 -15901074.74744 -12390431.27144  21410314.8984   21410315.5114
 -13294663.77744 -10359471.38744  22816289.6524   22816290.7154
 96  4 21  1 45 30.0000000  0  7G23G20G24G 6G17G16G 5
  -4252927.85944  -3313962.38844  24215896.4044   24215901.5774
 -19476497.80544 -15176483.10844  21242278.6064   21242279.4114
    103747.13544     80853.45144  24452881.9644   24452880.8534
 -24071026.45644 -18756626.12744  20577802.2114   20577801.8954
 -14603693.19444 -11379487.24944  22406690.0714   22406691.6484
 -15851457.87544 -12351768.78444  21419756.6994   21419757.1254
 -13192657.53244 -10279986.06944  22835700.0954   22835701.6054
 96  4 21  1 46  0.0000000  0  7G23G20G24G 6G17G16G 5
  -4357790.62144  -3395673.53444  24195941.2674   24195947.4604
 -19409819.09344 -15124525.69244  21254967.2264   21254968.1134
    180948.45744    141010.34944  24467573.5504   24467575.0774
 -24106307.49844 -18784117.84544  20571088.9224   20571088.5944
 -14665829.33844 -11427905.00244  22394865.9264   22394866.9674
 -15801343.15944 -12312718.35844  21429293.1954   21429293.7334
 -13090451.75144 -10200345.26644  22855149.5884   22855151.1814
 96  4 21  1 46 30.0000000  0  7G23G20G24G 6G17G16G 5
  -4462554.06144  -3477307.24144  24176005.5354   24176010.5384
 -19342681.15744 -15072210.44044  21267742.8434   21267743.5454
    258141.25644    201160.67444  24482263.3654   24482260.1594
 -24141281.61444 -18811370.40244  20564433.4814   20564433.0864
 -14727746.07144 -11476151.78344  22383083.3944   22383084.4634
 -15750729.44944 -12273279.10244  21438924.5504   21438925.1704
 -12988043.11544 -10120546.39444  22874637.3544   22874639.2524
 96  4 21  1 47  0.0000000  0  7G23G20G24G 6G17G16G 5
  -4567196.56244  -3558846.71244  24156092.7484   24156094.6044
 -19275074.35144 -15019529.84344  21280608.2234   21280609.1434
    335310.43344    261292.57744  24496947.4924   24496945.2734
 -24175943.74344 -18838379.85844  20557837.3294   20557837.0804
 -14789425.39644 -11524213.57144  22371346.5464   22371347.4644
 -15699629.82644 -12233461.21944  21448648.2944   21448648.9204
 -12885429.00944 -10040587.42744  22894163.9164   22894165.6704
 96  4 21  1 47 30.0000000  0  7G23G20G24G 6G17G16G 5
  -4671715.31744  -3640289.80944  24136203.8894   24136206.0334
 -19207007.18744 -14966490.51644  21293560.8604   21293561.5924
    412426.17144    321382.77144  24511620.8144   24511622.1104
 -24210304.13144 -18865154.18744  20551298.6594   20551298.4444
 -14850869.08544 -11572091.74144  22359653.9254   22359655.2564
 -15648049.47644 -12193268.74244  21458463.6584   21458464.1004
 -12782640.97644  -9960492.91844  22913724.3864   22913725.0984
 96  4 21  1 48  0.0000000  0  7G23G20G24G 6G17G16G 5
  -4776098.67844  -3721627.37144  24116340.5374   24116346.0734
 -19138484.33744 -14913096.11044  21306600.5854   21306601.3364
    489498.64644    381439.22544  24526287.8224   24526289.4094
 -24244357.25344 -18891689.08144  20544818.5564   20544818.0574
 -14912074.38544 -11619784.15744  22348006.9974   22348008.4904
 -15595966.62744 -12152684.70044  21468374.7944   21468375.4084
 -12679684.31644  -9880267.00744  22933316.6314   22933317.7264
 96  4 21  1 48 30.0000000  0  7G23G20G24G 6G17G16G 5
  -4880347.97644  -3802860.42944  24096501.3714   24096505.2414
 -19069500.04444 -14859342.14144  21319727.7294   21319728.8364
    566529.39844    441463.14744  24540945.5224   24540947.8234
 -24278112.07544 -18917991.54244  20538395.5174   20538395.1074
 -14973047.13444 -11667295.37244  22336403.8334   22336404.8684
 -15543386.78044 -12111713.39844  21478380.3694   21478381.0824
 -12576557.38044  -9799908.41744  22952941.6834   22952943.0074
 96  4 21  1 49  0.0000000  0  7G23G20G24G 6G17G16G 5
  -4984449.77344  -3883978.62944  24076691.3664   24076693.1884
 -19000031.53844 -14805210.85844  21332947.7414   21332948.6234
    643532.84344    501465.82444  24555596.9954   24555601.8514
 -24311561.53244 -18944056.05544  20532030.1624   20532029.7434
 -15033776.42544 -11714616.87344  22324847.5694   22324849.0474
 -15490290.99544 -12070340.05944  21488484.3364   21488484.7094
 -12473256.99544  -9719414.68544  22972598.7354   22972599.6394
 96  4 21  1 49 30.0000000  0  7G23G20G24G 6G17G16G 5
  -5088424.19744  -3964997.50044  24056905.6174   24056909.4864
 -18930102.97244 -14750721.09144  21346254.5784   21346255.4594
    720520.52944    561456.18744  24570249.1314   24570254.0394
 -24344725.05244 -18969897.75844  20525719.4644   20525719.0894
 -15094278.91244 -11761761.62744  22313334.6634   22313336.0554
 -15436676.51144 -12028562.54044  21498686.4714   21498687.2894
 -12369788.39444  -9638789.87944  22992287.9464   22992289.6934
 96  4 21  1 50  0.0000000  0  7G23G20G24G 6G17G16G 5
  -5192286.33544  -4045928.91944  24037142.6304   24037147.7084
 -18859734.16344 -14695888.27544  21359645.1824   21359646.1654
    797491.47744    621433.48644  24584896.2394   24584900.8764
 -24377615.87144 -18995526.96744  20519460.4264   20519460.1084
 -15154573.03144 -11808744.02644  22301861.0894   22301862.5314
 -15382558.71744 -11986392.83944  21508985.1464   21508985.8394
 -12266149.79944  -9558032.60244  23012009.7094   23012011.0004
 96  4 21  1 50 30.0000000  0  7G23G20G24G 6G17G16G 5
  -5296024.31144  -4126763.55744  24017400.8414   24017404.0714
 -18788919.04044 -14640707.68244  21373120.8084   21373121.6414
    874441.21044    681394.29244  24599540.1334   24599542.5994
 -24410222.16444 -19020934.47044  20513255.5104   20513255.1924
 -15214658.88844 -11855564.15444  22290426.6774   22290428.1444
 -15327950.37144 -11943840.88144  21519376.9704   21519377.6064
 -12162327.58444  -9477132.23844  23031766.2664   23031768.2634
 96  4 21  1 51  0.0000000  0  7G23G20G24G 6G17G16G 5
  -5399647.56244  -4207508.81644  23997681.8614   23997686.2294
 -18717696.93444 -14585209.96644  21386673.6664   21386674.9734
    951337.55244    741313.54244  24614173.8904   24614174.8824
 -24442551.58844 -19046126.22844  20507103.6194   20507103.2104
 -15274545.92844 -11902229.36144  22279030.7684   22279031.4844
 -15272860.61744 -11900913.80344  21529860.0404   21529860.9194
 -12058339.57444  -9396102.68244  23051554.6704   23051556.8024
 96  4 21  1 51 30.0000000  0  7G23G20G24G 6G17G16G 5
  -5503146.50144  -4288157.22944  23977987.1054   23977990.0584
 -18646086.15544 -14529409.38644  21400300.8424   21400301.8604
   1028177.04944    801188.49044  24628796.5314   24628796.0144
 -24474587.42944 -19071089.22544  20501007.3904   20501007.0314
 -15334227.39544 -11948734.38244  22267673.9864   22267675.0874
 -15217294.13344 -11857615.25244  21540433.9464   21540434.3564
 -11954180.29744  -9314939.67844  23071375.0694   23071376.9544
 96  4 21  1 52  0.0000000  0  7G23G20G24G 6G17G16G 5
  -5606507.97744  -4368698.50144  23958317.4774   23958320.0354
 -18574070.24344 -14473293.11844  21414005.1584   21414006.4144
   1104950.06544    861011.63544  24643405.4354   24643403.2444
 -24506318.13644 -19095814.45144  20494969.3534   20494969.0314
 -15393700.75444 -11995077.24344  22256356.5454   22256357.0104
 -15161263.69244 -11813955.17844  21551096.4544   21551097.3664
 -11849859.71344  -9233650.98844  23091227.7204   23091228.9614
 96  4 21  1 52 30.0000000  0  7G23G20G24G 6G17G16G 5
  -5709706.12844  -4449112.51044  23938679.8954   23938682.4954
 -18501623.58344 -14416841.20844  21427791.1464   21427792.5744
   1181675.04744    920797.40444  24658004.6114   24658001.4264
 -24537719.97544 -19120283.41944  20488993.8534   20488993.4664
 -15452939.80244 -12041237.51244  22245083.2414   22245084.5214
 -15104761.00644 -11769927.12444  21561848.5734   21561849.0344
 -11745375.29144  -9152234.62744  23111109.8494   23111111.8914
 96  4 21  1 53  0.0000000  0  8G23G20G24G 6G26G17G16G 5
  -5812747.34244  -4529404.25044  23919071.3914   23919074.5754
 -18428750.92644 -14360057.34244  21441658.2754   21441659.2434
   1258354.75944                  24672596.5714
 -24568789.76944 -19144493.64844  20483081.4404   20483080.9604
        -0.42154                  24019592.0164
 -15511934.50544 -12087207.38544  22233857.2434   22233858.4344
 -15047778.16444 -11725524.92044  21572691.9364   21572692.5434
 -11640739.39144  -9070700.23744  23131021.6354   23131023.6754
 96  4 21  1 53 30.0000000  0  8G23G20G24G 6G26G17G16G 5
  -5915666.51044  -4609600.90644  23899486.9044   23899490.0564
 -18355474.63244 -14302958.95544  21455602.9464   21455603.5054
   1334967.80944   1040246.37644  24687170.2474
 -24599557.92044 -19168468.83044  20477226.3654   20477225.9244
    -78855.91644                  24004587.3274
 -15570728.26344 -12133020.68344  22222668.8744   22222670.2344
 -14990366.85944 -11680788.84744  21583616.9774   21583617.4994
 -11535982.96844  -8989071.93244  23150955.9174   23150957.2234
 96  4 21  1 54  0.0000000  0  8G23G20G24G 6G26G17G16G 5
  -6018435.98844  -4689680.89744  23879929.9914   23879933.6494
 -18281764.41544 -14245522.44844  21469629.5334   21469629.9184
   1411542.51344   1099914.79544  24701745.9884   24701745.0844
 -24629999.03044 -19192189.17544  20471433.3534   20471433.0684
   -157619.04844                  23989599.2254
 -15629298.59344 -12178659.87144  22211523.6654   22211524.9634
 -14932511.67944 -11635706.89944  21594626.7704   21594627.1604
 -11431073.96244  -8907324.72144  23170920.1234   23170921.0114
 96  4 21  1 54 30.0000000  0  8G23G20G24G 6G26G17G16G 5
  -6121047.30444  -4769637.66244  23860404.2354   23860407.3454
 -18207633.19744 -14187757.89144  21483735.9504   21483736.6894
   1488086.11644   1159559.16944  24716313.4894   24716313.5794
 -24660104.95744 -19215648.33844  20465704.4814   20465704.1484
   -236268.90244                  23974632.2194
 -15687630.16044 -12224113.01344  22200423.7264   22200424.2604
 -14874196.47144 -11590266.49544  21605723.1974   21605723.9764
 -11325992.98344  -8825443.51444  23190915.6294   23190917.7414
 96  4 21  1 55  0.0000000  0  8G23G20G24G 6G26G17G16G 5
  -6223523.51244  -4849489.16044  23840902.9594   23840906.6394
 -18133106.05744 -14129684.82044  21497917.8504   21497919.5324
   1564582.56544   1219166.80744  24730870.7744   24730871.0914
 -24689902.62644 -19238867.30044  20460034.3614   20460033.9874
   -314813.24744                  23959686.7984
 -15745740.97544 -12269394.14744  22189365.2464   22189366.3444
 -14815432.66544 -11544476.52944  21616905.4774   21616906.2544
 -11220751.18344  -8743436.98344  23210942.6334   23210945.2734
 96  4 21  1 55 30.0000000  0  8G23G20G24G 6G26G17G16G 5
  -6325881.21944  -4929248.30044  23821424.9464   23821428.1594
 -18058196.86444 -14071314.05544  21512172.4094   21512173.9184
   1641023.62644   1278731.29944  24745417.9354   24745419.0074
 -24719413.27544 -19261862.61144  20454418.4484   20454418.1644
   -393272.94144                  23944756.0354
 -15803647.99944 -12314516.48444  22178346.1414   22178346.6384
 -14756248.83344 -11498359.27244  21628168.0674   21628168.8474
 -11115367.56844  -8661319.96744  23230996.1274   23230997.2734
 96  4 21  1 56  0.0000000  0  8G23G20G24G 6G26G17G16G 5
  -6428089.27144  -5008890.83244  23801975.8974   23801979.0104
 -17982885.53244 -14012629.93944  21526503.6624   21526505.2094
   1717429.63644   1338268.46344  24759956.5034   24759956.7614
 -24748621.36144 -19284622.15844  20448860.4624   20448860.1624
   -471654.10244                  23929840.6884
 -15861329.95844 -12359463.42944  22167369.7804   22167370.4624
 -14696600.38044 -11451879.97544  21639518.4994   21639519.5044
 -11009840.40344  -8579091.08344  23251077.8624   23251079.6034
 96  4 21  1 56 30.0000000  0  8G23G20G24G 6G26G17G16G 5
  -6530148.09844  -5088417.07044  23782554.4654   23782558.3014
 -17907180.22144 -13953638.82544  21540910.4344   21540911.4084
   1793798.09944   1397776.86144  24774489.7094
 -24777532.77244 -19307150.53044  20443358.9614   20443358.4194
   -549963.54944                  23914937.7214
 -15918794.33544 -12404240.83744  22156434.1164   22156435.1694
 -14636476.45544 -11405030.17244  21650959.7554   21650960.6494
 -10904197.70144  -8496772.15744  23271180.9044   23271182.7134
 96  4 21  1 57  0.0000000  0  8G23G20G24G 6G26G17G16G 5
  -6632063.01844  -5167831.21444  23763160.9484   23763163.4504
 -17831082.79044 -13894342.15344  21555391.1484   21555392.2354
   1870127.99344   1457258.44844  24789015.1084   24789015.8834
 -24806153.15944 -19329452.13344  20437912.3144   20437911.9694
   -628215.72144                  23900047.8104
 -15976061.07044 -12448864.22844  22145536.3164   22145538.3804
 -14575891.86544 -11357821.41244  21662488.7234   21662489.6114
 -10798470.93944  -8414387.71544  23291299.7924   23291301.7034
 96  4 21  1 57 30.0000000  0  7G23G20G 6G26G17G16G 5
  -6733813.68144  -5247117.37244  23743797.2684   23743799.8034
 -17754577.27644 -13834727.50244  21569949.7164   21569950.4834
 -24834456.40344 -19351506.61244  20432526.2904   20432525.9524
   -706384.62344                  23885172.1634
 -16033132.15944 -12493335.17844  22134676.1704   22134677.6914
 -14514835.04944 -11310244.68544  21674107.5754   21674108.4484
 -10692657.71744  -8331935.91844  23311435.5034   23311437.4674
 96  4 21  1 58  0.0000000  0  7G23G20G 6G26G17G16G 5
  -6835405.15544  -5326279.44444  23724465.2054   23724468.5144
 -17677681.37444 -13774808.65044  21584582.9224   21584583.6804
 -24862445.02644 -19373315.93344  20427200.6464   20427200.2294
   -784459.40844                  23870314.5094
 -16090021.41344 -12537664.43244  22123850.4074   22123851.9414
 -14453309.28944 -11262302.54544  21685815.7874   21685816.2154
 -10586772.14944  -8249427.74444  23331585.3124   23331586.9304
 96  4 21  1 58 30.0000000  0  7G23G20G 6G26G17G16G 5
  -6936868.40544  -5405341.64744  23705158.1464   23705159.8734
 -17600412.49944 -13714599.16644  21599285.8744   21599286.9844
 -24890120.18444 -19394880.99244  20421933.8664   20421933.5644
   -862425.27944                  23855478.7674
 -16146727.79344 -12581851.19444  22113060.1174   22113061.3344
 -14391340.86944 -11214015.47344  21697607.9664   21697608.2384
 -10480812.93244  -8166862.19244  23351748.8004   23351750.8584
 96  4 21  1 59  0.0000000  0  7G23G20G 6G26G17G16G 5
  -7038216.49044  -5484314.09244  23685872.0944   23685873.0094
 -17522765.34444 -13654094.91844  21614061.6944   21614063.1534
 -24917489.02344 -19416207.36044  20416725.8534   20416725.4744
   -940273.73144                  23840664.9194
 -16203246.73544 -12625891.90344  22102304.6774   22102305.6974
 -14328940.53244 -11165391.84444  21709481.7414   21709482.1654
 -10374764.92944  -8084227.47444  23371929.3094   23371931.4724
 96  4 21  1 59 30.0000000  0  7G23G20G 6G26G17G16G 5
  -7139439.65544  -5563189.21844  23666609.1614   23666613.8634
 -17444738.55644 -13593294.86244  21628910.3074   21628911.7074
 -24944541.45644 -19437287.18444  20411578.1514   20411577.8014
  -1017977.99844                  23825878.1564
 -16259560.19444 -12669772.49244  22091588.1954   22091588.8624
 -14266096.38144 -11116422.38844  21721440.6434   21721441.5244
 -10268612.36844  -8001511.24844  23392128.6844   23392130.7224
 96  4 21  2  0  0.0000000  0  7G23G20G 6G26G17G16G 5
  -7240506.13544  -5641942.21944  23647377.9214   23647381.1244
 -17366319.61244 -13532189.22544  21643832.6764   21643833.7764
 -24971254.60044 -19458102.62544  20406494.6314   20406494.3354
  -1095530.01644                  23811119.4664
 -16315621.72544 -12713456.76944  22080920.7094   22080921.3424
 -14202782.85644 -11067087.18244  21733489.3034   21733489.8134
 -10162332.86444  -7918696.11544  23412353.0944   23412354.8114
 96  4 21  2  0 30.0000000  0  7G23G20G 6G26G17G16G 5
  -7341418.29244  -5720575.01744  23628174.6134   23628176.0054
 -17287513.81044 -13470782.13944  21658828.9544   21658830.1054
 -24997648.32944 -19478669.16944  20401472.2874   20401472.0584
  -1172950.45244                  23796388.0604
 -16371455.11644 -12756963.27544  22070295.7534   22070296.7944
 -14139024.49944 -11017405.35344  21745622.3624   21745623.0104
 -10055931.10644  -7835785.70144  23432601.3294   23432603.7954
 96  4 21  2  1  0.0000000  0  7G23G20G 6G26G17G16G 5
  -7442158.12844  -5799073.51844  23609003.8444   23609006.6884
 -17208323.15444 -13409075.16844  21673898.4074   21673899.6564
 -25023722.24644 -19498986.50944  20396510.7974   20396510.3744
  -1250240.62044                  23781679.1954
 -16427071.34344 -12800300.57244  22059711.7354   22059713.3194
 -14074836.67544 -10967388.87244  21757836.1174   21757836.9034
  -9949418.53244  -7752788.95444  23452869.5794   23452872.3784
 96  4 21  2  1 30.0000000  0  7G23G20G 6G26G17G16G 5
  -7542716.32544  -5877430.44644  23589867.5844   23589870.1774
 -17128772.83844 -13347087.93444  21689037.0214   21689037.7204
 -25049473.58944 -19519052.49144  20391610.0144   20391609.9184
  -1327415.61044                  23766992.6404
 -16482483.87944 -12843479.14244  22049167.4654   22049168.1064
 -14010232.41644 -10917047.90244  21770130.0534   21770130.4474
  -9842814.97844  -7669721.30744  23473156.4624   23473157.9874
 96  4 21  2  2  0.0000000  0  7G23G20G 6G26G17G16G 5
  -7643076.15844  -5955632.84244  23570770.0704   23570772.1974
 -17048842.93044 -13284804.91744  21704246.7594   21704247.4254
 -25074877.24344 -19538847.55144  20386776.0594   20386775.6854
  -1404466.58544                  23752331.5744
 -16537686.94644 -12886494.48544  22038662.7074   22038663.9104
 -13945202.98744 -10866375.62944  21782505.1054   21782505.7794
  -9736095.68444  -7586563.47044  23493463.4144   23493465.1534
 96  4 21  2  2 30.0000000  0  7G23G20G 6G26G17G16G 5
  -7743241.80744  -6033683.91144  23551708.9454   23551712.3174
 -16968531.20544 -13222224.37444  21719529.5484   21719530.7184
 -25099925.05844 -19558365.33144  20382009.3414   20382009.2474
  -1481370.12644                  23737698.8184
 -16592697.57644 -12929359.88844  22028194.2074   22028195.6374
 -13879761.19444 -10815382.03844  21794957.8054   21794958.5124
  -9629260.09844  -7503315.03544  23513794.4464   23513797.3024
 96  4 21  2  3  0.0000000  0  8G23G20G22G 6G26G17G16G 5
  -7843218.26044  -6111587.55944  23532685.1974   23532685.9984
 -16887846.04344 -13159352.84544  21734882.8524   21734884.2624
         0.25054                  24961439.9794
 -25124597.06244 -19577590.27044  20377314.7164   20377314.3914
  -1558116.17844                  23723091.4634
 -16647494.06644 -12972058.43244  22017766.9554   22017768.2004
 -13813893.25644 -10764056.37644  21807491.9814   21807493.0804
  -9522321.82244  -7419986.58944  23534144.1794   23534145.2884
 96  4 21  2  3 30.0000000  0  7G23G20G 6G26G17G16G 5
  -7943007.55444  -6189345.35244  23513695.7424   23513697.0324
 -16806798.41244 -13096198.87944  21750306.0864   21750307.0604
 -25148891.61744 -19596521.09644  20372691.5244   20372691.1884
  -1634713.61644                  23708516.8294
 -16702079.09944 -13014592.19544  22007379.8274   22007380.7424
 -13747592.91144 -10712393.77444  21820108.9024   21820109.5434
  -9415288.44344  -7336584.01044  23554511.8094   23554514.0474
 96  4 21  2  4  0.0000000  0  7G23G20G 6G26G17G16G 5
  -8042629.50644  -6266972.77344  23494738.2114   23494739.0164
 -16725387.14444 -13032761.55544  21765798.0774   21765799.2464
 -25172819.59844 -19615166.27744  20368137.9924   20368137.9174
  -1711152.68944                  23693971.1814
 -16756455.24244 -13056963.18944  21997031.9644   21997033.0904
 -13680879.97044 -10660409.66644  21832803.8774   21832804.3414
  -9308170.44644  -7253115.50744  23574895.1884   23574896.8024
 96  4 21  2  4 30.0000000  0  7G23G20G 6G26G17G16G 5
  -8142054.13544  -6344446.43044  23475817.7194   23475819.8914
 -16643582.61444 -12969017.79044  21781365.3134   21781366.9124
 -25196353.21844 -19633504.16244  20363660.0484   20363659.6524
  -1787395.52144                  23679460.0684
 -16810579.22644 -13099137.70144  21986732.8544   21986733.5704
 -13613735.28244 -10608089.13644  21845581.0074   21845582.1254
  -9200959.67244  -7169574.69944  23595297.4924   23595299.0694
 96  4 21  2  5  0.0000000  0  7G23G20G 6G26G17G16G 5
  -8241254.66544  -6421745.43344  23456940.8044   23456941.6124
 -16561361.36844 -12904949.31444  21797011.4114   21797013.0484
 -25219483.61844 -19651527.85344  20359258.2334   20359257.8434
  -1863423.39644                  23664994.9404
 -16864419.33244 -13141091.00844  21976487.4054   21976488.1384
 -13546133.46644 -10555412.40644  21858445.1224   21858445.9734
  -9093630.61244  -7085941.73944  23615721.5924   23615725.2014
 96  4 21  2  5 30.0000000  0  7G23G20G 6G26G17G16G 5
  -8340243.50744  -6498879.48144  23438103.8504   23438105.1524
 -16478737.27144 -12840566.92944  21812734.5504   21812735.5284
 -25242253.39144 -19669270.53844  20354925.2554   20354925.1104
  -1939249.87044  -1511101.55644  23650565.0154
 -16918011.60044 -13182851.19944  21966289.1804   21966290.0784
 -13478105.27844 -10502403.43444  21871390.6384   21871391.6454
  -8986194.97144  -7002225.71244  23636165.7794   23636168.5134
 96  4 21  2  6  0.0000000  0  7G23G20G 6G26G17G16G 5
  -8439025.71944  -6575852.54044  23419305.5874   23419306.7524
 -16395701.65344 -12775863.87944  21828535.4164   21828536.8184
 -25264665.19144 -19686734.27744  20350660.4604   20350660.2814
  -2014865.03644  -1570022.41144  23636176.1564
 -16971356.41944 -13224418.57444  21956138.3634   21956138.7814
 -13409656.31144 -10449066.58344  21884415.9624   21884416.6824
  -8878642.96644  -6918418.99944  23656632.2104   23656633.8744
 96  4 21  2  6 30.0000000  0  7G23G20G 6G26G17G16G 5
  -8537565.01344  -6652636.30244  23400554.0654   23400556.9254
 -16312249.22844 -12710836.04044  21844416.2064   21844417.6244
 -25286702.54144 -19703906.23744  20346467.0444   20346466.6474
  -2090264.02644  -1628774.77644  23621828.3664
 -17024448.41544 -13265788.94944  21946035.1104   21946035.7724
 -13340755.19544 -10395377.40544  21897527.6924   21897528.6324
  -8770952.92444  -6834504.74444  23677124.6614   23677127.0214
 96  4 21  2  7  0.0000000  0  7G23G20G 6G26G17G16G 5
  -8635902.20644  -6729262.57044  23381840.3974   23381843.3424
 -16228438.89644 -12645529.31644  21860364.9964   21860365.7474
 -25308421.55844 -19720830.14744  20342333.8874   20342333.6244
  -2165488.48644  -1687391.15744  23607512.6884   23607516.6364
 -17077339.21844 -13307002.55644  21935970.0374   21935970.5654
 -13271437.70444 -10341363.79344  21910718.2684   21910718.8504
  -8663163.97944  -6750513.43244  23697636.4054   23697640.3284
 96  4 21  2  7 30.0000000  0  8G23G20G22G 6G26G17G16G 5
  -8734039.80744  -6805733.32144  23363166.4104   23363168.0474
 -16144286.95644 -12579956.40144  21876378.4634   21876379.2894
        -0.52854                  24820725.5214
 -25329806.92344 -19737494.06744  20338264.4314   20338264.1154
  -2240540.67044  -1745873.35144  23593230.6194
 -17130028.68844 -13348059.26444  21925943.4794   21925943.7654
 -13201713.01044 -10287032.87744  21923986.0854   21923986.5644
  -8555287.29544  -6666453.73644  23718164.4444   23718166.1514
 96  4 21  2  8  0.0000000  0  8G23G20G22G 6G26G17G16G 5
  -8831966.88444  -6882040.05644  23344530.9474   23344532.1964
 -16059807.66144 -12514128.40144  21892454.4734   21892455.7054
    -80522.74044                  24805402.3144
 -25350830.37844 -19753875.98544  20334263.9454   20334263.5604
  -2315426.34844                  23578980.8904
 -17182501.09444 -13388946.82544  21915958.3654   21915958.8834
 -13131576.02844 -10232380.68744  21937333.1484   21937333.6554
  -8447330.20444  -6582331.36744  23738708.7714   23738709.5574
 96  4 21  2  8 30.0000000  0  8G23G20G22G 6G26G17G16G 5
  -8929650.06544  -6958156.71244  23325941.8194   23325943.7084
 -15975004.47244 -12448048.01544  21908591.4244   21908592.6224
   -160707.00644   -125226.35944  24790144.0654   24790140.8924
 -25371483.66744 -19769969.45644  20330333.5344   20330333.2434
  -2390132.86144  -1862438.51744  23564764.4504   23564765.8134
 -17234743.98044 -13429655.54144  21906016.8004   21906018.1224
 -13061010.09944 -10177394.26044  21950761.3764   21950762.1384
  -8339299.54944  -6498151.70644  23759265.7344   23759268.6604
 96  4 21  2  9  0.0000000  0  8G23G20G22G 6G26G17G16G 5
  -9027147.48444  -7034128.64844  23307389.2564   23307391.9574
 -15889926.80944 -12381753.75444  21924781.3554   21924782.5504
   -240593.73244                  24774940.3194
 -25391803.83644 -19785803.35444  20326466.9754   20326466.5634
  -2464700.58844  -1920543.20544  23550574.9164   23550578.6094
 -17286801.88044 -13470220.10944  21896110.7564   21896111.3904
 -12990075.56644 -10122120.61844  21964259.7474   21964260.3584
  -8231254.45944  -6413960.77144  23779826.4594   23779829.2974
 96  4 21  2  9 30.0000000  0  8G23G20G22G 6G26G17G16G 5
  -9124459.67044  -7109956.23344  23288870.8704   23288872.9054
 -15804578.01844 -12315248.23544  21941022.4334   21941023.9164
   -320487.84344                  24759794.8704
 -25411780.02844 -19801369.22044  20322665.4394   20322665.2084
  -2539141.38144  -1978548.92744  23536408.2264   23536410.6244
 -17338680.87144 -13510645.27744  21886238.6814   21886238.7454
 -12918782.67344 -10066567.73244  21977826.5384   21977826.7754
  -8123198.85344  -6329761.66344  23800388.5074   23800390.7674
 96  4 21  2 10  0.0000000  0  8G23G20G22G 6G26G17G16G 5
  -9221560.64544  -7185619.24844  23270392.4694   23270396.3804
 -15718921.93844 -12248503.27444  21957322.2134   21957323.9994
   -400475.23844                  24744716.1234
 -25431402.24844 -19816659.26044  20318931.4024   20318931.0804
  -2613425.48844  -2036432.58744  23522273.9104   23522271.3114
 -17390366.51044 -13550919.78444  21876402.8894   21876403.4344
 -12847103.22244 -10010713.62344  21991466.3304   21991467.0684
  -8015115.86844  -6245541.19644  23820956.4664   23820958.2814
 96  4 21  2 10 30.0000000  0  8G23G20G22G 6G26G17G16G 5
  -9318469.28844  -7261132.38544  23251952.2264   23251955.5114
 -15632956.48544 -12181517.23644  21973681.0464   21973682.5124
   -479694.65244                  24729703.8874
 -25450676.37844 -19831678.06844  20315263.9454   20315263.3574
  -2687535.09844  -2094180.28444  23508171.4474   23508172.0134
 -17441871.82044 -13591053.79644  21866601.6854   21866602.6074
 -12775045.01544  -9954564.39144  22005178.5784   22005179.4954
  -7907001.45844  -6161296.24144  23841529.6074   23841532.5644
 96  4 21  2 11  0.0000000  0  7G23G20G 6G26G17G16G 5
  -9415187.39544  -7336497.06244  23233546.9104   23233549.6104
 -15546656.54044 -12114270.55644  21990104.0574   21990104.9074
 -25469572.41844 -19846402.25944  20311667.7914   20311667.6184
  -2761443.30044  -2151771.02444  23494105.8424   23494106.1044
 -17493170.05444 -13631026.43244  21856839.8674   21856840.9824
 -12702593.30344  -9898108.53344  22018965.7684   22018966.0914
  -7798826.39944  -6077004.04544  23862114.4404   23862117.3884
 96  4 21  2 11 30.0000000  0  7G23G20G 6G26G17G16G 5
  -9511716.12644  -7411714.18644  23215178.3114   23215180.0224
 -15460020.46844 -12046761.95344  22006590.0814   22006590.7254
 -25488102.41144 -19860841.21444  20308141.7404   20308141.4184
  -2835145.93644  -2209201.54244  23480081.1034   23480083.8564
 -17544262.19844 -13670838.45944  21847117.3874   21847118.5034
 -12629755.15044  -9841351.55044  22032826.5584   22032827.5254
  -7690601.18144  -5992672.73644  23882709.3354   23882711.6284
 96  4 21  2 12  0.0000000  0  7G23G20G 6G26G17G16G 5
  -9608037.50744  -7486769.72744  23196849.0574   23196851.3874
 -15373028.12744 -11978975.73444  22023144.3964   22023145.7954
 -25506242.69044 -19874976.50044  20304689.9084   20304689.4744
  -2908615.28744  -2266450.33744  23466100.2344   23466099.2454
 -17595129.39544 -13710475.21844  21837437.9414   21837438.3734
 -12556507.86344  -9784275.74544  22046765.3594   22046765.6044
  -7582302.52444  -5908284.23144  23903318.4564   23903320.2374
 96  4 21  2 12 30.0000000  0  8G23G20G22G 6G26G17G16G 5
  -9704149.93944  -7561662.46144  23178559.0574   23178560.8464
 -15285697.75844 -11910926.11744  22039762.5224   22039763.7504
         0.01954                  24670270.2384
 -25523989.59444 -19888805.25944  20301312.7294   20301312.3924
  -2981852.63644  -2323518.34544  23452163.4904   23452165.1694
 -17645778.03444 -13749941.67644  21827799.8834   21827800.3854
 -12482863.39544  -9726890.45044  22060779.1614   22060780.0484
  -7473938.61044  -5823844.86244  23923939.2074   23923940.9724
 96  4 21  2 13  0.0000000  0  8G23G20G22G 6G26G17G16G 5
  -9800048.45644  -7636388.51344  23160310.8874   23160313.0524
 -15198046.28944 -11842626.29044  22056442.3004   22056443.0934
    -77299.28044                  24655560.3354
 -25541367.97944 -19902346.85544  20298005.8964   20298005.5644
  -3054879.07144  -2380422.00644  23438266.5864   23438267.7184
 -17696206.83644 -13789236.82644  21818203.6994   21818204.1284
 -12408839.86044  -9669209.78544  22074865.1934   22074865.9754
  -7365527.32444  -5739368.56844  23944567.9744   23944569.0604
 96  4 21  2 13 30.0000000  0  8G23G20G22G 6G26G17G16G 5
  -9895727.24544  -7710943.34844  23142103.1484   23142105.5964
 -15110102.12044 -11774098.38844  22073177.4124   22073178.8444
   -154291.68244                  24640912.7094
 -25558391.61144 -19915612.02744  20294766.1844   20294766.0434
  -3127708.83944  -2437172.42244  23424407.8204   23424409.8174
 -17746430.43944 -13828372.08144  21808646.2314   21808647.2804
 -12334460.22144  -9611251.64044  22089018.9614   22089019.9904
  -7257091.50044  -5654873.15844  23965204.1954   23965206.9504
 96  4 21  2 14  0.0000000  0  7G23G20G 6G26G17G16G 5
  -9991168.75144  -7785313.27644  23123941.5504   23123943.7214
 -15021873.69544 -11705348.99344  22089966.4574   22089967.9914
 -25575047.26744 -19928590.46144  20291596.7484   20291596.4474
  -3200333.53844  -2493763.02544  23410587.3674   23410588.8984
 -17796439.29744 -13867340.00244  21799129.9164   21799130.5914
 -12259715.79944  -9553009.25044  22103242.4924   22103243.6304
  -7148624.90444  -5570353.78244  23985844.5874   23985848.2944
 96  4 21  2 14 30.0000000  0  7G23G20G 6G26G17G16G 5
 -10086362.73344  -7859490.34144  23105827.0864   23105828.7954
 -14933368.92944 -11636384.27244  22106808.3054   22106809.7324
 -25591343.53244 -19941288.84944  20288495.7174   20288495.4144
  -3272746.30744  -2550188.49344  23396808.7934   23396809.1194
 -17846227.00844 -13906135.58944  21789655.3604   21789655.9204
 -12184616.35144  -9494490.21244  22117533.8464   22117534.5184
  -7040148.34244  -5485826.66044  24006486.9794   24006488.1464
 96  4 21  2 15  0.0000000  0  7G23G20G 6G26G17G16G 5
 -10181306.91244  -7933472.75144  23087759.2094   23087760.5774
 -14844591.58044 -11567207.14344  22123702.3244   22123703.4904
 -25607267.47644 -19953697.11944  20285465.4034   20285465.1204
  -3344936.53544  -2606440.57744  23383071.2814   23383070.3184
 -17895784.15944 -13944751.52244  21780224.8084   21780225.4754
 -12109160.96344  -9435693.80844  22131892.4284   22131892.8154
  -6931651.15444                  24027133.4404
 96  4 21  2 15 30.0000000  0  7G23G20G 6G26G17G16G 5
 -10276011.86544  -8007268.74844  23069737.6874   23069739.3684
 -14755531.36644 -11497809.59744  22140650.1984   22140651.4374
 -25622800.08544 -19965800.45144  20282509.6884   20282509.3314
  -3416897.70144  -2662514.15444  23369376.8774   23369377.0294
 -17945134.55244 -13983206.35544  21770833.7774   21770835.0884
 -12033349.52044  -9376619.96644  22146318.9404   22146319.0504
  -6823143.50344  -5316732.01944  24047781.7864
 96  4 21  2 16  0.0000000  0  7G23G20G 6G26G17G16G 5
 -10370503.07944  -8080898.19244  23051756.0784   23051758.9804
 -14666181.52944 -11428186.36844  22157652.7864   22157653.6294
 -25637959.61644 -19977613.06844  20279624.9094   20279624.7494
  -3488631.32144  -2718410.41244  23355726.7644   23355728.7734
 -17994295.98844 -14021513.94844  21761478.9914   21761479.8334
 -11957181.48944  -9317268.26644  22160812.6944   22160813.1574
  -6714629.49444                  24068430.1674
 96  4 21  2 16 30.0000000  0  7G23G20G 6G26G17G16G 5
 -10464788.71844  -8154367.44844  23033814.2254   23033816.4674
 -14576539.61644 -11358335.54844  22174710.7164   22174712.2064
 -25652741.32144 -19989131.28344  20276812.2594   20276811.8584
  -3560125.13844  -2774119.82444  23342121.6734   23342123.4254
 -18043263.19744 -14059670.19444  21752160.7504   21752161.6384
 -11880650.76244  -9257633.95144  22175376.2374   22175376.7334
  -6606102.00244                  24089082.6424
 96  4 21  2 17  0.0000000  0  7G23G20G 6G26G17G16G 5
 -10558894.37844  -8227696.45244  23015905.9884   23015907.3704
 -14486624.07844 -11288271.51044  22191821.0384   22191822.6684
 -25667149.41044 -20000358.36344  20274070.4004   20274070.1124
  -3631394.51744  -2829654.33644  23328558.8784   23328557.5354
 -18092052.19544 -14097687.58444  21742876.6754   21742877.1224
 -11803767.99644  -9197725.30344  22190006.8324   22190007.3764
  -6497571.09844                  24109734.6844
 96  4 21  2 17 30.0000000  0  8G23G20G22G 6G26G17G16G 5
 -10652787.40444  -8300859.78044  22998038.8334   22998040.1834
 -14396399.20644 -11217966.44344  22208990.3714   22208992.2924
        -0.29254                  24526074.3524
 -25681168.53444 -20011282.35644  20271402.5404   20271402.3764
  -3702423.62444  -2885001.61744  23315042.6074   23315044.6124
 -18140633.11344 -14135542.82044  21733631.7854   21733632.4104
 -11726500.94044  -9137517.22144  22204710.4134   22204711.0714
  -6389022.61744                  24130389.9124
 96  4 21  2 18  0.0000000  0  8G23G20G22G 6G26G17G16G 5
 -10746455.69944  -8373848.00044  22980215.1504   22980216.3844
 -14305895.20944 -11147443.87744  22226212.5884   22226214.2604
    -73874.05744                  24512019.8034
 -25694806.11744 -20021909.04444  20268807.5364   20268807.1874
  -3773211.80844  -2940161.17844  23301572.5984   23301574.4104
 -18188990.53844 -14173223.90444  21724429.6494   21724430.5704
 -11648854.30144  -9077013.35144  22219485.8624   22219485.9344
  -6280456.90544                  24151052.5284
 96  4 21  2 18 30.0000000  0  8G23G20G22G 6G26G17G16G 5
 -10839895.47244  -8446658.13144  22962434.2984   22962435.1234
 -14215141.55544 -11076726.76944  22243482.7904   22243484.1244
   -147399.91444                  24498028.2464
 -25708062.70244 -20032238.85144  20266284.8484   20266284.4154
  -3843778.20544  -2995147.94444  23288143.3304   23288144.7114
 -18237148.44944 -14210749.53544  21715265.3944   21715266.5574
 -11570869.32844  -9016245.84844  22234325.7624   22234326.5724
  -6171901.09244                  24171711.5434
 96  4 21  2 19  0.0000000  0  7G23G20G22G 6G26G17G16
 -10933097.69144  -8519283.17944  22944699.0154   22944700.0064
 -14124129.08044 -11005807.97944  22260802.1634   22260803.0594
   -221073.34444                  24484099.2994
 -25720930.73344 -20042265.88644  20263836.1024   20263835.9114
  -3914127.05244  -3049965.17144  23274757.0784   23274759.1314
 -18285122.46144 -14248131.87044  21706136.0654   21706137.0104
 -11492553.30944  -8955220.39844  22249228.6554   22249229.9074
 96  4 21  2 19 30.0000000  0  7G23G20G22G 6G26G17G16
 -11026050.62144  -8591713.96444  22927010.2434   22927010.9404
 -14032849.13244 -10934680.76344  22278172.2894   22278173.5574
   -294631.61144                  24470243.7244
 -25733407.20944 -20051987.81644  20261462.0454   20261461.6494
  -3984246.44844  -3104603.58544  23261414.2704   23261415.6824
 -18332918.46344 -14285375.48444  21697040.8764   21697041.5164
 -11413911.98644  -8893941.44844  22264193.9394   22264194.4194
 96  4 21  2 20  0.0000000  0  6G23G20G 6G26G17G16
 -11118750.98644  -8663947.93244  22909369.5364   22909371.3884
 -13941296.06644 -10863340.73644  22295593.3604   22295594.8624
 -25745470.81544 -20061388.03044  20259166.2794   20259166.1264
  -4054112.31244  -3159044.45944  23248118.4004   23248118.8804
 -18380519.98344 -14322467.55044  21687982.9584   21687983.5254
 -11334944.50644  -8832408.35444  22279221.1114   22279222.5464
 96  4 21  2 20 30.0000000  0  7G23G20G22G 6G26G17G16
 -11211183.25244  -8735972.98744  22891779.2484   22891780.8044
 -13849430.27344 -10791757.02744  22313075.1974   22313076.7384
        -0.82854         0.46854  24442756.6034
 -25757099.74744 -20070449.53644  20256953.2724   20256952.9404
  -4123711.72444  -3213277.69744  23234874.2344   23234876.6084
 -18427907.89144 -14359393.16944  21678964.8554   21678965.6904
 -11255627.73844  -8770603.08944  22294314.4904   22294315.6624
 96  4 21  2 21  0.0000000  0  7G23G20G22G 6G26G17G16
 -11303341.79844  -8807784.77144  22874242.1034   22874244.4594
 -13757248.76044 -10719927.30344  22330616.5884   22330618.0224
    -71629.55944    -55814.06744  24429125.8224   24429130.1584
 -25768297.66644 -20079175.18844  20254822.4084   20254822.0064
  -4193030.61444  -3267292.37244  23221683.2044   23221684.3214
 -18475061.44844 -14396136.17544  21669991.9954   21669992.6154
 -11175939.87744  -8708508.66544  22309478.3294   22309479.7544
 96  4 21  2 21 30.0000000  0  7G23G20G22G 6G26G17G16
 -11395214.84244  -8879374.07344  22856758.8604   22856761.8204
 -13664770.52844 -10647866.36644  22348214.8544   22348216.6154
   -142855.53044   -111314.78544  24415571.4934   24415574.3044
 -25779079.56544 -20087576.66644  20252770.6414   20252770.4784
  -4262067.07344  -3321086.97444  23208546.1014   23208546.7574
 -18521966.63944 -14432685.64744  21661066.3484   21661066.6704
 -11095893.54944  -8646134.91044  22324710.3464   22324711.1004
 96  4 21  2 22  0.0000000  0  7G23G20G22G 6G26G17G16
 -11486797.57644  -8950737.14844  22839331.2034   22839333.1664
 -13572001.96144 -10575579.19344  22365867.7314   22365869.5984
   -213684.21244                  24402094.1084
 -25789454.83744 -20095661.29844  20250796.4984   20250796.1514
  -4330827.45744  -3374666.42544  23195461.1664   23195461.7954
 -18568624.65544 -14469042.51144  21652187.4804   21652188.1934
 -11015498.54044  -8583489.46044  22340009.5434   22340010.0184
 96  4 21  2 22 30.0000000  0  7G23G20G22G 6G26G17G16
 -11578087.10944  -9021871.78244  22821960.4514   22821961.4594
 -13478973.48044 -10503089.50244  22383571.3104   22383573.1554
   -284123.62644                  24388690.1194
 -25799442.22044 -20103443.67744  20248895.7984   20248895.6684
  -4399314.38444  -3428032.80444  23182428.1864   23182429.3494
 -18615066.87244 -14505231.23144  21643349.9094   21643350.7444
 -10934768.83944  -8520583.21244  22355371.9314   22355372.6394
 96  4 21  2 23  0.0000000  0  7G23G20G22G 6G26G17G16
 -11669074.66244  -9092771.10144  22804646.1074   22804647.4614
 -13385691.87044 -10430402.55844  22401321.6684   22401323.0094
   -354157.72144                  24375364.7554
 -25809031.85244 -20110916.11744  20247071.0834   20247070.8564
  -4467495.75644  -3481161.07544  23169453.7984   23169454.3824
 -18661284.51744 -14541244.95844  21634554.9844   21634555.6734
 -10853710.26844  -8457420.70944  22370796.6354   22370797.8734
 96  4 21  2 23 30.0000000  0  7G23G20G22G 6G26G17G16
 -11759786.97544  -9163455.95744  22787384.3624   22787385.1774
 -13292169.49044 -10357527.98944  22419118.8744   22419119.8924
   -423800.33844   -330232.87044  24362110.6484   24362116.3854
 -25818226.39444 -20118080.69944  20245321.5304   20245321.0174
  -4535385.27644  -3534061.93244  23156534.8594   23156535.3534
 -18707288.83744 -14577092.45444  21625800.4574   21625801.3114
 -10772334.43144  -8394010.97544  22386281.8914   22386283.1524
 96  4 21  2 24  0.0000000  0  7G23G20G22G 6G26G17G16
 -11850258.42444  -9233953.12944  22770167.8014   22770168.9744
 -13198422.79044 -10284478.63644  22436957.8114   22436959.6684
   -493263.88644                  24348929.2864
 -25827026.48844 -20124937.91844  20243646.7464   20243646.4264
  -4602992.04344  -3586742.45444  23143669.6364   23143669.6954
 -18753101.49044 -14612790.59944  21617082.3964   21617083.5964
 -10690649.27144  -8330360.21444  22401825.8784   22401827.3414
 96  4 21  2 24 30.0000000  0  7G23G20G22G 6G26G17G16
 -11940514.86944  -9304282.75244  22752992.5904   22752993.5554
 -13104477.46044 -10211274.51444  22454835.3794   22454836.6304
   -562935.18144                  24335809.2494
 -25835444.16344 -20131497.14644  20242044.9674   20242044.6944
  -4670323.91444  -3639208.78944  23130856.8334   23130857.9934
 -18798738.24244 -14648351.68744  21608398.0724   21608399.0274
 -10608666.63644  -8266477.66344  22417427.1154   22417427.3604
 96  4 21  2 25  0.0000000  0  6G23G20G 6G26G17G16
 -12030553.40344  -9374442.57944  22735858.3054   22735859.9554
 -13010302.94244 -10137891.80144  22472756.5434   22472757.9494
 -25843463.66144 -20137746.10544  20240518.8354   20240518.4994
  -4737384.05644  -3691463.37344  23118095.4074   23118096.1534
 -18844174.34244 -14683756.42344  21599751.4914   21599752.7014
 -10526377.46944  -8202356.25044  22433086.3394   22433086.8164
 96  4 21  2 25 30.0000000  0  7G23G20G22G 6G26G17G16
 -12120388.60244  -9444443.96144  22718762.8434   22718764.4834
 -12915930.16344 -10064354.59644  22490714.5594   22490716.2294
        -0.49354                  24309786.3414
 -25851102.99744 -20143698.83744  20239065.3004   20239064.8834
  -4804201.05744  -3743528.50444  23105380.4504   23105380.9224
 -18889436.28044 -14719025.44244  21591138.8694   21591139.6724
 -10443800.67244  -8138010.71244  22448800.2744   22448801.0954
 96  4 21  2 26  0.0000000  0  7G23G20G22G 6G26G17G16
 -12209977.47844  -9514253.40344  22701715.1684   22701716.4694
 -12821349.79944  -9990655.63344  22508713.0804   22508713.9964
    -67816.76144    -52843.75344  24296881.1124   24296885.7234
 -25858346.10944 -20149342.81944  20237686.7464   20237686.4374
  -4870749.55944  -3795384.42244  23092716.5924   23092718.0764
 -18934510.27444 -14754148.01244  21582561.4544   21582562.2814
 -10360930.75244  -8073436.76144  22464569.5244   22464570.2694
 96  4 21  2 26 30.0000000  0  7G23G20G22G 6G26G17G16
 -12299295.92144  -9583852.12044  22684718.7854   22684719.7954
 -12726552.53344  -9916787.65044  22526752.2744   22526753.5394
   -135221.97644   -105367.29444  24284054.5734   24284055.0024
 -25865191.68144 -20154677.03544  20236384.3704   20236383.8714
  -4937023.89144  -3847026.69644  23080104.8844   23080106.1854
 -18979379.25344 -14789110.82544  21574023.0914   21574023.6234
 -10277765.36044  -8008632.56644  22480395.6204   22480396.6494
 96  4 21  2 27  0.0000000  0  7G23G20G22G 6G26G17G16
 -12388313.63644  -9653216.51844  22667779.2734   22667780.3074
 -12631523.05044  -9842738.71844  22544835.6194   22544836.2534
   -202200.26844   -157558.14244  24271308.3214
 -25871602.72344 -20159672.65244  20235163.9674   20235163.7304
  -5003000.77344  -3898437.18744  23067550.2054   23067550.8864
 -19024021.62644 -14823897.07144  21565528.0034   21565528.8994
 -10194283.36644  -7943581.67944  22496281.5324   22496282.7234
 96  4 21  2 27 30.0000000  0  6G23G20G 6G26G17G16
 -12477046.46944  -9722358.92644  22650893.8274   22650894.4164
 -12536298.57944  -9768537.84144  22562956.6524   22562957.7814
 -25877596.66544 -20164343.25844  20234023.6164   20234023.1084
  -5068694.17344  -3949626.78944  23055048.8014   23055048.6334
 -19068475.54044 -14858536.46944  21557068.5714   21557069.3354
 -10110519.07944  -7878310.82044  22512221.1044   22512222.1164
 96  4 21  2 28  0.0000000  0  6G23G20G 6G26G17G16
 -12565473.37944  -9791262.94944  22634066.0294   22634067.4364
 -12440840.66544  -9694155.07744  22581121.1464   22581123.2614
 -25883157.26744 -20168676.19644  20232965.2894   20232965.1744
  -5134088.70644  -4000583.48744  23042605.6784   23042605.2944
 -19112730.89644 -14893021.14844  21548647.2634   21548648.1884
 -10026461.21844  -7812811.20944  22528216.7774   22528217.3944
 96  4 21  2 28 30.0000000  0  7G23G20G22G 6G26G17G16
 -12653592.05444  -9859926.79244  22617297.6994   22617298.9974
 -12345125.28344  -9619571.68244  22599335.3564   22599337.4134
        -0.16754         0.57054  24233531.3814
 -25888253.93344 -20172647.62344  20231995.8114   20231995.4124
  -5199173.35444  -4051298.74044  23030220.0154   23030221.2984
 -19156781.15844 -14927346.00844  21540264.7524   21540265.4844
  -9942091.84744  -7747068.84644  22544271.5634   22544272.7564
 96  4 21  2 29  0.0000000  0  7G23G20G22G 6G26G17G16
 -12741405.92044  -9928353.12544  22600587.0954   22600588.8114
 -12249156.15744  -9544790.56844  22617597.5744   22617599.6594
    -65367.40944    -50934.95344  24221092.3174
 -25892876.65344 -20176249.74444  20231115.8584   20231115.5004
  -5263942.86744  -4101768.42244  23017895.2234   23017895.9724
 -19200636.69844 -14961519.13744  21531919.1944   21531920.0074
  -9857417.66944  -7681088.98644  22560385.2294   22560386.1784
 96  4 21  2 29 30.0000000  0  7G17G23G20G22G 6G26G16
 -19244289.46944 -14995534.25944  21523612.5084   21523613.0804
 -12828918.22844  -9996544.46844  22583933.6934   22583935.8374
 -12152930.57844  -9469809.63244  22635908.7554   22635910.7274
   -130331.47544   -101556.26444  24208729.8244   24208729.3164
 -25897051.37044 -20179502.77144  20230321.5294   20230321.2004
  -5328392.95244  -4151989.20144  23005630.0024   23005630.7474
  -9772449.41644  -7614879.96644  22576555.0204   22576554.8574
 96  4 21  2 30  0.0000000  0  7G17G23G20G22G 6G26G16
 -19287715.23844 -15029372.49544  21515348.7524   21515349.3964
 -12916134.96844 -10064505.50344  22567336.6224   22567338.8214
 -12056454.86744  -9394633.76744  22654267.9324   22654268.6644
   -194867.70944   -151844.22744  24196447.6034   24196446.0674
 -25900779.83444 -20182408.06844  20229611.7444   20229611.4024
  -5392517.53244  -4201956.35444  22993427.5664   22993427.9094
  -9687170.98644  -7548429.24844  22592782.4684   22592782.8514
 96  4 21  2 30 30.0000000  0  7G23G20G22G 6G26G17G16
 -13003076.86344 -10132252.36844  22550792.1974   22550794.0224
 -11959767.99444  -9319293.35744  22672666.7584   22672667.7644
   -258989.49944   -201809.23744  24184245.7744   24184245.2404
 -25904081.58544 -20184980.85944  20228983.9074   20228983.5014
  -5456329.31244  -4251679.76144  22981284.4154   22981285.4734
 -19330917.67844 -15063036.71444  21507127.5934   21507128.1944
  -9601596.46544  -7481747.81944  22609066.1514   22609067.5264
 96  4 21  2 31  0.0000000  0  7G23G20G22G 6G26G17G16
 -13089708.05144 -10199757.13644  22534307.0544   22534309.0584
 -11862862.51044  -9243782.60344  22691107.5844   22691108.1384
   -322677.00844   -251435.84944  24172126.6664   24172125.3584
 -25906954.79944 -20187219.72844  20228436.8784   20228436.5764
  -5519790.38244  -4301129.89344  22969207.3454   22969207.5754
 -19373869.42844 -15096505.59244  21498953.7884   21498954.6594
  -9515707.46144  -7414821.34344  22625409.8104   22625410.9424
 96  4 21  2 31 30.0000000  0  7G23G20G22G 6G26G17G16
 -13176051.85344 -10267037.96244  22517876.4114   22517877.3434
 -11765761.95144  -9168119.84244  22709584.6344   22709585.5864
   -385944.50344   -300735.66244  24160087.2334   24160085.6714
 -25909423.06144 -20189143.04844  20227967.3994   20227967.0124
  -5582931.10244  -4350330.40144  22957193.1534   22957192.7934
 -19416592.67544 -15129796.41044  21490824.0124   21490824.6934
  -9429521.22044  -7347663.24344  22641811.0604   22641811.7634
 96  4 21  2 32  0.0000000  0  7G23G20G22G 6G26G17G16
 -13262093.59544 -10334083.41244  22501503.5004   22501504.9174
 -11668463.48644  -9092302.86944  22728100.1594   22728101.7834
   -448782.27644   -349701.29544  24148128.7004   24148128.7114
 -25911461.68044 -20190731.58244  20227579.2954   20227578.9664
  -5645743.12644  -4399274.77944  22945240.3914   22945240.9674
 -19459092.66244 -15162913.25744  21482736.5904   21482737.4164
  -9343027.81144  -7280265.79744  22658270.4994   22658270.1874
 96  4 21  2 32 30.0000000  0  7G23G20G22G 6G26G17G16
 -13347843.18844 -10400901.22644  22485186.1084   22485187.2014
 -11570980.55844  -9016342.16444  22746650.5344   22746652.4944
   -511229.36744   -398358.63844  24136247.1074   24136250.2174
 -25913084.88244 -20191996.41144  20227270.4564   20227270.2614
  -5708233.57844  -4447968.58244  22933348.2574   22933347.7974
 -19501398.77344 -15195879.03744  21474685.6794   21474686.8054
  -9256261.65644  -7212655.81644  22674781.2754   22674782.4984
 96  4 21  2 33  0.0000000  0  7G23G20G22G 6G26G17G16
 -13433320.32844 -10467506.73644  22468920.6534   22468921.6354
 -11473324.34144  -8940246.43144  22765233.4094   22765235.0924
   -573300.63444   -446725.95444  24124434.9454   24124435.5834
 -25914302.76244 -20192945.40544  20227038.6664   20227038.3454
  -5770404.39344  -4496413.31544  22921517.4434   22921517.9234
 -19543525.97944 -15228705.41644  21466669.1034   21466670.3464
  -9169238.51844  -7144845.58544  22691341.6164   22691342.2894
 96  4 21  2 33 30.0000000  0  7G23G20G22G 6G26G17G16
 -13518525.09244 -10533900.01344  22452706.4094   22452706.9774
 -11375485.14944  -8864008.11044  22783851.9994   22783852.6194
   -634974.47644   -494783.47144  24112698.5234   24112701.4324
 -25915099.32044 -20193566.09944  20226887.0464   20226886.6364
  -5832248.98744  -4544603.85644  22909749.2234   22909749.6744
 -19585460.72744 -15261381.82844  21458689.0524   21458690.1074
  -9081953.90744  -7076831.60044  22707950.5614   22707951.9214
 96  4 21  2 34  0.0000000  0  7G23G20G22G 6G26G17G16
 -13603433.46344 -10600062.32644  22436548.5464   22436549.6944
 -11277458.15544  -8787623.44544  22802505.6704   22802507.4454
   -696231.37744   -542516.12844  24101041.6524   24101042.0204
 -25915467.20144 -20193852.76144  20226816.9764   20226816.6834
  -5893739.77244  -4592518.70644  22898047.2464   22898047.8284
 -19627197.13844 -15293903.69744  21450747.1124   21450748.2714
  -8994407.05544  -7008613.29444  22724610.7904   22724611.6404
 96  4 21  2 34 30.0000000  0  7G23G20G22G 6G26G17G16
 -13688047.89644 -10665995.59844  22420446.4944   22420447.5264
 -11179238.89644  -8711088.97144  22821196.1114   22821197.8294
   -757055.78844   -589911.74744  24089467.2674   24089468.1884
 -25915395.46144 -20193796.86044  20226830.7864   20226830.4014
  -5954877.42744  -4640158.38644  22886414.3634   22886414.9054
 -19668732.55744 -15326268.95244  21442843.1844   21442843.8354
  -8906588.26644  -6940183.07944  22741321.5954   22741323.1674
 96  4 21  2 35  0.0000000  0  7G23G20G22G 6G26G17G16
 -13772358.06844 -10731691.78444  22404402.5914   22404404.9354
 -11080824.17544  -8634402.19044  22839924.2224   22839924.4224
   -817418.66744   -636947.76144  24077980.5244   24077983.7654
 -25914883.30544 -20193397.77744  20226928.2364   20226928.0234
  -6015657.87544  -4687519.71344  22874847.4204   22874847.8084
 -19710065.96844 -15358476.79944  21434977.9564   21434978.3334
  -8818491.06344  -6871535.91244  22758086.7994   22758087.6594
 96  4 21  2 35 30.0000000  0  7G23G20G22G 6G26G17G16
 -13856350.23244 -10797140.15844  22388419.2434   22388420.9404
 -10982222.21944  -8557569.49544  22858687.1334   22858687.6234
   -877322.17744   -683625.84444  24066581.7894   24066581.5244
 -25913928.24944 -20192653.57644  20227109.9064   20227109.5814
  -6076082.99244  -4734604.16444  22863349.2264   22863348.4734
 -19751208.43344 -15390535.84144  21427148.7704   21427149.2434
  -8730128.50144  -6802681.98844  22774901.6334   22774902.6744
 96  4 21  2 36  0.0000000  0  7G23G20G22G 6G26G17G16
 -13940039.63844 -10862352.62944  22372493.1354   22372495.4074
 -10883450.30944  -8480604.38244  22877483.2644   22877484.3684
   -936788.04644   -729962.88344  24055265.6164   24055267.0364
 -25912531.59944 -20191565.27244  20227375.5964   20227375.2734
  -6136155.45244  -4781413.82744  22851917.7354   22851917.8064
 -19792171.51644 -15422455.11144  21419353.8574   21419354.3584
  -8641509.37944  -6733628.15244  22791765.1904   22791766.6624
 96  4 21  2 36 30.0000000  0  7G23G20G22G 6G26G17G16
 -14023441.19044 -10927340.79744  22356623.2984   22356624.6714
 -10784516.24944  -8403512.91744  22896310.1474   22896310.8384
   -995830.88544   -775970.28244  24044028.9434   24044032.2064
 -25910703.81944 -20190141.02944  20227723.5474   20227723.1774
  -6195874.54644  -4827948.14344  22840552.8214   22840553.1364
 -19832950.34544 -15454230.80944  21411594.0944   21411594.6834
  -8552643.01644  -6664381.65144  22808675.5884   22808676.6534
 96  4 21  2 37  0.0000000  0  7G23G20G22G 6G26G17G16
 -14106531.33244 -10992086.31844  22340812.2184   22340813.1364
 -10685425.99344  -8326299.74144  22915165.9284   22915167.5574
  -1054456.02244   -821652.20144  24032873.5764   24032876.8184
 -25908447.28844 -20188382.69244  20228152.8334   20228152.4194
  -6255218.24044  -4874189.93444  22829260.3104   22829261.1384
 -19873527.95144 -15485849.70844  21403872.1934   21403872.6364
  -8463531.79344  -6594944.35044  22825632.5464   22825633.4244
 96  4 21  2 37 30.0000000  0  7G23G20G22G 6G26G17G16
 -14189305.18844 -11056585.38344  22325061.1334   22325061.6764
 -10586186.24644  -8248970.06844  22934050.8224   22934052.1024
  -1112661.51544   -867007.14244  24021796.3204   24021798.7164
 -25905738.91644 -20186272.27444  20228668.4924   20228668.1314
  -6314180.38844  -4920134.43144  22818039.7624   22818040.3764
 -19913889.30344 -15517300.09644  21396191.6924   21396192.3504
  -8374163.98044  -6525307.09844  22842639.0284   22842639.6194
 96  4 21  2 38  0.0000000  0  7G23G20G22G 6G26G17G16
 -14271786.22644 -11120856.28244  22309365.3454   22309365.6254
 -10486820.59744  -8171542.29144  22952959.2334   22952960.9614
  -1170460.60544   -912045.37444  24010798.2014   24010800.4744
 -25902609.26644 -20183833.57944  20229263.9074   20229263.5284
  -6372795.28444  -4965808.32344  22806885.7954   22806886.7514
 -19954061.18144 -15548602.84144  21388546.9194   21388547.7174
  -8284566.15544  -6455490.62344  22859689.1374   22859690.3244
 96  4 21  2 38 30.0000000  0  7G23G20G22G 6G26G17G16
 -14353938.47544 -11184870.98044  22293732.1914   22293732.8414
 -10387305.23144  -8093997.85944  22971895.8684   22971897.5804
  -1227809.46544   -956732.76544  23999884.7124   23999886.3274
 -25899043.19544 -20181054.82444  20229942.5034   20229942.1484
  -6431055.64744  -5011205.98044  22795800.0524   22795800.6934
 -19994025.68244 -15579743.99544  21380942.0434   21380942.6574
  -8194718.40544  -6385479.41044  22876786.3274   22876787.3094
 96  4 21  2 39  0.0000000  0  7G23G20G22G 6G26G17G16
 -14435762.28144 -11248629.74144  22278161.3114   22278162.4004
 -10287646.02244  -8016341.33844  22990860.2424   22990862.4064
  -1284697.38544  -1001061.01244  23989059.4444   23989060.5024
 -25895020.77744 -20177920.46744  20230707.8964   20230707.5754
  -6488974.94844  -5056337.87044  22784777.5794   22784777.8744
 -20033788.03744 -15610727.63644  21373375.4344   21373376.3334
  -8104626.08144  -6315277.61444  22893930.7224   22893932.0804
 96  4 21  2 39 30.0000000  0  7G23G20G22G 6G26G17G16
 -14517287.97244 -11312156.21044  22262647.8254   22262648.8564
 -10187846.05844  -7938575.14544  23009851.7994   23009853.9384
  -1341123.89944  -1045029.69644  23978321.8414   23978322.2824
 -25890551.43044 -20174437.85944  20231558.3194   20231557.9434
  -6546573.89344  -5101220.12444  22773816.7414   22773817.1084
 -20073371.96144 -15641572.23744  21365842.8694   21365843.5454
  -8014308.07144  -6244899.95744  22911117.5954   22911118.4504
 96  4 21  2 40  0.0000000  0  7G23G20G22G 6G26G17G16
 -14598510.40644 -11375446.37744  22247191.7444   22247192.7984
 -10087890.42744  -7860687.65644  23028873.2864   23028875.1944
  -1397078.81344  -1088630.93144  23967673.3204   23967676.1914
 -25885639.13044 -20170610.09144  20232493.1444   20232492.6844
  -6603834.73644  -5145838.92444  22762920.5854   22762920.5254
 -20112770.64744 -15672272.49644  21358345.4774   21358346.0804
  -7923756.26044  -6174340.12144  22928348.3944   22928349.4484
 96  4 21  2 40 30.0000000  0  7G23G20G22G 6G26G17G16
 -14679439.55244 -11438508.00144  22231790.9424   22231792.4304
  -9987779.76444  -7782679.35344  23047923.9234   23047925.1964
  -1452573.00144  -1131873.15644  23957113.4824   23957114.0584
 -25880267.38344 -20166424.31344  20233515.4254   20233515.1024
  -6660741.48244  -5190181.80244  22752091.4174   22752092.2754
 -20151969.10644 -15702816.73244  21350886.2654   21350887.1114
  -7832965.34944  -6103593.97444  22945625.9764   22945626.1404
 96  4 21  2 41  0.0000000  0  7G23G20G22G 6G26G17G16
 -14760075.03944 -11501340.80144  22216446.3284   22216447.8444
  -9887511.04944  -7704547.89144  23067003.7984   23067005.5044
  -1507635.24844  -1174778.78144  23946634.4924   23946637.3114
 -25874435.21644 -20161879.76744  20234625.1164   20234624.7074
  -6717273.63144  -5234232.78144  22741334.2744   22741334.1384
 -20190967.77344 -15733205.28544  21343464.9194   21343465.8714
  -7741941.17244  -6032666.05544  22962947.2134   22962948.6784
 96  4 21  2 41 30.0000000  0  7G23G20G22G 6G26G17G16
 -14840395.81744 -11563928.36944  22201161.2014   22201163.0214
  -9787076.59144  -7626287.28444  23086116.2094   23086116.6404
  -1562264.40544  -1217346.93344  23936239.4844   23936241.6284
 -25868159.37744 -20156989.49844  20235819.3754   20235819.2024
  -6773408.56944  -5277974.24544  22730652.3834   22730652.3454
 -20229753.80244 -15763428.14344  21336084.3634   21336085.0234
  -7650676.72944  -5961550.90944  22980314.3444   22980315.0264
 96  4 21  2 42  0.0000000  0  7G23G20G22G 6G26G17G16
 -14920380.38244 -11626253.95844  22185940.9384   22185942.4134
  -9686479.28344  -7547899.79244  23105259.3444   23105260.9054
  -1616459.91544  -1259577.20744  23925927.2994   23925929.5334
 -25861433.47144 -20151748.53644  20237099.4004   20237099.0084
  -6829142.63844  -5321403.33844  22720045.4634   22720045.8934
 -20268319.48344 -15793479.31144  21328745.6004   21328746.2014
  -7559180.01844  -5890254.79044  22997725.1634   22997726.5774
 96  4 21  2 42 30.0000000  0  7G23G20G22G 6G26G17G16
 -15000020.19344 -11688310.90744  22170786.4554   22170787.2524
  -9585721.19944  -7469387.01244  23124432.3954   23124433.9214
  -1670223.50244  -1301470.90644  23915697.3084   23915696.9344
 -25854256.32044 -20146155.94944  20238464.9884   20238464.7734
  -6884480.03344  -5364523.33844  22709515.3344   22709515.9324
 -20306675.62344 -15823367.19144  21321446.6584   21321447.2764
  -7467462.91044  -5818786.93744  23015179.1444   23015180.0604
 96  4 21  2 43  0.0000000  0  7G23G20G22G 6G26G17G16
 -15079309.75444 -11750094.93944  22155698.2364   22155698.4584
  -9484818.83544  -7390761.79444  23143634.3994   23143635.1894
  -1723543.63044  -1343019.04244  23905550.4664   23905550.2554
 -25846647.25444 -20140226.81144  20239913.0094   20239912.6884
  -6939418.42244  -5407332.42544  22699061.4984   22699061.8514
 -20344837.45844 -15853103.66744  21314184.5184   21314185.1254
  -7375537.50244  -5747156.76444  23032671.4214   23032672.0214
 96  4 21  2 43 30.0000000  0  7G23G20G22G 6G26G17G16
 -15158248.46544 -11811605.58644  22140676.6054   22140677.1754
  -9383792.86044  -7312040.24744  23162858.5404   23162859.9914
  -1776398.34944  -1384204.53544  23895491.9364   23895492.4374
 -25838601.81944 -20133957.64344  20241444.1394   20241443.7444
  -6993957.52244  -5449830.36944  22688682.2014   22688682.1884
 -20382811.26744 -15882693.63544  21306958.3144   21306959.4064
  -7283401.16344  -5675362.23844  23050204.2324   23050205.8794
 96  4 21  2 44  0.0000000  0  7G23G20G22G 6G26G17G16
 -15236849.96144 -11872853.46444  22125719.2984   22125719.9584
  -9282655.38244  -7233231.83044  23182104.2244   23182106.0864
  -1828792.86544  -1425031.42744  23885521.3294   23885522.0264
 -25830102.86444 -20127335.08044  20243061.2974   20243061.0324
  -7048095.97944  -5492016.12144  22678380.6794   22678380.7214
 -20420604.59544 -15912142.97144  21299766.5744   21299767.4234
  -7191055.51044  -5603404.59644  23067777.9084   23067777.5294
 96  4 21  2 44 30.0000000  0  7G23G20G22G 6G26G17G16
 -15315122.40644 -11933844.93344  22110824.2784   22110824.8394
  -9181430.19044  -7154355.06144  23201366.6334   23201368.7764
  -1880736.76344  -1465507.18144  23875636.1074   23875636.5654
 -25821153.33544 -20120361.42244  20244764.3834   20244764.0024
  -7101824.19144  -5533882.21744  22668156.4874   22668156.4634
 -20458225.17844 -15941457.70044  21292607.7374   21292608.5484
  -7098492.50344  -5531277.58144  23085391.7504   23085392.3034
 96  4 21  2 45  0.0000000  0  7G23G20G22G 6G26G17G16
 -15393059.26044 -11994574.90844  22095993.4614   22095994.1824
  -9080127.44744  -7075417.86544  23220644.0764   23220645.9094
  -1932222.22544  -1505625.68644  23865839.5234   23865840.0684
 -25811745.52144 -20113030.66244  20246554.5334   20246554.3774
  -7155131.55444  -5575420.37044  22658011.9674   22658011.3554
 -20495661.76544 -15970629.04744  21285483.9674   21285484.5424
  -7005710.98844  -5458980.31344  23103046.6274   23103047.2204
 96  4 21  2 45 30.0000000  0  8G23G20G22G 6G26G17G16G21
 -15470628.67044 -12055018.55644  22081232.0654   22081232.9014
  -8978717.25744  -6996396.93644  23239941.4524   23239943.2564
  -1983230.24744  -1545372.16644  23856134.4894   23856133.7394
 -25801839.85044 -20105311.95544  20248439.7754   20248439.5154
  -7208000.83144  -5616617.15844  22647951.5254   22647951.3214
 -20532886.39344 -15999635.23444  21278400.1554   21278400.8294
  -6912687.87644  -5386494.78644  23120749.1974   23120749.5174
        -0.44354                  25596684.4954
 96  4 21  2 46  0.0000000  0  8G23G20G22G 6G26G17G16G21
 -15547870.69544 -12115207.10344  22066533.3164   22066534.3114
  -8877217.68144  -6917306.36044  23259256.4774   23259258.5874
  -2033783.59844  -1584764.40244  23846513.5554   23846513.0524
 -25791465.67144 -20097228.18044  20250413.7394   20250413.4474
  -7260469.50044  -5657501.78644  22637966.8904   22637967.2524
 -20569925.20644 -16028496.62644  21271351.6924   21271352.4214
  -6819453.39244  -5313844.56144  23138490.7614   23138491.3574
   -100223.54044                  25577612.0604
 96  4 21  2 46 30.0000000  0  8G23G20G22G 6G26G17G16G21
 -15624790.94944 -12175144.92744  22051896.0464   22051896.8124
  -8775631.67044  -6838148.42344  23278588.3334   23278590.0084
  -2083881.49944  -1623801.74544  23836981.0004   23836979.2704
 -25780640.96044 -20088793.34144  20252473.7704   20252473.4214
  -7312555.98344  -5698088.60944  22628055.4474   22628054.9464
 -20606781.71444 -16057215.96444  21264338.2434   21264338.7594
  -6726018.97344  -5241038.53844  23156271.0074   23156271.8374
   -200434.70344                  25558542.9714
 96  4 21  2 47  0.0000000  0  7G23G20G22G 6G26G17G16
 -15701380.98944 -12234825.43544  22037321.1184   22037322.1474
  -8673930.98044  -6758901.13744  23297941.0374   23297943.3304
  -2133496.22944  -1662462.57144  23827538.6404   23827538.8594
 -25769349.05744 -20079994.45744  20254622.5644   20254622.2284
  -7364247.09344  -5738367.35144  22618218.5954   22618218.5894
 -20643427.77544 -16085771.31444  21257364.9254   21257365.3814
  -6632379.35444  -5168072.63144  23174090.3394   23174091.0644
 96  4 21  2 47 30.0000000  0  7G23G20G22G 6G26G17G16
 -15777660.55644 -12294264.02244  22022805.2444   22022806.5494
  -8572112.40244  -6679561.98044  23317316.2094   23317317.8404
  -2182636.44444  -1700753.62844  23818188.2174   23818187.7204
 -25757596.25144 -20070836.42744  20256858.9654   20256858.6354
  -7415555.35444  -5778347.76344  22608455.4554   22608454.7894
 -20679869.08244 -16114167.11944  21250429.9994   21250430.6004
  -6538548.26244  -5094957.49244  23191945.8424   23191946.2254
 96  4 21  2 48  0.0000000  0  7G23G20G22G 6G26G17G16
 -15853644.28544 -12353472.08444  22008346.7274   22008347.8834
  -8470185.66344  -6600138.54244  23336712.1534   23336713.6144
  -2231309.30444  -1738680.53744  23808926.5024   23808924.8504
 -25745391.62244 -20061326.32344  20259181.3554   20259181.0094
  -7466480.81744  -5818029.90044  22598764.4024   22598763.9874
 -20716109.61244 -16142406.47444  21243533.7024   21243534.3324
  -6444537.82644  -5021702.61144  23209835.3244   23209835.8114
 96  4 21  2 48 30.0000000  0  8G23G20G22G 6G26G17G16G21
 -15929257.82944 -12412391.69544  21993957.7154   21993958.3664
  -8368107.90044  -6520597.43144  23356136.6394   23356137.2424
  -2279471.85444  -1776209.78544  23799761.3814   23799761.5824
 -25732670.72744 -20051413.93944  20261602.2464   20261601.7834
  -7516954.79144  -5857360.22844  22589159.3574   22589158.5614
 -20752086.74844 -16170440.59244  21236687.4044   21236687.8694
  -6350304.69144  -4948274.20944  23227767.1424   23227767.9844
        -0.20754                  25482366.3244
 96  4 21  2 49  0.0000000  0  8G23G20G22G 6G26G17G16G21
 -16004527.49244 -12471043.34744  21979634.4904   21979634.8584
  -8265919.29844  -6440969.94944  23375583.1464   23375584.4564
  -2327162.76944  -1813371.52744  23790686.0374   23790687.6844
 -25719460.18244 -20041120.00344  20264115.7964   20264115.6814
  -7566998.77844  -5896355.50044  22579636.5524   22579637.0694
 -20787845.71544 -16198304.70344  21229882.8434   21229883.5204
  -6255884.71144  -4874700.22044  23245734.5024   23245735.3904
    -99813.30244    -77775.61044  25463376.5474   25463380.6194
 96  4 21  2 49 30.0000000  0  8G23G20G22G 6G26G17G16G21
 -16079460.57144 -12529432.72744  21965375.1554   21965376.2984
  -8163639.54544  -6361271.44144  23395046.4944   23395047.2224
  -2374410.21944  -1850187.70944  23781694.1284   23781695.0254
 -25705785.05144 -20030464.05644  20266718.3164   20266717.8904
  -7616633.01944  -5935031.49344  22570191.1644   22570191.1524
 -20823425.48744 -16226029.18544  21223112.1704   21223112.6824
  -6161294.14544  -4800993.30044  23263735.3824   23263736.3964
   -199546.80344   -155489.93444  25444397.4664   25444399.7874
 96  4 21  2 50  0.0000000  0  8G23G20G22G 6G26G17G16G21
 -16154047.02044 -12587552.00644  21951181.3584   21951182.8084
  -8061275.72844  -6281507.42544  23414525.4974   23414526.7774
  -2421205.83344  -1886651.81244  23772788.9424   23772790.4304
 -25691644.70544 -20019445.59744  20269409.0024   20269408.8494
  -7665847.17144  -5973380.15544  22560825.9724   22560825.5674
 -20858827.35344 -16253615.03644  21216375.4374   21216375.9664
  -6066515.74044  -4727139.99744  23281771.2094   23281770.8524
   -299222.20044   -233159.01844  25425429.0454   25425429.9634
 96  4 21  2 50 30.0000000  0  8G23G20G22G 6G26G17G16G21
 -16228270.43244 -12645388.38944  21937056.9004   21937058.4884
  -7958823.57544  -6201674.58444  23434021.5374   23434022.3984
  -2467533.57144  -1922751.32144  23763971.5654   23763974.3734
 -25677041.61344 -20008066.56344  20272187.7774   20272187.3814
  -7714629.76544  -6011392.51744  22551542.6624   22551542.9214
 -20894049.19244 -16281060.60044  21209673.0074   21209673.5064
  -5971541.88744  -4653134.40244  23299843.1114   23299844.8664
   -398847.52544   -310789.06544  25406469.8304   25406469.1114
 96  4 21  2 51  0.0000000  0  8G23G20G22G 6G26G17G16G21
 -16302134.37044 -12702944.67344  21923000.9664   21923002.2134
  -7856261.92844  -6121756.42844  23453537.5464   23453540.0214
  -2513373.62644  -1958470.82844  23755249.8344   23755252.0874
 -25661972.17244 -19996324.13944  20275055.7474   20275055.3914
  -7762971.85344  -6049061.64344  22542343.4194   22542343.9104
 -20929090.51444 -16308365.51144  21203004.6954   21203005.4124
  -5876358.25444  -4578965.33744  23317956.2694   23317957.6414
   -498424.70544   -388381.59544  25387522.1364   25387520.1314
 96  4 21  2 51 30.0000000  0  8G23G20G22G 6G26G17G16G21
 -16375642.96544 -12760224.06044  21909012.8384   21909014.0554
  -7753595.65244  -6041756.72044  23473074.1584   23473075.8704
  -2558712.73844  -1993799.98644  23746622.3224   23746623.4874
 -25646435.35344 -19984217.52044  20278012.1384   20278011.7314
  -7810867.61344  -6086382.97544  22533229.0884   22533229.4594
 -20963942.76444 -16335523.09344  21196372.4984   21196373.0534
  -5780963.45244  -4504631.74344  23336109.0194   23336112.1084
   -597950.52744   -465934.06244  25368582.1164
 96  4 21  2 52  0.0000000  0  8G23G20G22G 6G26G17G16G21
 -16448802.13344 -12817231.17244  21895091.5364   21895092.1674
  -7650845.47744  -5961691.65144  23492628.0324   23492629.8514
  -2603539.56344  -2028729.98444  23738090.8454   23738091.4914
 -25630432.95144 -19971748.11444  20281057.2404   20281056.8674
  -7858311.68644  -6123352.34644  22524200.6384   22524200.5864
 -20998597.47644 -16362526.75044  21189777.8054   21189778.3604
  -5685371.24744  -4430144.34444  23354298.8994   23354299.5434
   -697405.27644                  25349654.5704
 96  4 21  2 52 30.0000000  0  8G23G20G22G 6G26G17G16G21
 -16521615.57644 -12873968.88844  21881235.9814   21881236.4554
  -7548018.56644  -5881566.78244  23512194.7814   23512195.7704
  -2647853.57944  -2063260.35844  23729659.1164   23729661.1044
 -25613960.20144 -19958912.19644  20284191.8824   20284191.5044
  -7905297.98444  -6159964.98844  22515259.8674   22515259.7204
 -21033058.49144 -16389379.47144  21183220.2614   21183220.6454
  -5589594.00444  -4355512.71444  23372524.9744   23372525.3754
   -796754.14644   -620845.63744  25330747.0764
 96  4 21  2 53  0.0000000  0  8G23G20G22G 6G26G17G16G21
 -16594112.71444 -12930460.12744  21867440.0504   21867441.0314
  -7445148.84144  -5801408.55044  23531770.2664   23531771.4684
  -2691688.64844  -2097417.54544  23721317.1474   23721318.3694
 -25597043.18844 -19945730.10644  20287411.1254   20287410.7844
  -7951856.44744  -6196244.27444  22506400.3734   22506399.6394
 -21067349.78444 -16416099.94444  21176694.8164   21176695.4104
  -5493656.21644  -4280755.99744  23390780.9904   23390782.6824
   -896017.64444                  25311853.1944
 96  4 21  2 53 30.0000000  0  8G23G20G22G 6G26G17G16G21
 -16666275.66544 -12986690.96444  21853707.7304   21853708.4954
  -7342243.36044  -5721222.45644  23551352.6984   23551354.1164
  -2735047.06844  -2131203.29844  23713066.7654   23713065.6864
 -25579686.54844 -19932205.44144  20290713.8444   20290713.6264
  -7997990.78144  -6232193.05744  22497620.2524   22497620.3264
 -21101460.40844 -16442679.63444  21170203.8114   21170204.7034
  -5397570.98744  -4205884.40744  23409066.2514   23409067.4944
   -995195.00044                  25292982.4354
 96  4 21  2 54  0.0000000  0  8G23G20G22G 6G26G17G16G21
 -16738082.78444 -13042644.53144  21840043.4554   21840044.0444
  -7239292.00844  -5641000.61144  23570943.9034   23570946.3504
  -2777931.75044  -2164619.91144  23704906.5404   23704905.5814
 -25561876.77444 -19918327.69244  20294103.1414   20294102.7194
  -8043703.34844  -6267813.18744  22488921.7764   22488922.0834
 -21135382.63044 -16469112.52244  21163748.5064   21163749.1904
  -5301339.65444  -4130898.96444  23427378.8624   23427380.3514
  -1094271.45544   -852676.74844  25274133.2924
 96  4 21  2 54 30.0000000  0  8G23G20G22G 6G26G17G16G21
 -16809524.01244 -13098312.98644  21826448.8494   21826449.1434
  -7136297.14044  -5560744.86044  23590542.4734   23590544.4034
  -2820372.85344  -2197690.88344  23696830.3834   23696829.2724
 -25543611.01644 -19904094.62944  20297579.0644   20297578.8414
  -8089004.74044  -6303112.92144  22480300.9324   22480301.4014
 -21169122.61844 -16495403.41444  21157327.9214   21157328.7204
  -5204967.22344  -4055803.58344  23445718.2304   23445717.9864
  -1193267.81344   -929816.55144  25255296.9164   25255298.6084
 96  4 21  2 55  0.0000000  0  8G23G20G22G 6G26G17G16G21
 -16880578.97244 -13153680.45444  21812927.1774   21812927.7804
  -7033249.75944  -5480448.19544  23610151.7034   23610152.3524
  -2862376.25144  -2230420.85444  23688837.7894   23688838.0594
 -25524883.89644 -19889502.06444  20301142.6474   20301142.0674
  -8133895.84844  -6338092.95444  22471759.0354   22471758.5154
 -21202677.53244 -16521550.09044  21150942.5814   21150943.6824
  -5108461.00944  -3980603.92144  23464081.9194   23464083.0614
  -1292218.40444  -1006920.74744  25236468.5944   25236469.4774
 96  4 21  2 55 30.0000000  0  8G23G20G22G 6G26G17G16G21
 -16951234.83144 -13208736.93144  21799481.9514   21799482.4624
  -6930143.81744  -5400105.89844  23629772.5454   23629774.5574
  -2903933.51644  -2262803.16644  23680929.4274   23680927.0224
 -25505676.95344 -19874535.60944  20304797.5064   20304797.1674
  -8178364.61644  -6372743.90544  22463296.8534   22463297.1034
 -21236045.27744 -16547550.91944  21144592.8814   21144593.5524
  -5011823.14044  -3905301.70544  23482471.2734   23482473.8534
  -1391104.07044  -1083974.32544  25217650.4974   25217653.6194
 96  4 21  2 56  0.0000000  0  8G23G20G22G 6G26G17G16G21
 -17021492.83844 -13263483.38944  21786112.2164   21786112.7324
  -6826974.54344  -5319714.24744  23649404.7734   23649407.0944
  -2945028.86544  -2294825.49444  23673108.0644   23673108.6964
 -25485971.02544 -19859180.33644  20308547.5064   20308547.0094
  -8222378.35744  -6407040.28744  22454921.0354   22454920.5904
 -21269223.71144 -16573404.23444  21138279.5014   21138280.2354
  -4915028.75544  -3829877.54344  23500890.8414   23500891.5824
  -1489909.60044  -1160965.45944  25198849.1804   25198850.7534
 96  4 21  2 56 30.0000000  0  8G23G20G22G 6G26G17G16G21
 -17091362.22844 -13317927.03844  21772816.7204   21772817.0484
  -6723729.63744  -5239263.64344  23669050.7414   23669052.0204
  -2985635.71444  -2326467.15744  23665381.6054   23665382.7934
 -25465763.91444 -19843434.53044  20312392.8314   20312392.5164
  -8265904.04144  -6440956.37144  22446638.2414   22446638.0614
 -21302205.56844 -16599104.37244  21132003.5124   21132003.9084
  -4818063.37044  -3754320.08244  23519342.7304   23519344.6764
  -1588646.46944  -1237903.07244  25180060.4654   25180060.5884
 96  4 21  2 57  0.0000000  0  8G23G20G22G 6G26G17G16G21
 -17160861.92244 -13372082.61144  21759590.8764   21759591.4784
  -6620397.89644  -5158745.39044  23688714.5804   23688714.8964
  -3025722.63644  -2357703.67744  23657753.4474   23657754.6074
 -25445063.51744 -19827304.34344  20316331.9454   20316331.6124
  -8308920.62844  -6474475.75444  22438452.5084   22438452.0664
 -21334984.08244 -16624646.06144  21125766.0334   21125766.3654
  -4720919.62944  -3678623.65444  23537828.2504   23537830.7344
  -1687298.17344  -1314774.33844  25161286.6114   25161287.4234
 96  4 21  2 57 30.0000000  0  8G23G20G22G 6G26G17G16G21
 -17230012.99544 -13425966.52544  21746431.6414   21746432.1984
  -6516992.96744  -5078170.09044  23708392.7164   23708395.1714
  -3065288.36044  -2388534.07544  23650225.0594   23650226.3744
 -25423885.71144 -19810802.15144  20320361.9804   20320361.5464
  -8351424.51944  -6507595.62544  22430364.2374   22430364.3974
 -21367559.81344 -16650029.73344  21119567.0224   21119567.4964
  -4623598.07644  -3602788.69444  23556349.3984   23556350.5084
  -1785840.82344  -1391560.63844  25142532.7014   25142540.2154
 96  4 21  2 58  0.0000000  0  7G23G20G22G 6G26G17G16
 -17298828.05544 -13479588.61344  21733336.0054   21733336.8414
  -6413525.55544  -4997546.14044  23728080.8784   23728084.1224
  -3104339.33144  -2418963.39544  23642792.7174   23642793.0314
 -25402234.40444 -19793931.00044  20324481.8654   20324481.4674
  -8393417.38344  -6540317.28944  22422373.3594   22422373.6984
 -21399933.15044 -16675255.69544  21113406.6404   21113406.9964
  -4526111.35644  -3526825.01244  23574899.9744   23574900.7744
 96  4 21  2 58 30.0000000  0  7G23G20G22G 6G26G17G16
 -17367270.85644 -13532920.62744  21720311.8754   21720313.2224
  -6309986.36544  -4916866.24844  23747783.6594   23747786.7614
  -3142866.44644  -2448984.53444  23635461.9574   23635461.9084
 -25380091.62644 -19776676.88744  20328695.6594   20328695.2494
  -8434890.49344  -6572633.97144  22414481.1104   22414481.0424
 -21432073.80044 -16700300.34344  21107290.1974   21107290.4784
  -4428457.17444  -3450730.85644  23593482.6304   23593483.8334
 96  4 21  2 59  0.0000000  0  7G23G20G22G 6G26G17G16
 -17435383.06944 -13585995.03944  21707350.9174   21707352.0364
  -6206448.46344  -4836187.34144  23767487.7304   23767489.7144
  -3180938.49944  -2478651.07844  23628215.7754   23628217.0904
 -25357507.93944 -19759079.20744  20332993.0824   20332992.7374
  -8475911.70644  -6604598.50644  22406675.3984   22406675.1604
 -21464029.82144 -16725201.12344  21101209.1634   21101209.6704
  -4330702.06744  -3374558.04344  23612084.7684   23612085.2474
 96  4 21  2 59 30.0000000  0  7G23G20G22G 6G26G17G16
 -17503152.44444 -13638802.30244  21694454.5834   21694455.8894
  -6102933.37444  -4755526.22344  23787185.1834   23787185.7434
  -3218564.38744  -2507969.95044  23621055.8514   23621056.8734
 -25334471.25244 -19741128.53944  20337376.9204   20337376.5644
  -8516499.87144  -6636225.60244  22398951.2684   22398951.4294
 -21495803.62144 -16749959.91144  21095162.9174   21095163.2104
  -4232856.14944  -3298314.47444  23630705.0064   23630705.1554
 96  4 21  3  0  0.0000000  0  7G23G20G22G 6G26G17G16
 -17570505.87644 -13691285.45644  21681637.9024   21681638.5914
  -5999390.12244  -4674843.13644  23806888.8234   23806888.9334
  -3255674.06644  -2536886.58944  23613993.4954   23613994.5774
 -25310912.26444 -19722770.88044  20341860.2244   20341859.8524
  -8556599.96044  -6667472.37444  22391320.3064   22391320.9114
 -21527336.53344 -16774530.99544  21089162.3764   21089162.6014
  -4134863.74244  -3221956.73744  23649351.2894   23649351.6244
 96  4 21  3  0 30.0000000  0  7G23G20G22G 6G26G17G16
 -17637477.44444 -13743471.05444  21668893.9274   21668894.4684
  -5895841.84444  -4594156.12744  23826592.9304   23826594.5114
  -3292281.85444  -2565412.12344  23607028.1344   23607029.9524
 -25286869.46044 -19704036.22444  20346435.1594   20346434.9164
  -8596237.98544  -6698359.11244  22383777.9674   22383777.5244
 -21558664.95044 -16798942.73044  21083200.8414   21083200.9714
  -4036749.57144  -3145504.14844  23668021.9904   23668023.1824
 96  4 21  3  1  0.0000000  0  8G23G20G22G 6G26G17G16G21
 -17704073.12544 -13795363.75644  21656221.1714   21656221.5974
  -5792269.37344  -4513450.28044  23846303.1674   23846303.6894
  -3328370.79344  -2593533.36044  23600160.8414   23600161.7284
 -25262338.26244 -19684921.00044  20351103.2674   20351102.9594
  -8635410.11044  -6728882.80044  22376323.9534   22376324.3204
 -21589793.76144 -16823198.92644  21077277.2644   21077277.3884
  -3938499.64944  -3068945.78144  23686718.4554   23686720.4704
        -0.95754        -0.52754  25011811.8984   25011809.6564
 96  4 21  3  1 30.0000000  0  8G23G20G22G 6G26G17G16G21
 -17770285.45244 -13846957.73644  21643621.3764   21643621.9344
  -5688648.21244  -4432706.50544  23866022.0864   23866024.2054
  -3363917.90944  -2621232.40644  23593396.7424   23593397.4834
 -25237308.59144 -19665417.35644  20355866.4434   20355865.9984
  -8674100.73444  -6759031.29744  22368961.4174   22368961.1314
 -21620723.91844 -16847300.32744  21071391.2114   21071391.4354
  -3840099.79144  -2992270.56044  23705442.5704   23705443.4694
    -97681.83044    -76115.38644  24993224.4594   24993221.4804
 96  4 21  3  2  0.0000000  0  8G23G20G22G 6G26G17G16G21
 -17836125.25544 -13898261.44544  21631092.8204   21631093.0994
  -5584970.66844  -4351918.76744  23885751.0704   23885752.6554
  -3398932.15144  -2648516.22144  23586733.1604   23586734.1494
 -25211783.70144 -19645527.82644  20360723.5764   20360723.1584
  -8712292.93444  -6788791.41344  22361692.9524   22361692.7754
 -21651461.71144 -16871251.83444  21065542.2584   21065542.7204
  -3741549.93844  -2915478.46844  23724196.0784   23724198.7984
   -195220.12944   -152119.16644  24974663.7414   24974662.1144
 96  4 21  3  2 30.0000000  0  8G23G20G22G 6G26G17G16G21
 -17901610.15844 -13949288.60544  21618631.0714   21618631.3984
  -5481244.60144  -4271093.25244  23905488.8284   23905490.1944
  -3433440.42844  -2675405.77544  23580166.5554   23580168.0544
 -25185784.45044 -19625268.66244  20365670.9874   20365670.6724
  -8750006.09844  -6818178.24144  22354516.4654   22354515.9254
 -21682021.46644 -16895064.60844  21059726.6074   21059726.9924
  -3642858.01444  -2838575.67544  23742976.6064   23742976.8364
   -292620.16544   -228015.19944  24956128.1384   24956128.2494
 96  4 21  3  3  0.0000000  0  8G23G20G22G 6G26G17G16G21
 -17966725.28644 -14000027.63144  21606239.9404   21606240.1764
  -5377486.39644  -4190242.67844  23925233.2764   23925235.6254
  -3467449.20644  -2701906.13144  23573695.1054   23573694.9984
 -25159302.08944 -19604633.05144  20370710.4124   20370709.9834
  -8787245.39844  -6847195.84344  22347430.1534   22347430.0984
 -21712390.84144 -16918729.03444  21053947.5784   21053947.9784
  -3544014.92444  -2761555.09144  23761786.3974   23761788.6954
   -389891.36044   -303810.83144  24937616.3414   24937617.1074
 96  4 21  3  3 30.0000000  0  8G23G20G22G 6G26G17G16G21
 -18031492.67144 -14050495.68544  21593914.9024   21593915.5304
  -5273734.38544  -4109396.93244  23944976.0904   23944979.1644
  -3500979.40644  -2728033.53944  23567314.7764   23567314.3614
 -25132359.42344 -19583638.75944  20375837.5504   20375837.1594
  -8824020.45644  -6875851.69544  22340431.9874   22340432.2624
 -21742597.98244 -16942267.04844  21048199.3994   21048199.7834
  -3445032.04444  -2684425.59344  23780622.2704   23780625.1564
   -487064.23944   -379529.83544  24919123.6984   24919127.9034
 96  4 21  3  4  0.0000000  0  8G23G20G22G 6G26G17G16G21
 -18095884.69344 -14100671.24844  21581661.7424   21581662.1174
  -5169994.28644  -4028560.46344  23964717.2854   23964720.7104
  -3534025.67544  -2753783.87144  23561026.9024   23561026.4294
 -25104945.15244 -19562276.98144  20381054.2574   20381053.8024
  -8860323.55544  -6904139.79344  22333523.6174   22333523.1564
 -21772629.47144 -16965668.19144  21042484.4034   21042484.7734
  -3345907.07144  -2607185.34344  23799484.6234   23799487.5624
   -584122.50244   -455159.55344  24900652.5454   24900658.4604
 96  4 21  3  4 30.0000000  0  8G23G20G22G 6G26G17G16G21
 -18159871.60944 -14150531.14244  21569485.6044   21569485.9214
  -5066259.88444  -3947728.42644  23984456.5264   23984458.0674
  -3566557.05344  -2779132.97644  23554836.3674   23554836.8034
 -25077044.77844 -19540536.43044  20386363.6114   20386363.1764
  -8896142.00644  -6932050.22844  22326707.7754   22326707.3524
 -21802469.84144 -16988920.40544  21036805.8444   21036806.4274
  -3246636.89744  -2529831.95444  23818375.6894   23818378.9104
   -681062.36144   -530697.00544  24882204.3334   24882214.0134
 96  4 21  3  5  0.0000000  0  8G23G20G22G 6G26G17G16G21
 -18223485.04244 -14200100.01244  21557380.2754   21557380.9894
  -4962570.26044  -3866931.27744  24004188.9064   24004189.6704
  -3598594.09844  -2804096.90044  23548740.4264   23548740.8154
 -25048675.88044 -19518430.78644  20391761.7674   20391761.4574
  -8931485.14244  -6959590.30944  22319982.2724   22319981.7254
 -21832149.38344 -17012047.30244  21031158.0924   21031158.6554
  -3147272.53844  -2452405.17044  23837283.9044   23837285.5594
   -777909.30144   -606162.03644  24863774.1514   24863783.3354
 96  4 21  3  5 30.0000000  0  8G23G20G22G 6G26G17G16G21
 -18286746.99044 -14249394.99744  21545341.5444   21545342.2184
  -4858929.01344  -3786171.82244  24023911.1054   24023913.3044
  -3630152.83544  -2828688.09744  23542734.4784   23542735.1284
 -25019851.68344 -19495970.36944  20397246.7824   20397246.6144
  -8966361.28744  -6986766.48544  22313345.1994   22313344.8014
 -21861693.36644 -17035068.56944  21025535.6394   21025536.1684
  -3047860.81744  -2374941.48244  23856201.2274   23856202.4874
   -874669.10644                  24845360.0474
 96  4 21  3  6  0.0000000  0  8G23G20G22G 6G26G17G16G21
 -18349613.32844 -14298381.71344  21533378.3394   21533378.9874
  -4755292.44244  -3705416.01744  24043632.4734   24043633.8384
  -3661210.20344  -2852888.65444  23536824.1484   23536824.4874
 -24990531.47244 -19473123.44644  20402826.5314   20402826.3144
  -9000746.54044  -7013560.16444  22306802.1944   22306801.4424
 -21891051.60744 -17057945.10144  21019949.1064   21019949.6114
  -2948394.67944  -2297435.39644  23875129.5634   23875130.1584
   -971314.61344   -756867.18644  24826970.7024   24826977.2094
 96  4 21  3  6 30.0000000  0  8G23G20G22G 6G26G17G16G21
 -18412083.93944 -14347060.07144  21521490.6084   21521491.3364
  -4651641.58144  -3624649.06144  24063357.0854   24063359.1854
  -3691754.68244  -2876689.53944  23531010.9554   23531012.5804
 -24960699.05444 -19449877.39644  20408503.4464   20408503.1034
  -9034613.15544  -7039949.70444  22300357.4544   22300357.5584
 -21920202.44644 -17080660.02244  21014402.1344   21014402.4554
  -2848844.19344  -2219863.59544  23894072.4984   23894075.0844
  -1067842.33744   -832083.47644  24808603.8884   24808605.0164
 96  4 21  3  7  0.0000000  0  8G23G20G22G 6G26G17G16G21
 -18474174.95044 -14395442.63844  21509675.0374   21509675.4964
  -4547987.78444  -3543879.81044  24083081.3914   24083080.8824
  -3721810.10344  -2900109.33444  23525291.5794   23525293.1034
 -24930380.46144 -19426252.50844  20414272.6704   20414272.2914
  -9067970.67144  -7065942.54444  22294009.7624   22294009.1994
 -21949155.55544 -17103220.86844  21008892.4954   21008892.9314
  -2749205.06244  -2142222.70944  23913033.9844   23913035.9204
  -1164263.53044   -907216.76644  24790256.3364   24790255.2754
 96  4 21  3  7 30.0000000  0  8G23G20G22G 6G26G17G16G21
 -18535873.80344 -14443519.62744  21497934.4494   21497934.7914
  -4444322.35944  -3463101.53344  24102807.5494   24102808.5074
  -3751384.59044  -2923154.40044  23519664.0614   23519664.8694
 -24899584.54844 -19402255.68644  20420132.9784   20420132.4564
  -9100819.86144  -7091539.27844  22287758.9494   22287758.7864
 -21977909.61944 -17125626.61344  21003420.8594   21003421.0594
  -2649449.92544  -2064491.43544  23932016.1934   23932017.6954
  -1260573.82644   -982263.66044  24771929.8334   24771928.0404
 96  4 21  3  8  0.0000000  0  8G23G20G22G 6G26G17G16G21
 -18597155.20444 -14491271.32944  21486272.6554   21486272.9724
  -4340641.60544  -3382311.30844  24122538.3464   24122540.3114
  -3780459.54244  -2945810.25544  23514131.6924   23514130.8504
 -24868299.31644 -19377877.57944  20426086.3034   20426086.1194
  -9133132.88244  -7116718.21944  22281609.5404   22281608.5064
 -22006436.02444 -17147854.96544  20997992.4764   20997992.7294
  -2549534.22344  -1986635.02844  23951029.4584   23951030.6354
  -1356761.38044  -1057214.93244  24753626.3854   24753619.0124
 96  4 21  3  8 30.0000000  0  8G23G20G22G 6G26G17G16G21
 -18658044.37644 -14538717.39644  21474686.2684   21474686.6374
  -4236983.29744  -3301538.52744  24142263.8824   24142264.7104
  -3809027.69844  -2968072.47344  23508695.2474   23508695.7404
 -24836540.68544 -19353130.58744  20432129.6664   20432129.4334
  -9164912.32044  -7141481.37944  22275562.0084   22275561.9254
 -22034759.94544 -17169925.53544  20992602.5374   20992602.9154
  -2449459.84944  -1908654.99844  23970072.9564   23970074.6324
  -1452821.74444  -1132067.09344  24735347.8394   24735343.2444
 96  4 21  3  9  0.0000000  0  8G23G20G22G 6G26G17G16G21
 -18718558.61344 -14585871.30544  21463170.6774   21463171.0414
  -4133360.62444  -3220793.55044  24161982.1564   24161985.2854
  -3837097.83744  -2989944.55944  23503353.5714   23503353.9744
 -24804324.01244 -19328026.68044  20438260.5674   20438260.1534
  -9196181.64144  -7165847.05444  22269611.4414   22269610.7604
 -22062896.80344 -17191850.34344  20987248.1434   20987248.5904
  -2349260.84844  -1830577.85244  23989139.7914   23989142.0624
  -1548764.38744  -1206827.53044  24717089.0194   24717088.6224
 96  4 21  3  9 30.0000000  0  8G23G20G22G 6G26G17G16G21
 -18778687.75444 -14632725.14344  21451728.3854   21451728.7044
  -4029764.26844  -3140069.07644  24181695.2974   24181699.2334
  -3864651.24244  -3011415.02644  23498110.5364   23498111.9114
 -24771625.93744 -19302547.65244  20444482.7544   20444482.3174
  -9226943.25944  -7189817.10544  22263757.5194   22263757.1624
 -22090834.16944 -17213619.70344  20981931.7134   20981932.1494
  -2248946.40144  -1752410.74344  24008229.3874   24008232.1814
  -1644582.41744  -1281490.82744  24698853.3914   24698853.9294
 96  4 21  3 10  0.0000000  0  8G23G20G22G 6G26G17G16G21
 -18838434.16044 -14679280.74644  21440358.7234   21440359.4354
  -3926198.63044  -3059368.56244  24201402.7484   24201401.0344
  -3891655.07744  -3032456.99444  23492971.3254   23492973.2384
 -24738429.04144 -19276679.93444  20450800.1214   20450799.6404
  -9257191.15844  -7213386.85644  22258002.1874   22258001.9384
 -22118554.09644 -17235219.63144  20976657.0194   20976657.5524
  -2148525.73944  -1674160.88644  24027339.1854   24027341.2634
  -1740266.72444  -1356049.90044  24680646.5544   24680647.1174
 96  4 21  3 10 30.0000000  0  8G23G20G22G 6G26G17G16G21
 -18897809.02544 -14725546.83744  21429059.9024   21429060.2914
  -3822667.65644  -2978695.01444  24221104.5634   24221104.2734
  -3918113.42944  -3053073.89544  23487936.7434   23487939.5114
 -24704738.77144 -19250427.76644  20457210.8644   20457210.4254
  -9286941.38244  -7236568.81644  22252340.7054   22252340.6404
 -22146074.37144 -17256663.98844  20971420.1564   20971420.4944
  -2048031.05344  -1595853.34844  24046463.4274   24046464.4204
  -1835822.93844  -1430509.21644  24662463.0694   24662463.4124
 96  4 21  3 11  0.0000000  0  8G23G20G22G 6G26G17G16G21
 -18956812.86044 -14771523.81644  21417832.0364   21417832.5064
  -3719164.00144  -2898042.77444  24240801.0724   24240801.5704
  -3944050.13944  -3073284.30044  23483001.5104   23483003.0294
 -24670573.27744 -19223805.29444  20463712.3514   20463711.9684
  -9316205.52044  -7259372.00344  22246771.6954   22246771.3744
 -22173400.13944 -17277956.77644  20966220.1224   20966220.5214
  -1947487.41044  -1517507.61944  24065596.1794   24065595.2124
  -1931274.08744  -1504886.65844  24644299.1684   24644300.3224
 96  4 21  3 11 30.0000000  0  7G23G26G20G 6G17G16G21
 -19015435.31744 -14817203.61744  21406676.4774   21406676.9564
  -9344970.27844  -7281786.08744  22241298.1404   22241297.2834
  -3615699.80944  -2817421.28444  24260489.1164   24260490.0664
 -24635924.58144 -19196806.30044  20470305.6014   20470305.2184
 -22200536.07044 -17299101.64144  20961056.3984   20961056.7804
  -1846897.33444  -1439125.75944  24084737.1604   24084738.2074
  -2026609.92944  -1579174.24544  24626156.5004   24626160.1144
 96  4 21  3 12  0.0000000  0  8G23G26G20G28G 6G17G16G21
 -19073644.53244 -14862561.41044  21395599.7024   21395600.3004
  -9373184.17844  -7303770.91644  22235928.9244   22235928.3414
  -3512246.06444  -2736807.91544  24280175.9854   24280179.0604
        -0.21714        -0.83114  25346114.193    25346115.745
 -24600760.61644 -19169405.80444  20476997.0624   20476996.6564
 -22227462.87444 -17320083.54844  20955932.4724   20955932.8144
  -1746220.73044  -1360676.45144  24103894.9954   24103898.4814
  -2121789.87644  -1653340.35644  24608042.2054   24608045.8564
 96  4 21  3 12 30.0000000  0  8G23G26G20G28G 6G17G16G21
 -19131442.47744 -14907598.73244  21384601.1194   21384601.6394
  -9400857.26244  -7325334.33744  22230662.8924   22230662.6764
  -3408803.83444  -2656203.57244  24299859.8334   24299861.3704
   -104880.807 4    -81725.924 4  25326155.552    25326157.442
 -24565105.91444 -19141622.90944  20483782.0354   20483781.6644
 -22254207.79344 -17340923.72944  20950842.9274   20950843.3404
  -1645477.24444  -1282175.04044  24123065.7034   24123068.4154
  -2216825.05844  -1727393.65944  24589956.0394   24589960.8544
 96  4 21  3 13  0.0000000  0  8G23G26G20G28G 6G17G16G21
 -19188843.05844 -14952326.42244  21373678.1194   21373678.3584
  -9427989.63144  -7346476.41044  22225500.1194   22225499.6354
  -3305395.32444  -2575625.46944  24319538.8494   24319538.0654
   -209803.713 4   -163484.017 4  25306190.700    25306192.243
 -24528976.99244 -19113470.49444  20490657.4534   20490656.9204
 -22280792.78144 -17361639.28844  20945783.8214   20945784.1814
  -1544665.22144  -1203620.21544  24142249.0804   24142250.3014
  -2311723.54144  -1801340.42544  24571897.7394   24571904.8344
 96  4 21  3 13 30.0000000  0  8G23G26G20G28G 6G17G16G21
 -19245820.77544 -14996724.60544  21362835.5004   21362836.0004
  -9454548.14944  -7367171.40644  22220445.5014   22220445.5224
  -3202000.17744  -2495057.78344  24339214.0914   24339218.6714
   -314740.115 4   -245252.523 4  25286223.362    25286223.985
 -24492346.99944 -19084927.63244  20497627.6824   20497627.1654
 -22307206.17444 -17382221.13844  20940757.5534   20940757.9044
  -1443748.28144  -1124983.65644  24161453.5034   24161455.9074
  -2406452.32144  -1875154.99344  24553870.6784   24553877.7144
 96  4 21  3 14  0.0000000  0  8G23G26G20G28G 6G17G16G21
 -19302412.23144 -15040821.81244  21352066.5494   21352066.8224
  -9480570.96344  -7387448.77744  22215493.9824   22215493.6704
  -3098649.08344  -2414524.42144  24358881.0844   24358880.7574
   -419719.028 4   -327054.233 4  25266246.966    25266247.518
 -24455257.25544 -19056026.52744  20504685.6304   20504685.1464
 -22333484.62544 -17402697.83344  20935757.1124   20935757.3474
  -1342755.11644  -1046287.68244  24180671.6484   24180673.6464
  -2501048.39244  -1948866.12444  24535871.7664   24535878.3524
 96  4 21  3 14 30.0000000  0  8G23G26G20G28G 6G17G16G21
 -19358598.96144 -15084603.64444  21341374.6384   21341375.0614
  -9506051.60944  -7407303.80544  22210644.8504   22210644.5084
  -2995334.00944  -2334019.12144  24378540.3504   24378542.7334
   -524724.138 4   -408876.426 4  25246264.036    25246266.597
 -24417691.08344 -19026754.18044  20511834.2844   20511833.9324
 -22359611.90544 -17423056.73344  20930785.1984   20930785.5964
  -1241679.72844   -967527.60744  24199905.0254   24199907.5844
  -2595503.92844  -2022467.74544  24517899.0894   24517899.5864
 96  4 21  3 15  0.0000000  0  8G23G26G20G28G 6G17G16G21
 -19414402.74544 -15128087.08144  21330755.4164   21330755.6644
  -9531001.41744  -7426745.18144  22205897.4164   22205897.0664
  -2892093.49844  -2253571.94344  24398187.4694   24398188.0904
   -629766.774 4   -490727.916 4  25226274.506    25226279.013
 -24379652.47144 -18997113.69744  20519072.8654   20519072.5274
 -22385592.59944 -17443301.41144  20925841.2944   20925841.8564
  -1140535.91144   -888714.24144  24219153.9494   24219153.4944
  -2689834.58044  -2095972.04444  24499948.8564   24499951.3874
 96  4 21  3 15 30.0000000  0  8G23G26G20G28G 6G17G16G21
 -19469820.92344 -15171270.04544  21320209.4794   21320209.7164
  -9555446.59144  -7445793.33644  22201245.6244   22201245.3934
  -2788939.86644  -2173192.45344  24417816.5154   24417817.0494
   -734849.617 4   -572610.595 4  25206277.846    25206281.458
 -24341139.86344 -18967103.86244  20526401.3284   20526401.0514
 -22411401.26444 -17463412.03944  20920930.0864   20920930.5604
  -1039350.63744   -809868.60044  24238408.9104   24238411.0514
  -2784043.48544  -2169381.51944  24482022.1354   24482022.0344
 96  4 21  3 16  0.0000000  0  8G23G26G20G28G 6G17G16G21
 -19524864.80644 -15214161.34644  21309735.3604   21309735.2774
  -9579404.04844  -7464461.45144  22196686.7934   22196686.3344
  -2685902.36744  -2092903.43144  24437423.6064   24437424.7664
   -839976.117 4   -654527.201 4  25186272.385    25186278.504
 -24302148.80444 -18936721.21744  20533821.1584   20533820.8884
 -22437030.79444 -17483383.08744  20916052.8544   20916053.0644
   -938137.89344   -731001.52944  24257668.0234   24257667.3444
  -2878133.21244  -2242698.10844  24464117.8014   24464117.2204
 96  4 21  3 16 30.0000000  0  8G23G26G20G28G 6G17G16G21
 -19579519.96144 -15256749.74344  21299334.4574   21299334.7974
  -9602851.53144  -7482732.18444  22192224.9154   22192224.3914
  -2582968.31244  -2012695.01244  24457010.2984   24457012.8784
   -945121.568 4   -736458.675 4  25166262.639    25166266.732
 -24262655.77344 -18905947.41944  20541336.7464   20541336.2664
 -22462441.78444 -17503183.83844  20911217.3494   20911217.6244
   -836879.93844   -652099.22544  24276936.1844   24276936.1364
  -2972075.01244  -2315899.39544  24446241.5374   24446238.5084
 96  4 21  3 17  0.0000000  0  8G23G26G20G28G 6G17G16G21
 -19633788.25244 -15299036.68944  21289007.8014   21289007.6194
  -9625788.03144  -7500604.75744  22187860.2184   22187859.0184
  -2480130.52244  -1932561.68844  24476580.6514   24476581.8554
  -1050282.261 4   -818402.071 4  25146250.668    25146254.346
 -24222665.83444 -18874786.42444  20548946.0694   20548945.8834
 -22487618.34844 -17522801.92144  20906426.0884   20906426.4794
   -735573.49444   -573159.14344  24296213.0944   24296214.6924
  -3065843.79744  -2388965.89544  24428397.8614   24428398.3194
 96  4 21  3 17 30.0000000  0  8G23G26G20G28G 6G17G16G21
 -19687658.80444 -15341013.71044  21278756.4074   21278756.5854
  -9648199.66444  -7518068.33744  22183595.0744   22183594.7554
  -2377355.61144  -1852477.27644  24496137.2604   24496138.5544
  -1155444.838 4   -900346.972 4  25126238.231    25126240.515
 -24182176.33944 -18843236.15744  20556651.2074   20556650.7944
 -22512549.52844 -17542228.79644  20901681.9064   20901682.0154
   -634198.84244   -494165.89644  24315505.7904   24315505.5814
  -3159414.64644  -2461878.16444  24410590.8474   24410588.8324
 96  4 21  3 18  0.0000000  0  8G23G26G20G28G 6G17G16G21
 -19741137.42044 -15382685.32244  21268579.6384   21268579.9354
  -9670063.22244  -7535104.83244  22179434.7754   22179434.8054
  -2274613.47144  -1772418.41844  24515688.6104
  -1260600.447 4   -982286.296 4  25106227.933    25106237.019
 -24141194.77444 -18811302.46344  20564449.3364   20564449.2794
 -22537249.57744 -17561475.57244  20896981.8714   20896981.6564
   -532726.53844   -415096.52544  24334813.7994   24334817.9154
  -3252782.64244  -2534632.32644  24392822.6114   24392823.2204
 96  4 21  3 18 30.0000000  0  8G23G26G20G28G 6G17G16G21
 -19794233.75844 -15424059.06044  21258475.6504   21258476.0014
  -9691387.47444  -7551721.09944  22175376.7624   22175376.0124
  -2171896.31444  -1692379.07544  24535236.6544
  -1365766.428 4  -1064233.789 4  25086214.717    25086220.435
 -24099753.58944 -18779010.62044  20572335.6224   20572335.1714
 -22561742.65244 -17580561.07144  20892320.9164   20892321.2934
   -431180.56344   -335969.81044  24354138.1914   24354140.1284
  -3345967.00944  -2607243.43644  24375089.9054   24375092.3684
 96  4 21  3 19  0.0000000  0  8G23G26G20G28G 6G17G16G21
 -19846938.56444 -15465127.71044  21248446.5034   21248446.8514
  -9712181.68844  -7567924.35044  22171419.7624   22171419.6734
  -2069203.71744                  24554776.4944
  -1470945.475 4  -1146191.502 4  25066199.149    25066201.248
 -24057859.06844 -18746365.53444  20580307.8044   20580307.4304
 -22586046.20244 -17599498.88644  20887696.1704   20887696.5564
   -329571.75044   -256794.10844  24373474.6094   24373475.0124
  -3438972.61944  -2679715.25444  24357389.7094   24357391.4024
 96  4 21  3 19 30.0000000  0  8G23G26G20G28G 6G17G16G21
 -19899247.50244 -15505887.88944  21238492.1514   21238492.4874
  -9732424.91944  -7583698.26644  22167567.6734   22167567.1254
  -1966541.48044                  24574312.8614
  -1576128.280 4  -1228152.135 4  25046181.061    25046182.501
 -24015494.31444 -18713354.02944  20588369.6674   20588369.3044
 -22610163.46244 -17618291.53744  20883106.8244   20883107.1634
   -227906.27544   -177574.26644  24392821.0424   24392822.6454
  -3531826.60044  -2752068.87644  24339720.4374   24339722.6724
 96  4 21  3 20  0.0000000  0  7G23G26G20G 6G17G16G21
 -19951161.82244 -15546340.57244  21228613.4344   21228613.7844
  -9752124.31244  -7599048.40244  22163818.6834   22163818.3454
  -1863937.06044                  24593839.2664
 -23972656.52344 -18679973.92444  20596521.2344   20596520.9034
 -22634105.91644 -17636947.97944  20878550.7584   20878551.0634
   -126208.85244    -98329.53044  24412173.6414   24412172.4544
  -3624557.12844  -2824326.35544  24322073.4844   24322076.5294
 96  4 21  3 20 30.0000000  0  7G23G26G20G 6G17G16G21
 -20002653.00744 -15586463.53944  21218814.8154   21218814.8924
  -9771261.46244  -7613960.43544  22160177.8424   22160177.1874
  -1761404.19844                  24613348.2264
 -23929308.95044 -18646196.58444  20604770.2514   20604769.8484
 -22657848.41244 -17655448.61144  20874032.3864   20874033.0114
    -24480.42844    -19060.58844  24431530.9234   24431531.5664
  -3717147.00644  -2896474.22044  24304454.5484   24304456.6014
 96  4 21  3 21  0.0000000  0  7G23G26G20G 6G17G16G21
 -20053718.19144 -15626254.56144  21209097.3384   21209097.6474
  -9789822.62644  -7628423.64944  22156644.9204   22156644.4084
  -1658969.87844                  24632843.5504
 -23885441.20044 -18612013.91244  20613117.9794   20613117.4764
 -22681385.60344 -17673789.26044  20869553.3334   20869553.7804
     77293.11344     60243.45544  24450898.0094   24450899.9324
  -3809597.07044  -2968513.12044  24286861.7324   24286864.4304
 96  4 21  3 21 30.0000000  0  7G23G26G20G 6G17G16G21
 -20104367.87844 -15665721.81844  21199459.0414   21199458.7174
  -9807801.01444  -7642432.76344  22153223.9764   22153223.1494
  -1556654.80644                  24652311.5134
 -23841064.36744 -18577434.55544  20621562.5504   20621561.8684
 -22704725.25744 -17691975.98644  20865112.0454   20865112.1824
    179119.30144    139588.52144  24470275.5154   24470278.1774
  -3901918.79444  -3040452.04944  24269295.3334   24269298.3724
 96  4 21  3 22  0.0000000  0  7G23G26G20G 6G17G16G21
 -20154590.82744 -15704856.55744  21189901.8564   21189901.9304
  -9825216.24044  -7656003.03044  22149909.6004   22149909.0864
  -1454470.51544                  24671755.5884
 -23796198.25844 -18542473.94044  20630100.2254   20630099.6844
 -22727867.20344 -17710008.66344  20860708.3084   20860708.4054
    281011.08944    218984.70844  24489665.0374   24489666.7704
  -3994084.91144  -3112269.71644  24251758.4514   24251759.0764
 96  4 21  3 22 30.0000000  0  7G23G26G20G 6G17G16G21
 -20204390.08644 -15743661.14444  21180425.1624   21180425.3794
  -9842079.00044  -7669142.81144  22146701.1604   22146700.8754
  -1352428.39644                  24691174.5084
 -23750861.28744 -18507146.42444  20638727.5264   20638727.1374
 -22750824.85244 -17727897.72344  20856339.5184   20856339.9124
    382968.26744    298431.85844  24509065.8134   24509065.7754
  -4086084.30044  -3183957.48344  24234250.4524   24234252.2434
 96  4 21  3 23  0.0000000  0  8G23G26G20G28G 6G17G16G21
 -20253767.97044 -15782137.38744  21171029.1564   21171029.3054
  -9858387.20044  -7681850.47744  22143597.9434   22143597.0144
  -1250510.07344                  24710570.8424
         0.46014        -0.04114  24906074.338    24906075.777
 -23705075.73744 -18471469.36144  20647440.0364   20647439.6404
 -22773605.66244 -17745648.98744  20852004.4844   20852004.9844
    484990.53844    377929.69444  24528478.9424   24528481.9694
  -4177908.59044  -3255508.79244  24216776.7814   24216779.1824
 96  4 21  3 23 30.0000000  0  7G23G26G20G 6G17G16G21
 -20302732.65944 -15820291.66044  21161711.1264   21161711.5054
  -9874151.34844  -7694134.19644  22140597.7724   22140597.5964
  -1148701.85144                  24729943.6694
 -23658838.52044 -18435440.35344  20656238.8724   20656238.4934
 -22796207.71044 -17763260.95644  20847703.6264   20847704.1604
    587054.63544    457460.18044  24547901.1254   24547903.7794
  -4269554.22244  -3326920.91344  24199337.0044   24199338.2354
 96  4 21  3 24  0.0000000  0  7G23G26G20G 6G17G16G21
 -20351306.92844 -15858141.70744  21152467.9004   21152468.2654
  -9889397.18344  -7706014.04244  22137696.9144   22137696.2954
  -1047011.07044                  24749293.4164
 -23612162.64244 -18399069.53044  20665121.0714   20665120.5444
 -22818655.24244 -17780752.52144  20843432.0014   20843432.4294
    689117.83244    536989.93444  24567323.9244   24567327.2974
  -4361044.37644  -3398211.87844  24181928.1234   24181929.0174
 96  4 21  3 24 30.0000000  0  8G23G26G20G28G 6G17G16G21
 -20399485.89744 -15895683.73244  21143299.9274   21143300.2634
  -9904075.27544  -7717451.48644  22134903.4034   22134903.0024
   -945399.60144                  24768631.0654
        -0.16214         0.21014  24846028.929    24846029.887
 -23565008.78144 -18362326.25744  20674094.3244   20674093.9114
 -22840922.44644 -17798103.57744  20839194.4884   20839194.9164
    791187.71344    616524.91644  24586748.9364   24586749.6074
  -4452366.84244  -3469372.17044  24164549.0474   24164548.2954
 96  4 21  3 25  0.0000000  0  8G23G26G20G28G 6G17G16G21
 -20447284.45744 -15932929.33544  21134204.1044   21134204.1764
  -9918177.89744  -7728440.51444  22132219.7304   22132218.9224
   -843854.57244                  24787958.2974
   -105171.344 4    -81951.434 4  24826016.294    24826021.662
 -23517362.23844 -18325199.07644  20683160.8724   20683160.4624
 -22862994.05644 -17815302.21444  20834994.4024   20834994.7634
    893268.59944    696068.47444  24606173.7404   24606177.9444
  -4543533.09144  -3540410.73344  24147200.2614   24147200.7044
 96  4 21  3 25 30.0000000  0  8G23G26G20G28G 6G17G16G21
 -20494700.03744 -15969876.51144  21125181.0784   21125181.3274
  -9931706.77544  -7738982.45744  22129645.3024   22129644.7004
   -742984.53944                  24807259.4904
   -210325.207 4   -163889.443 4  24806004.387    24806011.592
 -23469202.63844 -18287672.10644  20692325.5564   20692324.9944
 -22884862.86844 -17832342.82544  20830833.0604   20830832.8594
    995364.94744    775624.11844  24625602.3954   24625605.6124
  -4634549.86944  -3611332.85444  24129879.2714   24129879.6914
 96  4 21  3 26  0.0000000  0  7G23G26G28G 6G17G16G21
 -20541738.02244 -16006529.45544  21116229.9264   21116230.2454
  -9944684.90244  -7749095.26744  22127175.8234   22127175.0734
   -315474.181 4   -245823.655 4  24785993.253    24786001.592
 -23420556.96744 -18249766.37744  20701582.3424   20701582.0264
 -22906554.21044 -17849245.15344  20826705.3934   20826705.3464
   1097476.55944    855191.61044  24645033.2274   24645034.9164
  -4725423.86544  -3682143.68044  24112584.6524   24112587.8114
 96  4 21  3 26 30.0000000  0  7G23G26G28G 6G17G16G21
 -20588391.72344 -16042882.96144  21107352.2384   21107352.2924
  -9957108.05744  -7758775.61944  22124811.5654   22124810.9704
   -420606.926 4   -327745.321 4  24765987.615    24765992.726
 -23371433.22244 -18211488.12344  20710930.2994   20710929.6274
 -22928055.00344 -17865999.00144  20822613.8734   20822613.7724
   1199616.30644    934780.98844  24664470.8444   24664470.1484
  -4816136.65944  -3752828.86144  24095322.5824   24095324.9704
 96  4 21  3 27  0.0000000  0  8G23G26G22G28G 6G17G16G21
 -20634612.15744 -16078898.85444  21098556.6214   21098556.8984
  -9968976.46244  -7768023.70144  22122552.8294   22122552.0594
        -0.95654        -0.28954  23376587.0494   23376587.2984
   -525696.010 4   -409632.922 4  24745989.477    24745991.408
 -23321810.78244 -18172821.27944  20720373.1044   20720372.6404
 -22949344.77544 -17882588.41244  20818562.7064   20818562.7834
   1301808.88644   1014411.62644  24683914.3254
  -4906654.46244  -3823362.15844  24078097.6824   24078099.2204
 96  4 21  3 27 30.0000000  0  7G23G26G22G16G21G 6G17
 -20680394.17744 -16114573.13244  21089844.7194   21089844.7054
  -9980309.46744  -7776854.59444  22120396.1484   22120395.7804
     -8867.14544     -6909.01344  23374899.4754   23374899.2974
   1404027.21844   1094062.22344  24703366.9984   24703369.7364
  -4996977.99044  -3893744.07544  24060910.2904   24060912.1794
 -23271712.09844 -18133783.34044  20729906.4894   20729906.0454
 -22970442.64444 -17899028.29544  20814547.7774   20814547.6634
 96  4 21  3 28  0.0000000  0  7G23G22G26G 6G17G16G21
 -20725774.71744 -16149934.56344  21081209.1614   21081209.1684
    -17231.75944    -13426.89544  23373308.2094   23373308.1034
  -9991135.66544  -7785290.56844  22118336.2434   22118335.9644
 -23221176.99644 -18094405.33044  20739522.9664   20739522.5434
 -22991392.89444 -17915353.14944  20810560.7254   20810561.1044
   1506232.37944   1173702.63444  24722817.0184   24722817.8234
  -5087143.60944  -3964002.92344  24043753.4574   24043755.2014
 96  4 21  3 28 30.0000000  0  7G23G26G22G16G21G 6G17
 -20770697.50544 -16184939.30244  21072660.4054   21072660.5674
 -10001380.68144  -7793273.67544  22116386.2354   22116385.2814
    -25064.03944    -19529.94444  23371818.0054   23371816.8934
   1608472.22144   1253370.04544  24742271.1724   24742274.2424
  -5177107.08044  -4034104.24944  24026634.3684   24026634.9464
 -23170133.95344 -18054631.52344  20749236.2904   20749235.8174
 -23012127.72644 -17931510.13944  20806615.2414   20806615.6584
 96  4 21  3 29  0.0000000  0  7G23G26G22G16G21G 6G17
 -20815151.30544 -16219578.59744  21064201.1954   21064201.3384
 -10011022.50344  -7800786.76544  22114551.3504   22114550.9864
    -32376.64944    -25228.09844  23370425.9534   23370426.7084
   1710760.62244   1333075.24344  24761737.4274   24761738.7744
  -5266864.05544  -4104044.68044  24009554.3694   24009555.4234
 -23118562.24144 -18014445.76544  20759050.1334   20759049.5374
 -23032638.79944 -17947492.77244  20802712.3914   20802712.4684
 96  4 21  3 29 30.0000000  0  7G23G26G22G16G21G 6G17
 -20859189.05144 -16253893.69644  21055821.1284   21055821.0444
 -10020080.07044  -7807844.57944  22112828.4124   22112827.8114
    -39220.76844    -30561.18244  23369123.5764   23369123.6374
   1813066.52044   1412794.06644  24781206.3584   24781209.5804
  -5356456.08444  -4173856.58644  23992505.2274   23992504.8144
 -23066507.99044 -17973884.00844  20768955.4504   20768955.3154
 -23052970.37744 -17963335.54444  20798843.1344   20798843.2624
 96  4 21  3 30  0.0000000  0  7G23G22G26G16G 6G17G21
 -20902805.45344 -16287880.47744  21047520.8264   21047521.0264
    -45585.51444    -35520.70744  23367911.8114   23367911.7784
 -10028528.97044  -7814428.11044  22111220.5384   22111219.9694
   1915410.24144   1492542.41844  24800681.5134   24800683.8744
 -23013971.09344 -17932946.16244  20778953.0914   20778952.7434
 -23073113.25244 -17979031.27044  20795009.9264   20795010.2834
  -5445867.32944  -4243527.63544  23975490.6974   23975491.8124
 96  4 21  3 30 30.0000000  0  7G23G26G22G 6G17G16G21
 -20946026.05644 -16321558.83944  21039296.3814   21039296.3484
 -10036390.87744  -7820554.24644  22109724.4014   22109723.7404
    -51486.49044    -40118.86144  23366789.0324   23366790.0794
 -22960973.74144 -17891649.51844  20789037.9564   20789037.6634
 -23093071.97244 -17994583.49644  20791211.7724   20791212.1364
   2017766.03244   1572300.21744  24820158.8474   24820160.1914
  -5535100.06344  -4313059.54544  23958509.9824   23958510.6244
 96  4 21  3 31  0.0000000  0  8G23G26G22G28G 6G17G16G21
 -20988864.73544 -16354939.60144  21031144.2454   21031144.3924
 -10043681.54144  -7826235.25944  22108336.8794   22108336.4484
    -56908.96344    -44344.14344  23365757.1984   23365757.8814
        -0.38614        -0.25814  24586192.887    24586194.586
 -22907529.70544 -17850004.80944  20799208.1274   20799207.6334
 -23112853.96144 -18009998.01544  20787447.4864   20787447.5484
   2120127.48844   1652062.42944  24839637.4634   24839640.8724
  -5624145.64844  -4382445.65744  23941565.6414   23941565.5734
 96  4 21  3 31 30.0000000  0  8G23G26G22G28G 6G17G16G21
 -21031313.74744 -16388016.72444  21023066.7024   21023066.5414
 -10050391.94244  -7831464.13444  22107059.9404   22107059.2794
    -61827.11144    -48176.47844  23364821.5194   23364821.7284
   -104827.468 4    -81683.621 4  24566245.340    24566245.989
 -22853631.30444 -17808006.04944  20809464.7804   20809464.3714
 -23132448.81644 -18025266.71944  20783718.7514   20783719.0054
   2222496.63644   1731830.44344  24859115.4084
  -5712991.60344  -4451676.23144  23924659.7184   23924660.1464
 96  4 21  3 32  0.0000000  0  8G23G26G22G28G 6G17G16G21
 -21073392.23244 -16420805.13144  21015059.3984   21015059.4704
 -10056539.22944  -7836254.21644  22105889.8164   22105889.1904
    -66252.00144    -51624.42844  23363979.4434   23363979.4074
   -209618.625 4   -163339.028 4  24546304.083    24546305.131
 -22799295.46344 -17765666.42744  20819804.6744   20819804.2694
 -23151854.70644 -18040388.17344  20780025.9874   20780026.0804
   2324848.51344   1811585.08244  24878593.9974   24878595.5034
  -5801654.88444  -4520764.45144  23907787.7794   23907787.8634
 96  4 21  3 32 30.0000000  0  8G23G26G22G28G 6G17G16G21
 -21115098.49144 -16453303.48344  21007122.8754   21007123.1674
 -10062131.15044  -7840611.51644  22104826.4184   22104825.7704
    -70165.92644    -54674.23944  23363233.8144   23363234.9644
   -314366.952 4   -244961.110 4  24526371.834    24526371.946
 -22744503.78344 -17722971.60344  20830231.0854   20830230.5064
 -23171067.92344 -18055359.49344  20776369.9804   20776370.0614
   2427174.96044                  24898065.5844
  -5890143.09744  -4589716.21444  23890948.0934   23890947.6014
 96  4 21  3 33  0.0000000  0  8G23G26G22G28G 6G17G16G21
 -21156421.92544 -16485503.53844  20999259.3364   20999259.3484
 -10067170.42444  -7844538.19344  22103867.1054   22103866.2454
    -73573.74744    -57329.67044  23362586.2584   23362586.7404
   -419077.791 4   -326553.968 4  24506446.447    24506446.921
 -22689262.71444 -17679926.61244  20840742.9424   20840742.5074
 -23190101.38944 -18070190.74644  20772747.8884   20772748.2424
   2529476.02744                  24917531.0304
  -5978469.10244  -4658541.64344  23874139.6084   23874141.6764
 96  4 21  3 33 30.0000000  0  8G23G26G22G28G 6G17G16G21
 -21197349.63744 -16517395.23744  20991470.8334   20991471.1294
 -10071649.82944  -7848028.61944  22103014.8674   22103014.1914
    -76464.76244    -59582.40244  23362035.7674   23362036.7834
   -523749.178 4   -408116.078 4  24486529.413    24486528.808
 -22633575.91044 -17636534.29244  20851339.5134   20851339.2834
 -23208943.31144 -18084872.73844  20769162.4934   20769162.5464
   2631763.90344   2050740.03244  24936996.1084
  -6066631.45244  -4727239.53644  23857363.4074   23857364.6344
 96  4 21  3 34  0.0000000  0  8G26G23G22G28G 6G17G16G21
 -10075579.45144  -7851090.63644  22102266.6884   22102265.8964
 -21237874.76544 -16548973.23544  20983759.3204   20983759.4524
    -78832.03844    -61427.01144  23361585.5534   23361586.1354
   -628378.790 4   -489645.554 4  24466618.483    24466618.065
 -22577437.17244 -17592789.81544  20862022.8574   20862022.3214
 -23227587.36144 -18099400.55244  20765614.7374   20765614.6674
   2734034.91444   2130431.73544  24956459.4704   24956458.6004
  -6154623.35744  -4795804.60244  23840619.3344   23840620.6804
 96  4 21  3 34 30.0000000  0  8G26G23G22G28G 6G17G16G21
 -10078949.04944  -7853716.26444  22101625.2924   22101624.7714
 -21277974.39144 -16580219.66944  20976128.3474   20976128.4494
    -80655.74344    -62848.06944  23361238.8104   23361238.5674
   -732954.052 4   -571132.823 4  24446718.975    24446718.547
 -22520820.17544 -17548672.66944  20872796.6884   20872796.2554
 -23246028.20744 -18113770.02344  20762105.5604   20762105.4114
   2836301.35344                  24975919.8924
  -6242423.39444  -4864220.16344  23823910.0094   23823911.9544
 96  4 21  3 35  0.0000000  0  7G22G28G26G21G23G 6G17
    -81937.71144    -63847.00344  23360994.5734   23360994.1864
   -837470.239 4   -652573.997 4  24426830.101    24426829.346
 -10081734.44444  -7855886.68344  22101095.2364   22101094.9094
  -6330011.17044  -4932470.34144  23807241.4464   23807245.0094
 -21317637.02244 -16611125.59144  20968580.7854   20968580.8324
 -22463726.07444 -17504183.75444  20883661.0024   20883660.7864
 -23264256.36644 -18127973.76244  20758636.7334   20758636.9714
 96  4 21  3 35 30.0000000  0  7G26G22G28G21G23G 6G17
 -10083947.05444  -7857610.76344  22100674.7034   22100674.1844
    -82687.12444    -64430.95444  23360851.6814   23360851.8794
   -941935.509 4   -733975.507 4  24406951.656    24406950.134
  -6417388.40644  -5000556.44944  23790613.1354   23790617.3364
 -21356892.65144 -16641714.36944  20961111.1994   20961111.0284
 -22406170.27044 -17459335.07244  20894613.6784   20894613.2534
 -23282286.95644 -18142023.55344  20755205.4524   20755205.6284
 96  4 21  3 36  0.0000000  0  7G26G23G22G28G 6G17G21
 -10085550.35644  -7858860.07344  22100369.2434   22100368.6874
 -21395717.16444 -16671967.21844  20953722.7144   20953722.8874
    -82899.65344    -64596.54544  23360811.1244   23360811.9904
  -1046317.398 4   -815311.988 4  24387088.616    24387085.804
 -22348114.50644 -17414096.80644  20905661.1934   20905660.7634
 -23300095.42544 -18155900.26344  20751816.5454   20751816.7644
  -6504526.16344  -5068455.94644  23774031.5294   23774035.2344
 96  4 21  3 36 30.0000000  0  8G26G23G22G28G 6G17G16G21
 -10086557.77644  -7859645.05044  22100177.9904   22100176.7024
 -21434133.36944 -16701901.90044  20946412.6144   20946412.4244
    -82603.49444    -64365.76544  23360867.1594   23360868.3194
  -1150633.291 4   -896597.065 4  24367236.938    24367235.565
 -22289582.88444 -17368487.74444  20916799.4784   20916799.0744
 -23317707.63844 -18169624.04744  20748464.9404   20748465.0634
        -0.70254                  25053769.7294
  -6591445.05944  -5136184.88844  23757492.3484   23757493.2354
 96  4 21  3 37  0.0000000  0  7G26G22G28G21G23G 6G17
 -10086984.53344  -7859977.56144  22100096.2034   22100095.3864
    -81816.13844    -63752.23744  23361016.7474   23361018.5924
  -1254890.660 4   -977836.547 4  24347395.841    24347395.598
  -6678157.94044  -5203753.33244  23740993.0984   23740994.6554
 -21472151.14044 -16731526.11044  20939178.0044   20939177.9114
 -22230601.04644 -17322527.86144  20928023.3684   20928022.9474
 -23335136.80844 -18183205.20044  20745148.3384   20745148.6504
 96  4 21  3 37 30.0000000  0  7G26G23G22G28G 6G17G21
 -10086864.32644  -7859883.87044  22100119.1394   22100118.6044
 -21509786.67944 -16760852.48144  20932016.2554   20932016.3984
    -80555.17444    -62769.65744  23361256.4274   23361257.0844
  -1359100.785 4  -1059039.177 4  24327565.892    24327566.519
 -22171175.69944 -17276222.38644  20939331.7034   20939331.2314
 -23352397.59144 -18196655.14244  20741863.7864   20741863.9764
  -6764700.79444  -5271189.28244  23724524.6444   23724525.2344
 96  4 21  3 38  0.0000000  0  8G26G23G22G28G 6G17G16G21
 -10086174.49244  -7859346.30644  22100250.3244   22100249.9294
 -21546991.69244 -16789843.37644  20924936.2474   20924935.9664
    -78797.21044    -61399.78344  23361591.9164   23361592.6904
  -1463237.169 4  -1140184.375 4  24307748.880    24307749.259
 -22111273.10244 -17229545.02944  20950730.8444   20950730.2784
 -23369461.50144 -18209951.67244  20738616.5774   20738616.4524
        -0.90154                  25112120.1714
  -6851057.44744  -5338480.13244  23708091.5964   23708091.2504
 96  4 21  3 38 30.0000000  0  8G26G23G22G28G 6G17G16G21
 -10084919.75044  -7858368.56044  22100489.2444   22100488.6294
 -21583770.07044 -16818501.83144  20917937.6514   20917937.5784
    -76531.54944    -59634.31144  23362023.1554   23362025.2724
  -1567302.810 4  -1221274.455 4  24287944.921    24287946.475
 -22050899.15044 -17182500.38644  20962219.1394   20962218.8224
 -23386343.99444 -18223106.84344  20735403.8414   20735403.7384
    102163.94044                  25131561.4104
  -6937229.53944  -5405627.17144  23691693.5494   23691693.9214
 96  4 21  3 39  0.0000000  0  7G26G22G28G21G23G 6G17
 -10083105.57644  -7856954.90144  22100834.5504   22100833.7464
    -73780.03344    -57490.27644  23362547.4304   23362546.9804
  -1671310.102 4  -1302319.103 4  24268152.663    24268154.989
  -7023234.37544  -5472643.87544  23675327.4744   23675326.9204
 -21620136.55244 -16846839.33044  20911017.1964   20911017.1234
 -21990069.00344 -17135100.26544  20973795.0284   20973794.7204
 -23403052.37444 -18236126.34244  20732224.2644   20732224.5254
 96  4 21  3 39 30.0000000  0  7G 6G26G23G22G28G17G21
 -21928764.46444 -17087330.49244  20985460.8024   20985460.3764
 -10080718.98044  -7855095.19044  22101289.0054   22101287.8944
 -21656093.26444 -16874857.52744  20904174.8924   20904174.9944
    -70526.97144    -54955.40744  23363166.0144   23363166.4024
  -1775243.281 4  -1383305.993 4  24248375.764    24248376.750
 -23419569.93044 -18248997.14544  20729081.1614   20729081.3674
  -7109056.43544  -5539518.16644  23658997.2984   23658994.9334
 96  4 21  3 40  0.0000000  0  8G 6G26G23G22G28G17G16G21
 -21867002.90544 -17039204.59744  20997213.9774   20997213.5234
 -10077754.01844  -7852784.80644  22101852.6974   22101851.8624
 -21691658.52644 -16902570.69744  20897407.1034   20897406.8444
    -66783.16944    -52038.13644  23363878.5614   23363877.8144
  -1879108.729 4  -1464240.079 4  24228612.036    24228611.039
 -23435907.09644 -18261727.38744  20725972.1204   20725972.2174
         0.05054                  25189874.0264
  -7194682.35844  -5606239.63744  23642702.9544   23642700.8664
 96  4 21  3 40 30.0000000  0  7G 6G26G22G28G21G23G17
 -21804779.76644 -16990719.02944  21009054.3954   21009054.0194
 -10074195.43744  -7850011.86344  22102530.3614   22102528.7714
    -62542.07944    -48733.37344  23364685.2514   23364684.0054
  -1982895.524 4  -1545112.890 4  24208861.271    24208861.241
  -7280100.66744  -5672799.32544  23626448.2654   23626446.1894
 -21726827.60744 -16929975.15344  20890714.4674   20890714.4694
 -23452049.16444 -18274305.60244  20722900.4184   20722900.5754
 96  4 21  3 41  0.0000000  0  7G 6G26G22G28G21G23G17
 -21742086.22944 -16941866.91844  21020984.3844   21020983.9724
 -10070043.27744  -7846776.38644  22103320.1474   22103319.3854
    -57793.73644    -45033.36144  23365588.1194   23365589.2774
  -2086590.829 4  -1625914.421 4  24189128.705    24189127.759
  -7365296.18044  -5739185.37444  23610234.4174   23610235.3504
 -21761578.19144 -16957053.50644  20884101.6944   20884101.5744
 -23467963.92044 -18286706.69044  20719871.8384   20719871.9824
 96  4 21  3 41 30.0000000  0  7G 6G26G22G28G21G23G17
 -21678925.56044 -16892650.80944  21033003.8824   21033003.4154
 -10065300.19944  -7843080.45744  22104222.7224   22104221.4194
    -52528.25244    -40930.35444  23366590.7684   23366591.1994
  -2190190.935 4  -1706641.769 4  24169414.385    24169413.038
  -7450269.76144  -5805398.52244  23594064.7724   23594065.7884
 -21795904.46244 -16983801.22544  20877569.5434   20877569.5254
 -23483656.54444 -18298934.69444  20716886.0324   20716886.0074
 96  4 21  3 42  0.0000000  0  7G 6G26G22G28G21G23G17
 -21615317.81844 -16843086.33344  21045108.0244   21045107.4564
 -10059987.84744  -7838940.93644  22105233.4504   22105232.9064
    -46779.88744    -36451.09544  23367684.1204   23367684.8354
  -2293718.902 4  -1787312.890 4  24149714.170    24149713.127
  -7535056.05044  -5871465.69344  23577929.6604   23577930.2394
 -21829800.54044 -17010213.73144  20871119.4194   20871119.2924
 -23499148.55544 -18311006.37344  20713937.7394   20713937.6154
 96  4 21  3 42 30.0000000  0  7G 6G26G22G28G21G23G17
 -21551258.65344 -16793170.09944  21057298.0694   21057297.6964
 -10054102.17444  -7834354.67344  22106353.5774   22106352.9164
    -40538.97444    -31588.04344  23368871.7444   23368873.5564
  -2397159.256 4  -1867915.742 4  24130030.059    24130029.596
  -7619647.72244  -5937381.25444  23561831.9744   23561833.8204
 -21863249.17644 -17036277.58444  20864754.4974   20864754.4414
 -23514421.89944 -18322907.66644  20711031.5784   20711031.2084
 96  4 21  3 43  0.0000000  0  7G 6G26G22G28G21G23G17
 -21486744.93144 -16742899.66244  21069574.2554   21069573.9344
 -10047636.95244  -7829316.80944  22107583.6854   22107582.6174
    -33806.71744    -26342.12144  23370152.9014   23370154.0024
  -2500503.027 4  -1948443.341 4  24110364.583    24110364.952
  -7704044.14544  -6003144.65744  23545772.6644   23545772.8204
 -21896269.61244 -17062007.77344  20858470.7684   20858470.7544
 -23529479.81744 -18334641.09144  20708166.0344   20708166.0564
 96  4 21  3 43 30.0000000  0  7G 6G26G22G28G21G23G17
 -21421776.72944 -16692275.08944  21081937.5834   21081937.2254
 -10040577.59344  -7823815.98344  22108927.5194   22108926.4844
    -26584.83444    -20714.62544  23371527.2584   23371527.7444
  -2603742.791 4  -2028889.894 4  24090717.408    24090719.063
  -7788247.71944  -6068757.80144  23529750.2694   23529750.7554
 -21928869.61144 -17087410.34544  20852266.8234   20852266.8124
 -23544336.86244 -18346217.98844  20705338.7394   20705338.7534
 96  4 21  3 44  0.0000000  0  7G 6G26G22G28G21G23G17
 -21356356.43444 -16641298.23444  21094386.7164   21094386.3054
 -10032921.08844  -7817849.86844  22110383.8024   22110382.7524
    -18878.48244    -14709.62844  23372994.1844   23372993.7854
  -2706873.300 4  -2109251.344 4  24071091.653    24071093.170
  -7872236.17844  -6134203.32544  23513767.1294   23513768.5844
 -21961058.91144 -17112492.89844  20846141.8174   20846141.5114
 -23558991.46744 -18357637.14844  20702549.8384   20702549.9274
 96  4 21  3 44 30.0000000  0  7G 6G26G22G28G21G23G17
 -21290477.26044 -16589963.80944  21106923.2384   21106922.4974
 -10024654.25444  -7811408.13944  22111957.0194   22111955.8764
    -10656.04344     -8302.65444  23374558.7204   23374558.3414
  -2809877.939 4  -2189514.672 4  24051491.366    24051490.526
  -7955980.57744  -6199458.64844  23497829.6844   23497832.3354
 -21992851.60844 -17137266.40644  20840091.6664   20840091.4574
 -23573440.30444 -18368895.96844  20699800.2424   20699800.1704
 96  4 21  3 45  0.0000000  0  7G 6G26G22G28G21G23G17
 -21224155.71944 -16538284.68044  21119543.5784   21119543.0424
 -10015799.86144  -7804508.59144  22113641.7184   22113641.3594
     -1928.59344     -1502.01044  23376219.3574   23376219.7974
  -2912774.433 4  -2269693.725 4  24031911.091    24031909.512
  -8039495.32344  -6264535.01544  23481937.9314   23481939.7194
 -22024261.03544 -17161741.26844  20834114.6234   20834114.3384
 -23587706.07144 -18380012.13644  20697085.7464   20697085.6094
 96  4 21  3 45 30.0000000  0  7G 6G22G28G26G21G23G17
 -21157405.03344 -16486271.15444  21132245.4174   21132245.1154
      7302.88344      5691.34044  23377975.5094   23377975.4584
  -3015565.414 4  -2349790.569 4  24012350.037    24012349.500
 -10006358.82144  -7797151.91844  22115438.6964   22115438.0954
  -8122766.76044  -6329421.81944  23466092.7424   23466092.3614
 -22055271.80444 -17185905.48144  20828213.6504   20828213.4054
 -23601784.04244 -18390981.97044  20694406.8034   20694406.8764
 96  4 21  3 46  0.0000000  0  7G 6G26G22G28G21G23G17
 -21090240.31744 -16433935.00044  21145026.8684   21145026.2704
  -9996354.95644  -7789356.68744  22117342.7064   22117341.7054
     17018.03844     13261.60944  23379825.0204   23379825.1854
  -3118270.102 4  -2429820.178 4  23992806.202    23992804.944
  -8205815.68244  -6394135.22144  23450289.1944   23450290.5004
 -22085906.96644 -17209777.01444  20822383.8954   20822383.5414
 -23615678.50344 -18401808.80444  20691762.7604   20691762.5794
 96  4 21  3 46 30.0000000  0  7G 6G22G28G26G21G23G17
 -21022656.74644 -16381272.46944  21157887.5204   21157887.3164
     27220.28044     21211.42944  23381766.1724   23381767.1584
  -3220885.670 4  -2509780.311 4  23973279.566    23973277.936
  -9985782.21044  -7781118.14644  22119354.6314   22119353.7424
  -8288653.85844  -6458684.41144  23434525.4914   23434526.2784
 -22116154.78644 -17233346.72744  20816627.8944   20816627.4344
 -23629375.63344 -18412481.87644  20689156.5554   20689156.2924
 96  4 21  3 47  0.0000000  0  7G 6G22G28G26G21G23G17
 -20954630.88744 -16328265.30244  21170832.4244   21170831.8954
     37922.23544     29550.62444  23383802.0794   23383803.1084
  -3323382.724 4  -2589648.130 4  23953775.029    23953774.471
  -9974605.58344  -7772409.06844  22121481.0134   22121480.2554
  -8371261.24344  -6523053.78044  23418805.9644   23418805.7514
 -22145983.56644 -17256589.91544  20810951.7304   20810951.6374
 -23642845.65744 -18422977.98044  20686593.0724   20686593.1724
 96  4 21  3 47 30.0000000  0  7G 6G22G28G26G21G23G17
 -20886179.21444 -16274926.33544  21183858.3834   21183858.1844
     49096.39144     38257.74844  23385928.8424   23385930.9294
  -3425783.275 4  -2669440.701 4  23934289.159    23934288.836
  -9962853.79644  -7763251.80644  22123717.6694   22123717.0694
  -8453668.17744  -6587266.95344  23403123.1014   23403123.2154
 -22175416.79544 -17279524.87944  20805350.7874   20805350.5764
 -23656117.89344 -18433319.96844  20684067.2124   20684067.0514
 96  4 21  3 48  0.0000000  0  7G 6G22G28G26G21G23G17
 -20817284.83744 -16221242.40144  21196968.5614   21196967.8664
     60755.39344     47342.70244  23388147.2134   23388147.9904
  -3528076.992 4  -2749150.037 4  23914822.958    23914823.395
  -9950528.59544  -7753647.72744  22126063.0034   22126061.8204
  -8535874.33144  -6651323.65744  23387479.8244   23387481.3834
 -22204447.02244 -17302145.81844  20799826.4324   20799826.2674
 -23669197.83544 -18443512.11244  20681578.3644   20681578.3694
 96  4 21  3 48 30.0000000  0  7G 6G22G28G26G21G23G17
 -20747960.15144 -16167223.16544  21210160.4394   21210160.0724
     72897.65444     56804.21644  23390458.6994   23390458.3464
  -3630269.514 4  -2828780.502 4  23895376.331    23895376.619
  -9937642.37944  -7743606.51244  22128514.8494   22128514.1674
  -8617877.80444  -6715222.44644  23371876.1554   23371876.4574
 -22233076.44344 -17324454.43644  20794378.2114   20794378.0854
 -23682118.86844 -18453580.42844  20679119.6214   20679119.3044
 96  4 21  3 49  0.0000000  0  7G 6G22G28G26G21G23G17
 -20678185.19844 -16112853.06844  21223437.9784   21223437.8474
     85539.27444     66654.82144  23392864.6004   23392863.5564
  -3732342.131 4  -2908317.562 4  23875952.048    23875952.928
  -9924184.10444  -7733119.52244  22131075.7444   22131074.5954
  -8699660.81544  -6778949.43644  23356313.8834   23356313.1224
 -22261292.58144 -17346441.01844  20789009.0184   20789008.7874
 -23694874.76644 -18463520.06844  20676692.2324   20676692.2344
 96  4 21  3 49 30.0000000  0  7G 6G22G28G26G21G23G17
 -20607954.52844 -16058127.86744  21236802.5544   21236802.3054
     98674.78744     76890.29544  23395363.7334   23395364.2294
  -3834288.527 4  -2987756.290 4  23856552.931    23856552.475
  -9910154.22644  -7722187.13444  22133745.2414   22133744.8604
  -8781212.35744  -6842496.07144  23340795.1144   23340794.0294
 -22289087.14944 -17368099.10044  20783719.7264   20783719.4264
 -23707455.30044 -18473323.06244  20674298.0404   20674297.8614
 96  4 21  3 50  0.0000000  0  7G 6G22G28G26G21G23G17
 -20537293.56244 -16003067.37244  21250249.2214   21250248.6094
    112275.44144     87488.23044  23397951.7494   23397952.8244
  -3936125.885 4  -3067109.997 4  23837174.013    23837173.204
  -9895553.77544  -7710810.14144  22136524.1274   22136523.1994
  -8862554.14644  -6905879.26044  23325315.6454   23325315.0574
 -22316484.07744 -17389447.33644  20778506.4084   20778506.4244
 -23719877.02444 -18483002.30844  20671934.3454   20671934.1394
 96  4 21  3 50 30.0000000  0  7G 6G22G28G26G21G23G17
 -20466205.01944 -15947673.69744  21263776.8164   21263776.2044
    126333.47044     98442.53744  23400626.9204   23400627.1354
  -4037845.975 4  -3146372.368 4  23817816.366    23817816.519
  -9880375.97944  -7698983.26144  22139411.8334   22139411.3884
  -8943684.10944  -6969097.38644  23309877.2914   23309877.7974
 -22343478.40844 -17410481.85644  20773369.3474   20773368.9454
 -23732115.35544 -18492538.64444  20669605.4974   20669605.5534
 96  4 21  3 51  0.0000000  0  7G 6G22G28G26G21G23G17
 -20394684.71644 -15891943.58944  21277386.3854   21277385.9694
    140841.46244    109747.46644  23403387.3404   23403388.8274
  -4139441.552 4  -3225537.718 4  23798484.083    23798482.946
  -9864618.73244  -7686704.86544  22142411.1884   22142410.3514
  -9024606.61744  -7032153.85744  23294477.9494   23294477.6804
 -22370066.96344 -17431200.19444  20768309.7564   20768309.5424
 -23744134.54544 -18501904.22844  20667318.2664   20667318.1284
 96  4 21  3 51 30.0000000  0  7G22G28G 6G26G21G23G17
    155791.90744    121397.15744  23406232.3294   23406233.0734
  -4240922.782 4  -3304613.948 4  23779172.090    23779172.014
 -20322757.42044 -15835896.34244  21291073.8654   21291073.3004
  -9848295.11844  -7673985.14844  22145517.1934   22145516.1554
  -9105341.74644  -7095064.32144  23279114.5964   23279115.3324
 -22396261.39244 -17451611.41844  20763325.3654   20763324.7914
 -23755944.50544 -18511106.77344  20665070.7574   20665070.8414
 96  4 21  3 52  0.0000000  0  7G22G28G 6G26G21G23G17
    171218.18544    133417.65844  23409167.5954   23409168.7844
  -4342274.216 4  -3383589.055 4  23759885.557    23759885.230
 -20250414.26544 -15779525.04944  21304840.4274   21304839.8734
  -9831391.90544  -7660813.79844  22148733.5964   22148732.9714
  -9185887.40144  -7157827.12944  23263787.2284   23263788.8914
 -22422057.68144 -17471712.40544  20758416.2824   20758416.1214
 -23767523.89644 -18520129.65344  20662867.3284   20662867.3804
 96  4 21  3 52 30.0000000  0  7G22G28G 6G26G21G23G17
    187135.12344    145820.46244  23412196.4754   23412197.5504
  -4443489.946 4  -3462458.407 4  23740624.723    23740625.433
 -20177658.26544 -15722832.06044  21318685.4464   21318684.9024
  -9813920.04844  -7647199.33444  22152058.2554   22152057.1534
  -9266224.89444  -7220427.75444  23248498.8784   23248499.3734
 -22447455.64844 -17491503.01244  20753583.4514   20753582.9614
 -23778860.24444 -18528963.15244  20660710.2384   20660710.1964
 96  4 21  3 53  0.0000000  0  7G22G28G 6G26G21G23G17
    203556.38844    158616.25844  23415321.4174   23415322.8214
  -4544557.537 4  -3541212.312 4  23721392.818    23721393.218
 -20104475.66844 -15665806.65544  21332611.6594   21332611.0384
  -9795861.27344  -7633127.55144  22155494.8624   22155493.8004
  -9346338.81944  -7282854.16544  23233253.4194   23233254.7424
 -22472448.81644 -17510978.18544  20748827.1394   20748827.2224
 -23789954.59544 -18537608.08444  20658599.1444   20658598.8804
 96  4 21  3 53 30.0000000  0  7G22G28G 6G26G21G23G17
    220496.16644    171816.09744  23418544.9794   23418547.0364
  -4645464.360 4  -3619840.961 4  23702189.890    23702190.525
 -20030859.68644 -15608443.55044  21346620.3844   21346619.8124
  -9777196.77044  -7618583.76844  22159046.4404   22159045.4844
  -9426210.39344  -7345091.71444  23218054.2004   23218055.9864
 -22497035.73044 -17530136.80044  20744148.3524   20744148.1304
 -23800812.61144 -18546068.85644  20656532.9174   20656532.7994
 96  4 21  3 54  0.0000000  0  7G22G28G 6G26G21G23G17
    237934.05444    185404.06444  23421863.5664   23421864.9734
  -4746215.497 4  -3698348.290 4  23683017.484    23683018.087
 -19956806.36244 -15550739.65644  21360711.8764   21360711.3924
  -9757934.31844  -7603574.03844  22162712.1734   22162710.9494
  -9505829.32944  -7407132.42444  23202904.0974   23202904.4904
 -22521224.04044 -17548984.81844  20739545.2924   20739545.0994
 -23811443.27744 -18554352.47344  20654509.7574   20654509.5314
 96  4 21  3 54 30.0000000  0  7G22G28G 6G26G21G23G17
    255843.10944    199359.18344  23425270.4004   23425272.0984
  -4846805.641 4  -3776730.175 4  23663876.475    23663877.436
 -19882304.42944 -15492686.20344  21374889.3144   21374888.8314
  -9738075.06944  -7588099.27944  22166491.1104   22166490.4994
  -9585189.51044  -7468971.49744  23187802.6634   23187803.2504
 -22544998.11244 -17567510.04944  20735021.1984   20735020.9344
 -23821859.71544 -18562469.16344  20652527.4704   20652527.2544
 96  4 21  3 55  0.0000000  0  7G22G28G 6G26G21G23G17
    274197.05144    213660.96544  23428763.5124   23428764.8014
  -4947237.242 4  -3854988.492 4  23644765.603    23644764.817
 -19807354.27944 -15434283.48744  21389151.7864   21389151.3154
  -9717619.64044  -7572159.96644  22170383.7274   22170382.6494
  -9664314.52944  -7530627.33544  23172745.3054   23172745.6034
 -22568372.09644 -17585723.52444  20730573.3354   20730573.0644
 -23832083.85644 -18570436.00944  20650581.9834   20650581.8124
 96  4 21  3 55 30.0000000  0  7G22G28G 6G26G21G23G17
    292987.66744    228303.01244  23432340.2084   23432341.0634
  -5047510.912 4  -3933123.738 4  23625683.967    23625682.912
 -19731962.85644 -15375536.92644  21403498.2814   21403497.7554
  -9696571.25444  -7555758.60244  22174388.7824   22174388.1124
  -9743217.52744  -7592110.16944  23157730.4864   23157732.0204
 -22591342.53444 -17603622.54844  20726202.3864   20726201.8364
 -23842114.70244 -18578252.23844  20648673.5134   20648672.9754
 96  4 21  3 56  0.0000000  0  7G22G28G 6G26G21G23G17
    312185.47744    243262.36744  23435993.6274   23435994.4194
  -5147641.154 4  -4011147.253 4  23606628.990    23606629.065
 -19656154.81244 -15316465.71744  21417923.9704   21417923.3494
  -9674958.16544  -7538917.21644  22178501.9754   22178501.1154
  -9821917.21144  -7653434.55644  23142754.1284   23142755.6124
 -22613912.20944 -17621209.28644  20721907.5074   20721907.1264
 -23851965.74344 -18585928.35844  20646798.9044   20646798.4024
 96  4 21  3 56 30.0000000  0  7G22G28G 6G26G23G17G21
    331789.59444    258538.30244  23439724.1764   23439724.6484
  -5247632.396 4  -4089062.458 4  23587602.145    23587601.350
 -19579953.28444 -15257087.90144  21432424.9554   21432424.3494
  -9652788.42044  -7521642.07744  22182720.5234   22182719.3084
 -22636085.63444 -17638487.26644  20717688.0464   20717687.7054
 -23861637.30844 -18593464.62444  20644958.2754   20644957.9954
  -9900421.47044  -7714606.66244  23127815.3274   23127817.1044
 96  4 21  3 57  0.0000000  0  7G22G28G 6G26G23G17G21
    351846.72444    274167.23144  23443539.8914   23443540.2304
  -5347463.819 4  -4166853.110 4  23568604.533    23568603.940
 -19503349.30844 -15197396.48244  21447002.2164   21447002.0594
  -9630042.34644  -7503917.84344  22187049.0884   22187048.2664
 -22657846.99844 -17655444.15544  20713546.9624   20713546.6404
 -23871099.12144 -18600837.44944  20643157.8034   20643157.3274
  -9978698.59144  -7775601.80744  23112919.7934   23112920.9704
 96  4 21  3 57 30.0000000  0  7G22G28G 6G26G23G17G21
    372379.22144    290166.59144  23447447.7004   23447448.7654
  -5447138.384 4  -4244521.536 4  23549636.580    23549636.688
 -19426358.25744 -15137403.45744  21461653.0024   21461652.5184
  -9606734.34744  -7485755.73844  22191484.3674   22191482.9084
 -22679178.08944 -17672065.76744  20709487.7824   20709487.4434
 -23880341.81644 -18608039.53744  20641398.9914   20641398.6734
 -10056728.23844  -7836404.09644  23098070.8734   23098071.9504
 96  4 21  3 58  0.0000000  0  7G22G28G 6G26G23G17G21
    393404.11744    306549.62744  23451448.4984   23451448.7994
  -5546648.660 4  -4322061.944 4  23530699.609    23530700.880
 -19348969.32244 -15077100.39344  21476379.5454   21476379.0654
  -9582874.01544  -7467163.25544  22196024.6744   22196023.6144
 -22700080.64944 -17688353.45744  20705510.1454   20705509.7624
 -23889367.79344 -18615072.74844  20639681.1724   20639680.7554
 -10134479.72444  -7896989.64444  23083275.7534   23083275.6304
 96  4 21  3 58 30.0000000  0  7G22G28G 6G23G26G17G21
    414947.80944    323336.93244  23455547.7214   23455549.6434
  -5645979.000 4  -4399462.181 4  23511797.751    23511798.551
 -19271159.80644 -15016469.60444  21491186.2644   21491185.5864
 -22720550.74744 -17704304.16344  20701614.6874   20701614.3874
  -9558443.15644  -7448126.21044  22200674.0484   22200673.2964
 -23898168.80044 -18621930.65844  20638006.5504   20638006.1284
 -10211934.32644  -7957343.85144  23068536.7364   23068537.1884
 96  4 21  3 59  0.0000000  0  7G22G28G 6G26G23G17G21
    437008.37244    340526.99544  23459746.3154   23459747.9484
  -5745127.839 4  -4476720.942 4  23492930.689    23492930.988
 -19192918.95944 -14955502.70844  21506075.0314   21506074.1064
  -9533438.41344  -7428641.97344  22205432.2834   22205430.9524
 -22740599.22844 -17719926.33644  20697799.4824   20697799.0994
 -23906752.80544 -18628619.47844  20636373.1704   20636372.6254
 -10289106.08444  -8017477.65844  23053851.0334   23053851.3184
 96  4 21  3 59 30.0000000  0  7G22G28G 6G26G23G17G21
    459553.77044    358094.84144  23464036.5024   23464036.9634
  -5844106.072 4  -4553846.774 4  23474095.914    23474096.606
 -19114255.30244 -14894206.35444  21521044.1194   21521043.4804
  -9507869.43544  -7408718.06744  22210297.2274   22210296.0314
 -22760260.97744 -17735247.16144  20694058.0544   20694057.9294
 -23915145.01344 -18635158.84644  20634775.9484   20634775.5154
 -10366025.24244  -8077414.63144  23039213.8694   23039214.7024
 96  4 21  4  0  0.0000000  0  7G22G28G 6G26G23G17G21
    482572.44344    376031.48744  23468416.6084   23468417.4254
  -5942902.632 4  -4630831.051 4  23455294.962    23455296.018
 -19035153.77244 -14832568.79044  21536096.6564   21536096.1484
  -9481712.31144  -7388335.88144  22215275.4574   22215274.4884
 -22779554.86244 -17750281.33544  20690386.5114   20690386.1684
 -23923339.60644 -18641544.22344  20633216.4304   20633216.1094
 -10442709.59444  -8137168.64844  23024621.7054   23024621.6344
 96  4 21  4  0 30.0000000  0  7G22G28G 6G23G26G17G21
    506051.05144    394326.50444  23472885.2574   23472885.8554
  -6041518.796 4  -4707674.760 4  23436528.956    23436529.426
 -18955627.77044 -14770600.48044  21551229.9634   21551228.9474
 -22798489.49044 -17765035.57344  20686783.6184   20686783.1294
  -9454955.84244  -7367486.66944  22220367.2174   22220365.7214
 -23931326.11144 -18647767.45644  20631696.8354   20631696.5174
 -10519187.27144  -8196761.61544  23010068.3604   23010068.0904
 96  4 21  4  1  0.0000000  0  7G22G28G 6G26G23G17G21
    529959.88644    412956.76744  23477434.6444   23477435.2294
  -6139967.561 4  -4784388.028 4  23417794.461    23417795.989
 -18875701.40244 -14708320.19344  21566439.5974   21566439.2554
  -9427613.64844  -7346181.04744  22225569.6014   22225568.2864
 -22817084.28144 -17779525.00344  20683245.0194   20683244.6464
 -23939116.97044 -18653838.23844  20630214.0634   20630213.6734
 -10595481.20944  -8256211.42844  22995550.0254   22995551.1634
 96  4 21  4  1 30.0000000  0  7G22G28G 6G26G23G17G21
    554277.41144    431905.49144  23482061.9814   23482061.5624
  -6238261.336 4  -4860980.536 4  23399090.023    23399091.319
 -18795402.39144 -14645749.53544  21581719.9744   21581719.3834
  -9399709.80644  -7324437.77944  22230880.1154   22230878.7004
 -22835340.89044 -17793750.91044  20679770.9324   20679770.5464
 -23946715.38144 -18659759.06244  20628768.2894   20628768.0114
 -10671589.47244  -8315516.52744  22981066.6474   22981067.4194
 96  4 21  4  2  0.0000000  0  7G22G28G 6G23G26G17G21
    578996.75544    451167.33444  23486766.1174   23486766.5734
  -6336399.604 4  -4937451.845 4  23380415.439    23380415.599
 -18714742.92144 -14582897.99944  21597068.8054   21597068.2714
 -22853234.27744 -17807693.79344  20676366.0214   20676365.5194
  -9371255.40444  -7302265.50544  22236293.8074   22236293.4574
 -23954121.33344 -18665529.91444  20627359.0424   20627358.8394
 -10747500.28544  -8374667.78744  22966621.4544   22966621.3904
 96  4 21  4  2 30.0000000  0  7G22G28G 6G23G26G17G21
    604131.50544    470752.86344  23491549.3284   23491548.9614
  -6434360.802 4  -5013785.178 4  23361773.832    23361774.335
 -18633709.44344 -14519755.02744  21612488.9994   21612487.7944
 -22870725.13244 -17821323.01444  20673037.4634   20673037.0494
  -9342244.50044  -7279659.58244  22241815.4714   22241814.2364
 -23961317.50644 -18671137.30044  20625989.3554   20625989.2824
 -10823178.02444  -8433637.41744  22952220.3534   22952220.8754
 96  4 21  4  3  0.0000000  0  7G22G28G 6G23G26G17G21
    629678.36044    490659.49844  23496410.3224   23496410.2174
  -6532149.017 4  -5089983.746 4  23343165.116    23343165.677
 -18552315.65544 -14456331.28944  21627978.0154   21627977.3384
 -22887806.85144 -17834633.42544  20669786.9124   20669786.5664
  -9312691.88144  -7256631.55444  22247438.6034   22247438.0474
 -23968321.80044 -18676595.17844  20624656.3234   20624656.3054
 -10898622.32244  -8492425.15744  22937863.1934   22937863.9434
 96  4 21  4  3 30.0000000  0  7G22G28G 6G23G26G17G21
    655658.41444    510903.71844  23501354.0474   23501354.3014
  -6629750.383 4  -5166036.700 4  23324592.748    23324592.113
 -18470553.28444 -14392620.35744  21643536.7074   21643536.1894
 -22904465.27644 -17847613.99944  20666616.8394   20666616.5264
  -9282588.82244  -7233174.61144  22253167.2094   22253165.9474
 -23975122.80344 -18681894.64444  20623362.4884   20623362.3474
 -10973817.57344  -8551018.82144  22923554.4174   22923554.9704
 96  4 21  4  4  0.0000000  0  7G22G28G 6G23G26G17G21
    682087.26144    531497.63744  23506383.2024   23506383.9554
  -6727148.302 4  -5241931.108 4  23306058.547    23306058.173
 -18388403.01244 -14328607.15844  21659169.1474   21659168.7294
 -22920687.62044 -17860254.76844  20663529.8574   20663529.5764
  -9251915.00044  -7209272.92044  22259003.8184   22259003.1984
 -23981709.36744 -18687027.01544  20622108.9514   20622108.7134
 -11048764.44144  -8609418.94644  22909292.5334   22909293.2994
 96  4 21  4  4 30.0000000  0  7G22G28G 6G23G26G17G21
    708971.06044    552446.06444  23511499.0144   23511499.3614
  -6824338.553 4  -5317663.723 4  23287562.928    23287563.599
 -18305860.82744 -14264288.58044  21674876.8364   21674876.2094
 -22936487.81344 -17872566.59344  20660523.1314   20660522.4174
  -9220661.38744  -7184919.44944  22264951.5524   22264950.7224
 -23988064.69644 -18691979.19844  20620899.5094   20620899.4074
 -11123464.88244  -8667627.05044  22895077.8514   22895078.3014
 96  4 21  4  5  0.0000000  0  7G22G28G23G 6G26G17G21
    736313.61944    573751.95144  23516702.5844   23516701.7074
  -6921315.784 4  -5393230.370 4  23269108.899    23269109.471
 -22951875.85244 -17884557.25444  20657594.7664   20657594.3884
 -18222926.75344 -14199664.61944  21690658.4604   21690657.9424
  -9188821.42144  -7160109.06844  22271010.0904   22271009.3114
 -23994186.07444 -18696749.08744  20619734.2924   20619734.1674
 -11197924.17644  -8725647.25244  22880908.8274   22880909.0634
 96  4 21  4  5 30.0000000  0  7G22G28G 6G23G26G17G21
    764112.65744    595413.54844  23521991.8054   23521992.8184
  -7018069.162 4  -5468622.544 4  23250697.343    23250697.446
 -18139577.40844 -14134717.08944  21706519.2204   21706518.7504
 -22966861.08044 -17896234.03744  20654743.3584   20654742.9404
  -9156392.16544  -7134839.50244  22277181.1234   22277180.7804
 -24000060.05444 -18701326.19944  20618616.9474   20618616.9024
 -11272132.33344  -8783471.75844  22866787.3894   22866786.9804
 96  4 21  4  6  0.0000000  0  7G22G28G23G 6G26G17G21
    792345.89744    617413.50944  23527365.3814   23527364.8654
  -7114607.569 4  -5543847.203 4  23232326.640    23232327.165
 -22981465.57444 -17907614.14344  20651964.0744   20651963.6794
 -18055822.24844 -14069453.33144  21722457.0214   21722456.5734
  -9123384.89644  -7109119.53844  22283462.1454   22283461.6604
 -24005702.47544 -18705722.87644  20617543.1704   20617542.8224
 -11346102.58644  -8841110.88644  22852711.3684   22852711.7974
 96  4 21  4  6 30.0000000  0  7G22G28G23G 6G26G17G21
    821023.51844    639759.68544  23532822.1124   23532821.6134
  -7210912.054 4  -5618889.593 4  23214000.103    23214000.777
 -22995694.71144 -17918701.76644  20649256.6474   20649256.0564
 -17971654.42344 -14003868.01544  21738473.9554   21738473.4984
  -9089786.64244  -7082939.07044  22289856.2944   22289855.4784
 -24011109.66244 -18709936.25344  20616514.1964   20616513.7824
 -11419802.08244  -8898539.03144  22838687.0844   22838687.0534
 96  4 21  4  7  0.0000000  0  7G22G28G23G 6G26G17G21
    850112.94044    662426.77844  23538357.5234   23538357.8794
  -7307003.818 4  -5693766.235 4  23195713.987    23195715.127
 -23009573.43444 -17929516.33844  20646615.5144   20646614.8974
 -17887098.26844 -13937980.10444  21754564.1134   21754563.7504
  -9055635.71444  -7056327.94244  22296354.4654   22296353.3424
 -24016314.14144 -18713991.67444  20615523.6794   20615523.3424
 -11493249.06744  -8955770.42544  22824709.7184   22824710.1774
 96  4 21  4  7 30.0000000  0  7G22G28G23G 6G26G17G21
    879605.11444    685407.69344  23543968.8474   23543970.1914
  -7402891.406 4  -5768483.796 4  23177468.171    23177468.600
 -23023111.18344 -17940065.21544  20644039.0574   20644038.9214
 -17802161.61344 -13871795.70244  21770727.2514   21770726.8404
  -9020948.56644  -7029298.97344  22302955.1344   22302954.5474
 -24021322.38244 -18717894.18444  20614570.9044   20614570.5984
 -11566441.75744  -9012803.65644  22810782.1174   22810782.0314
 96  4 21  4  8  0.0000000  0  7G22G28G23G 6G26G17G21
    909511.26044    708711.19944  23549660.0714   23549661.3124
  -7498565.350 4  -5843034.843 4  23159263.069    23159262.169
 -23036299.71944 -17950341.98544  20641529.5464   20641529.1454
 -17716850.26544 -13805319.33544  21786961.5214   21786960.9374
  -8985721.96544  -7001849.66844  22309658.6574   22309657.2294
 -24026127.22944 -18721638.20544  20613656.6784   20613656.3144
 -11639375.26244  -9069634.92644  22796903.5774   22796903.3234
 96  4 21  4  8 30.0000000  0  7G22G28G23G 6G26G17G21
    939813.93444    732323.66744  23555426.3624   23555427.2734
  -7594047.239 4  -5917436.249 4  23141092.405    23141092.207
 -23049154.56944 -17960358.73044  20639083.4944   20639083.0314
 -17631192.33444 -13738572.89344  21803261.7644   21803261.3264
  -8949985.66944  -6974003.18744  22316459.4174   22316458.2124
 -24030736.59444 -18725229.90244  20612779.3034   20612778.9414
 -11712077.04144  -9126285.63144  22783068.7224   22783068.8974
 96  4 21  4  9  0.0000000  0  7G22G23G28G 6G26G17G21
    970524.26944    756253.81644  23561270.9184   23561271.7274
 -23061653.58344 -17970098.20344  20636704.7854   20636704.3984
  -7689330.241 4  -5991682.710 4  23122959.774    23122960.679
 -17545174.92644 -13671546.34644  21819630.5344   21819629.5814
  -8913736.17544  -6945756.81344  22323357.2184   22323356.4674
 -24035135.89244 -18728657.91344  20611942.3994   20611942.0384
 -11784553.21244  -9182760.54044  22769276.6534   22769276.5404
 96  4 21  4  9 30.0000000  0  7G22G23G28G 6G26G17G21
   1001670.83244    780523.85444  23567197.8764   23567198.2434
 -23073778.32744 -17979546.03344  20634397.5064   20634396.9714
  -7784397.196 4  -6065760.823 4  23104869.967    23104870.213
 -17458787.32844 -13604231.33444  21836069.2954   21836068.6484
  -8876943.27644  -6917086.99944  22330358.8874   22330357.7974
 -24039313.95944 -18731913.53244  20611147.0454   20611146.9994
 -11856798.13044  -9239055.24444  22755528.4434   22755528.8064
 96  4 21  4 10  0.0000000  0  7G22G23G28G 6G26G17G21
   1033240.07944    805123.26744  23573205.6824   23573206.2974
 -23085538.52644 -17988709.80444  20632159.6184   20632159.1984
  -7879253.382 4  -6139674.674 4  23086819.408    23086819.418
 -17372044.17044 -13536639.26044  21852576.2174   21852575.7024
  -8839606.31144  -6887993.25044  22337463.9434   22337462.6414
 -24043272.66944 -18734998.22644  20610393.5514   20610393.3014
 -11928823.02344  -9295178.51444  22741823.3634   22741823.5924
 96  4 21  4 10 30.0000000  0  7G22G23G28G 6G26G17G21
   1065225.68144    830047.09744  23579291.4864   23579291.9974
 -23096912.14244 -17997572.34544  20629995.4584   20629994.8944
  -7973892.158 4  -6213419.104 4  23068809.456    23068810.292
 -17284943.57344 -13468768.66344  21869150.6424   21869149.8734
  -8801718.08744  -6858469.94844  22344673.7024   22344672.4714
 -24047006.19644 -18737907.45544  20609683.1674   20609682.9944
 -12000607.85544  -9351114.71144  22728163.2594   22728164.0164
 96  4 21  4 11  0.0000000  0  7G22G23G28G 6G26G17G21
   1097611.20744    855282.57444  23585454.9564   23585454.4064
 -23107893.25144 -18006129.04044  20627905.6674   20627905.2234
  -8068310.175 4  -6286991.540 4  23050842.016    23050843.375
 -17197490.41944 -13400623.34244  21885792.2124   21885791.8624
  -8763273.67844  -6828513.24744  22351989.2164   22351988.6254
 -24050535.17944 -18740657.29744  20609011.6674   20609011.6904
 -12072148.27044  -9406860.45844  22714549.1574   22714549.9494
 96  4 21  4 11 30.0000000  0  7G22G23G28G 6G26G17G21
   1130393.98144    880827.62144  23591692.5774   23591693.2524
 -23118476.26644 -18014375.53344  20625891.6824   20625891.2744
  -8162498.562 4  -6360385.056 4  23032918.861    23032919.579
 -17109694.43644 -13332210.88744  21902499.0474   21902498.5454
  -8724271.35944  -6798121.81444  22359411.5474   22359409.9874
 -24053856.54444 -18743245.36044  20608379.4244   20608379.3264
 -12143428.73544  -9462403.64844  22700984.9814   22700985.7534
 96  4 21  4 12  0.0000000  0  7G23G22G28G 6G26G17G21
 -23128628.34344 -18022286.22344  20623959.8934   20623959.4164
   1163584.85844    906690.64944  23598009.2244   23598009.9094
  -8256431.285 4  -6433579.322 4  23015044.361    23015044.916
 -17021547.79544 -13263525.19044  21919273.3464   21919272.6414
  -8684698.07844  -6767285.47144  22366941.6514   22366940.9514
 -24056947.55444 -18745653.92444  20607791.5354   20607791.1394
 -12214423.63344  -9517724.31044  22687475.2194   22687474.6764
 96  4 21  4 12 30.0000000  0  7G22G23G28G 6G26G17G21
   1197176.37744    932865.87144  23604401.1104   23604401.7434
 -23138349.43144 -18029861.08244  20622109.8794   20622109.6344
  -8350116.236 4  -6506580.542 4  22997216.515    22997217.360
 -16933063.58744 -13194576.46444  21936111.0354   21936110.5734
  -8644571.92044  -6736018.32144  22374577.1794   22374576.8504
 -24059831.74044 -18747901.32644  20607242.4884   20607242.1754
 -12285156.68044  -9572840.95744  22674014.5204   22674015.0334
 96  4 21  4 13  0.0000000  0  7G22G23G28G 6G26G17G21
   1231180.70644    959362.76544  23610872.2914   23610873.5944
 -23147655.19344 -18037112.31244  20620339.2474   20620338.6384
  -8443548.156 4  -6579384.610 4  22979436.736    22979437.700
 -16844232.21544 -13125357.20644  21953015.2794   21953014.8674
  -8603886.21144  -6704315.15144  22382318.8714   22382318.4174
 -24062505.82144 -18749985.01044  20606733.8564   20606733.4464
 -12355639.66444  -9627762.72044  22660602.0414   22660602.7884
 96  4 21  4 13 30.0000000  0  7G22G23G28G 6G26G17G21
   1265623.89844    986201.61244  23617426.4314   23617427.3464
 -23156553.43844 -18044045.99044  20618645.7334   20618645.2624
  -8536714.762 4  -6651981.914 4  22961707.970    22961708.736
 -16755036.60344 -13055854.14544  21969988.4764   21969988.4874
  -8562640.70144  -6672175.77744  22390168.0504   22390168.4604
 -24064938.13944 -18751880.30844  20606271.0274   20606270.8114
 -12425862.86244  -9682482.07244  22647239.1304   22647239.5034
 96  4 21  4 14  0.0000000  0  7G22G23G28G 6G26G17G21
   1300508.57744   1013384.48144  23624064.9174   23624065.1414
 -23165049.03744 -18050665.92644  20617029.0974   20617028.6054
  -8629606.784 4  -6724365.250 4  22944031.404    22944032.101
 -16665452.28244 -12986048.18744  21987035.8464   21987035.8694
  -8520819.91844  -6639588.13344  22398126.7284   22398125.7264
 -24067118.27644 -18753579.09844  20605856.0784   20605855.8454
 -12495823.39144  -9736996.73844  22633926.3254   22633926.4804
 96  4 21  4 14 30.0000000  0  7G22G23G28G 6G26G17G21
   1335831.70044   1040908.99044  23630786.6074   23630787.9184
 -23173165.45044 -18056990.38344  20615484.6944   20615484.1964
  -8722222.741 4  -6796533.480 4  22926406.494    22926407.629
 -16575454.54144 -12915920.07944  22004162.0574   22004161.4884
  -8478416.86144  -6606546.78544  22406195.9434   22406194.7694
 -24069037.74144 -18755074.77144  20605490.5474   20605490.4044
 -12565518.12144  -9791304.29144  22620663.6244   22620663.5644
 96  4 21  4 15  0.0000000  0  7G22G23G28G 6G26G17G21
   1371548.91244   1068740.57344  23637583.8174   23637584.8414
 -23180951.83944 -18063057.68744  20614002.9884   20614002.5724
  -8814593.989 4  -6868511.042 4  22908828.703    22908829.903
 -16485081.39644 -12845499.45244  22021359.7094   22021358.6744
  -8435465.20144  -6573077.95044  22414368.9574   22414367.6164
 -24070722.68644 -18756387.70144  20605170.1134   20605169.9074
 -12634968.83044  -9845421.70444  22607447.5674   22607447.4354
 96  4 21  4 15 30.0000000  0  7G22G23G28G 6G26G17G21
   1407654.78844   1096875.04144  23644453.6404   23644455.1614
 -23188395.20644 -18068857.69844  20612586.3674   20612585.7654
  -8906712.264 4  -6940291.471 4  22891299.271    22891300.508
 -16394344.48144 -12774795.37444  22038626.4744   22038625.7754
  -8391962.39744  -6539179.64644  22422647.0554   22422646.1454
 -24072171.09344 -18757516.31944  20604894.4284   20604894.1274
 -12704166.71244  -9899342.10244  22594279.7284   22594280.1564
 96  4 21  4 16  0.0000000  0  7G23G22G28G 6G26G17G21
 -23195491.53044 -18074387.28644  20611236.0584   20611235.5954
   1444122.03444   1125291.09444  23651392.0634   23651393.0634
  -8998585.204 4  -7011880.735 4  22873816.775    22873817.907
 -16303261.80044 -12703821.86044  22055958.8624   22055957.9364
  -8347907.14044  -6504850.86144  22431030.8284   22431029.8124
 -24073399.66444 -18758473.63744  20604660.9674   20604660.4254
 -12773128.16244  -9953078.26444  22581156.5464   22581156.7364
 96  4 21  4 16 30.0000000  0  7G23G22G28G 6G26G17G21
 -23202227.04944 -18079635.72944  20609954.3834   20609953.8944
   1480957.31344   1153993.90944  23658402.9604   23658402.3824
  -9090204.814 4  -7083272.584 4  22856382.188    22856382.869
 -16211846.13044 -12632588.87844  22073354.7924   22073354.0524
  -8303320.60544  -6470108.09544  22439515.5224   22439514.8924
 -24074400.23344 -18759253.28544  20604470.2314   20604469.8804
 -12841855.33044 -10006631.88344  22568078.5724   22568078.0134
 96  4 21  4 17  0.0000000  0  7G23G22G28G 6G26G17G21
 -23208605.89344 -18084606.24244  20608740.4644   20608739.9204
   1518155.86144   1182979.81344  23665481.6674   23665480.4514
  -9181581.460 4  -7154475.119 4  22838993.408    22838994.272
 -16120127.81044 -12561120.06244  22090807.7794   22090807.4424
  -8258235.41944  -6434976.76644  22448094.8344   22448094.1114
 -24075201.97644 -18759878.01144  20604317.8934   20604317.5294
 -12910364.08844 -10060015.30444  22555041.8824   22555041.5544
 96  4 21  4 17 30.0000000  0  7G23G22G28G 6G26G17G21
 -23214610.11344 -18089284.84044  20607597.9744   20607597.5454
   1555747.04044   1212271.64844  23672634.0844   23672635.5004
  -9272696.760 4  -7225474.011 4  22821654.574    22821655.688
 -16028088.57844 -12489401.19044  22108322.2054   22108321.7214
  -8212643.63344  -6399450.68844  22456770.6554   22456769.8154
 -24075787.75544 -18760334.45444  20604206.2964   20604205.8874
 -12978643.47644 -10113219.99744  22542048.3684   22542049.0004
 96  4 21  4 18  0.0000000  0  7G23G22G28G 6G26G17G21
 -23220240.60344 -18093672.22044  20606526.3964   20606525.7384
   1593751.46844   1241885.49344  23679866.5274   23679866.7354
  -9363536.843 4  -7296258.457 4  22804368.414    22804369.284
 -15935706.17944 -12417414.90744  22125902.3804   22125902.1774
  -8166545.35944  -6363529.94744  22465543.0474   22465541.1794
 -24076142.18044 -18760610.61644  20604138.7784   20604138.2524
 -13046684.52944 -10166238.97044  22529100.3594   22529099.8934
 96  4 21  4 18 30.0000000  0  7G23G22G28G 6G26G17G21
 -23225507.67844 -18097776.41644  20605524.0904   20605523.5194
   1632176.18744   1271826.83144  23687178.8794   23687180.0924
  -9454102.417 4  -7366828.990 4  22787134.603    22787135.203
 -15842977.91544 -12345159.11244  22143547.2494   22143545.9904
  -8119950.06044  -6327221.90344  22474409.2224   22474408.0664
 -24076278.43844 -18760716.78344  20604112.7444   20604112.2754
 -13114479.45244 -10219066.15344  22516199.6054   22516200.0004
 96  4 21  4 19  0.0000000  0  7G23G22G28G 6G26G17G21
 -23230421.52144 -18101605.37144  20604588.7894   20604588.4594
   1671012.25144   1302088.71444  23694568.8714   23694570.0094
  -9544388.757 4  -7437181.930 4  22769953.356    22769954.267
 -15749894.95744 -12272626.95244  22161260.9734   22161260.4314
  -8072832.34044  -6290506.78244  22483375.8684   22483374.6614
 -24076194.14244 -18760651.08544  20604128.9264   20604128.4694
 -13182018.98844 -10271694.34044  22503347.2984   22503347.3794
 96  4 21  4 19 30.0000000  0  7G23G22G28G 6G26G17G21
 -23234998.38944 -18105171.74944  20603718.0144   20603717.5074
   1710221.93244   1332641.71244  23702030.6254   23702029.8794
  -9634405.393 4  -7507324.725 4  22752823.135    22752824.265
 -15656471.12444 -12199829.16144  22179038.5174   22179038.7234
  -8025187.93144  -6253381.27344  22492442.2304   22492442.1764
 -24075882.55044 -18760408.27344  20604188.0594   20604187.6014
 -13249306.26744 -10324125.95944  22490542.9484   22490542.7364
 96  4 21  4 20  0.0000000  0  7G23G22G28G 6G26G17G21
 -23239229.58544 -18108468.77244  20602912.8254   20602912.4864
   1749789.30444   1363473.44544  23709560.0894   23709560.7224
  -9724142.750 4  -7577249.894 4  22735747.042    22735747.668
 -15562703.83844 -12126763.74344  22196882.2804   22196882.0774
  -7977003.01544  -6215834.57644  22501611.7014   22501609.6484
 -24075346.58344 -18759990.62644  20604290.1544   20604289.7944
 -13316321.95044 -10376345.94144  22477790.4684   22477790.5884
 96  4 21  4 20 30.0000000  0  7G23G22G28G 6G26G17G21
 -23243125.34744 -18111504.41844  20602171.4714   20602171.0784
   1789675.56544   1394553.63844  23717150.2374   23717149.9974
  -9813613.786 4  -7646967.529 4  22718721.755    22718722.388
 -15468627.52644 -12053457.53944  22214784.4024   22214783.3754
  -7928286.81244  -6177873.88144  22510882.4254   22510881.0424
 -24074602.91744 -18759411.13744  20604431.7214   20604431.3494
 -13383072.39444 -10428359.24744  22465088.5744   22465088.0554
 96  4 21  4 21  0.0000000  0  7G23G22G28G 6G26G17G21
 -23246693.69044 -18114284.93244  20601492.5874   20601492.1924
   1829867.90544   1425872.37444  23724798.6824   23724799.7494
  -9902818.531 4  -7716477.684 4  22701746.585    22701747.107
 -15374272.27044 -11979933.96544  22232739.1784   22232738.3804
  -7879054.75044  -6139511.23744  22520250.5764   22520249.4134
 -24073640.26944 -18758661.00844  20604614.6414   20604614.2814
 -13449562.13444 -10480169.40044  22452435.8444   22452435.9844
 96  4 21  4 21 30.0000000  0  7G23G22G28G 6G26G17G21
 -23249917.06544 -18116796.64344  20600879.2084   20600878.7674
   1870384.34544   1457443.62844  23732508.0554   23732508.0614
  -9991746.975 4  -7785772.534 4  22684824.000    22684824.816
 -15279639.69944 -11906194.30544  22250747.7374   22250747.5524
  -7829310.86044  -6100749.75244  22529716.5894   22529714.3734
 -24072449.01644 -18757732.74944  20604841.5034   20604841.2894
 -13515775.85044 -10531764.47844  22439834.8514   22439835.3244
 96  4 21  4 22  0.0000000  0  7G23G22G28G 6G26G17G21
 -23252787.60944 -18119033.42044  20600332.8194   20600332.2304
   1911236.89444   1489276.80144  23740282.2654   23740282.7834
 -10080394.874 4  -7854848.785 4  22667955.015    22667955.755
 -15184731.35844 -11832239.77144  22268807.4734   22268807.0914
  -7779071.38044  -6061602.10144  22539276.4964   22539275.4704
 -24071039.06644 -18756634.07744  20605109.5114   20605109.3754
 -13581719.34744 -10583148.99044  22427286.4784   22427286.4614
 96  4 21  4 22 30.0000000  0  7G23G22G28G 6G26G17G21
 -23255280.54244 -18120975.95344  20599858.6164   20599857.9224
   1952458.76144   1521397.75644  23748126.2374   23748126.6134
 -10168731.922 4  -7923682.809 4  22651145.080    22651145.594
 -15089527.96044 -11758055.29744  22286924.2114   22286923.6324
  -7728319.14344  -6022054.89344  22548934.4664   22548933.2604
 -24069374.82244 -18755337.24944  20605426.5794   20605426.2374
 -13647377.09844 -10634310.83944  22414791.9214   22414792.6444
 96  4 21  4 23  0.0000000  0  7G23G22G28G 6G26G17G21
 -23257391.79844 -18122621.07644  20599457.0044   20599456.3944
   1994059.10544   1553813.58844  23756042.1974   23756043.3954
 -10256753.095 4  -7992270.688 4  22634394.842    22634395.417
 -14994011.09344 -11683626.57144  22305101.3054   22305100.9244
  -7677051.73244  -5982106.24344  22558690.2084   22558688.9274
 -24067455.20644 -18753841.43244  20605791.8214   20605791.5274
 -13712753.84444 -10685253.72844  22402352.1684   22402352.2174
 96  4 21  4 23 30.0000000  0  7G23G22G28G 6G26G17G21
 -23259114.81844 -18123963.67844  20599128.9774   20599128.4134
   2036039.19644   1586525.34644  23764031.1884   23764032.7784
 -10344456.128 4  -8060610.680 4  22617705.180    22617705.803
 -14898167.92544 -11608943.58044  22323338.6334   22323337.9754
  -7625261.71144  -5941750.39344  22568545.6474   22568544.6964
 -24065288.10644 -18752152.77444  20606204.2904   20606204.0554
 -13777856.38644 -10735982.95444  22389962.8734   22389963.4214
 96  4 21  4 24  0.0000000  0  7G23G22G28G 6G26G17G21
 -23260449.75744 -18125003.87944  20598874.7824   20598874.2534
   2078405.18644   1619537.79744  23772093.0394   23772093.6724
 -10431832.180 4  -8128695.861 4  22601078.026    22601078.855
 -14801992.09144 -11534001.37444  22341640.2984   22341639.9944
  -7572943.68344  -5900983.09344  22578501.6034   22578500.2034
 -24062870.82044 -18750269.16344  20606663.9784   20606663.7764
 -13842698.08044 -10786508.91144  22377624.2234   22377624.5914
 96  4 21  4 24 30.0000000  0  7G23G22G28G 6G26G17G21
 -23261396.25844 -18125741.39944  20598694.7634   20598694.0854
   2121156.67144   1652850.65644  23780229.0454   23780228.5934
 -10518880.195 4  -8196525.445 4  22584513.133    22584514.290
 -14705478.37344 -11458795.88444  22360006.9324   22360006.4474
  -7520085.52344  -5859794.91344  22588559.9494   22588558.7664
 -24060188.05744 -18748178.68744  20607174.6674   20607174.1774
 -13907289.44344 -10836839.81144  22365332.5654   22365333.0304
 96  4 21  4 25  0.0000000  0  7G23G22G28G 6G26G17G21
 -23261964.02944 -18126183.80544  20598586.7764   20598586.2394
   2164284.70844   1686456.93444  23788436.3994   23788437.7814
 -10605609.148 4  -8264106.402 4  22568009.308    22568010.199
 -14608627.85244 -11383327.94944  22378436.5764   22378436.1464
  -7466694.69344  -5818191.65744  22598719.5694   22598718.5964
 -24057240.94944 -18745882.22444  20607735.3954   20607735.0854
 -13971641.08744 -10886983.92544  22353087.4504   22353087.5554
 96  4 21  4 25 30.0000000  0  7G23G22G28G 6G26G17G21
 -23262152.21544 -18126330.43244  20598550.9414   20598550.2604
   2207801.71444   1720366.29244  23796716.6124   23796715.5434
 -10692010.204 4  -8331431.858 4  22551567.663    22551568.868
 -14511440.40744 -11307597.48144  22396930.9424   22396930.7884
  -7412772.50544  -5776174.35744  22608980.9934   22608980.4574
 -24054020.51444 -18743372.78344  20608348.0184   20608347.5094
 -14035749.34844 -10936938.38444  22340887.7134   22340888.0204
 96  4 21  4 26  0.0000000  0  7G23G22G28G 6G26G17G21
 -23261971.94244 -18126189.95544  20598585.1274   20598584.6564
   2251693.84444   1754567.97744  23805068.8284   23805069.6294
 -10778084.709 4  -8398502.875 4  22535188.511    22535189.355
 -14413912.70144 -11231601.86444  22415490.1884   22415489.7284
  -7358324.80944  -5733747.58044  22619341.8134   22619340.4254
 -24050535.76644 -18740657.38544  20609011.2414   20609010.9504
 -14099615.68244 -10986704.33044  22328734.1594   22328734.5574
 96  4 21  4 26 30.0000000  0  7G23G22G28G 6G26G17G21
 -23261459.37644 -18125790.54344  20598682.6814   20598682.1054
   2295917.15444   1789027.73344  23813484.7004   23813483.9594
 -10863858.747 4  -8465339.745 4  22518866.246    22518866.955
 -14316073.04844 -11155363.17444  22434108.2074   22434107.4964
  -7303381.80644  -5690934.84944  22629797.2714   22629796.2704
 -24046826.36644 -18737766.93544  20609717.1764   20609716.7464
 -14163250.62344 -11036289.97144  22316625.0264   22316624.8134
 96  4 21  4 27  0.0000000  0  7G23G22G28G 6G26G17G21
 -23260624.36744 -18125139.87444  20598841.5624   20598840.9404
   2340481.70044   1823753.33144  23821963.8494   23821966.4514
 -10949324.863 4  -8531936.680 4  22502602.628    22502603.060
 -14217920.50444 -11078880.67744  22452786.0844   22452785.5484
  -7247956.19844  -5647746.05644  22640344.5584   22640342.7794
 -24042907.94244 -18734713.61144  20610462.7384   20610462.3584
 -14226634.99744 -11085680.36644  22304563.0714   22304563.0124
 96  4 21  4 27 30.0000000  0  7G23G22G28G 6G26G17G21
 -23259469.45744 -18124239.93244  20599061.2754   20599060.7824
   2385390.31544   1858747.07844  23830510.8704   23830510.7064
 -11034475.041 4  -8598287.440 4  22486398.488    22486399.515
 -14119457.47344 -11002156.24244  22471523.3434   22471522.9114
  -7192044.03944  -5604178.12644  22650984.2684   22650982.3334
 -24038787.13844 -18731502.58344  20611246.9914   20611246.4704
 -14289761.15644 -11134869.55544  22292550.6124   22292550.4434
 96  4 21  4 28  0.0000000  0  7G23G22G28G 6G26G17G21
 -23258005.35744 -18123099.06344  20599339.8324   20599339.2764
   2430620.99244   1893991.77744  23839118.2114   23839117.9024
 -11119314.201 4  -8664395.853 4  22470254.067    22470255.203
 -14020700.20844 -10925202.54444  22490315.5134   22490314.8724
  -7135648.83244  -5560233.80944  22661715.7494   22661715.2224
 -24034469.87144 -18728138.47044  20612068.6744   20612068.1184
 -14352626.09344 -11183855.19544  22280588.0084   22280587.9744
 96  4 21  4 28 30.0000000  0  7G23G22G28G 6G26G17G21
 -23256239.41744 -18121722.99344  20599675.9814   20599675.4544
   2476174.98844   1929488.39144  23847786.9254   23847786.5424
 -11203840.362 4  -8730260.359 4  22454169.380    22454170.637
 -13921662.96544 -10848030.67444  22509162.0444   22509161.4294
  -7078779.44544  -5515919.99744  22672537.5894   22672537.0454
 -24029935.72444 -18724605.36144  20612931.3614   20612930.9584
 -14415217.48944 -11232627.68644  22268677.1954   22268677.3544
 96  4 21  4 29  0.0000000  0  7G23G22G28G 6G26G17G21
 -23254171.68144 -18120111.76444  20600069.3854   20600068.9224
   2522045.10544   1965231.33544  23856515.8194   23856515.4524
 -11288061.319 4  -8795887.035 4  22438142.676    22438143.980
 -13822361.83344 -10770653.16844  22528057.5614   22528057.5904
  -7021449.17744  -5471247.06144  22683447.0434   22683445.5734
 -24025173.18544 -18720894.28744  20613837.5384   20613837.0964
 -14477556.95444 -11281203.86744  22256814.5734   22256814.1124
 96  4 21  4 29 30.0000000  0  7G23G22G28G 6G26G17G21
 -23251774.66644 -18118243.94844  20600525.5514   20600524.9044
   2568232.06344   2001221.15444  23865303.7084   23865304.4324
 -11371951.912 4  -8861256.294 4  22422178.771    22422180.049
 -13722793.55344 -10693067.50744  22547005.2794   22547004.3374
  -6963624.43844  -5426188.82844  22694450.4594   22694449.9324
 -24020150.26844 -18716980.31944  20614793.4824   20614793.0944
 -14539628.27044 -11329571.09744  22245002.4374   22245002.3954
 96  4 21  4 30  0.0000000  0  8G23G22G28G 6G26G17G 1G21
 -23249039.11144 -18116112.33344  20601046.1244   20601045.4944
   2614727.09344   2037451.04544  23874152.2244   23874152.0434
 -11455508.342 4  -8926365.166 4  22406278.865    22406279.544
 -13622966.21544 -10615279.97444  22566001.7774   22566001.3024
  -6905309.26744  -5380748.41944  22705547.8474   22705546.2034
 -24014867.68944 -18712864.01644  20615798.6464   20615798.2254
        -0.12854         0.06354  25201731.2244
 -14601428.00444 -11377726.70544  22233242.0494   22233242.0194
 96  4 21  4 30 30.0000000  0  8G23G22G28G 6G26G17G 1G21
 -23245981.33644 -18113729.64344  20601627.9774   20601627.3454
   2661517.94044   2073911.45844  23883055.3764   23883055.8264
 -11538751.885 4  -8991230.239 4  22390438.056    22390438.812
 -13522901.05944 -10537307.11544  22585043.3444   22585041.6664
  -6846532.00544  -5334947.93444  22716733.2624   22716731.2694
 -24009349.02244 -18708563.74744  20616848.9344   20616848.4934
   -110307.50144    -85953.65444  25180740.9484
 -14662985.85444 -11425693.83344  22221528.4154   22221528.4794
 96  4 21  4 31  0.0000000  0  8G23G22G28G 6G26G17G 1G21
 -23242583.86444 -18111082.25544  20602274.3884   20602273.6864
   2708608.41844   2110605.34844  23892016.0794   23892016.7694
 -11621675.694 4  -9055846.170 4  22374658.301    22374658.923
 -13422596.48544 -10459147.71544  22604131.1224   22604129.8294
  -6787277.10744  -5288775.27444  22728008.8424   22728008.2474
 -24003607.93644 -18704090.17044  20617941.4994   20617941.0364
   -220735.19744   -172001.08444  25159726.2964   25159723.5804
 -14724309.45944 -11473478.44444  22209858.4304   22209858.4824
 96  4 21  4 31 30.0000000  0  8G23G22G28G 6G26G17G 1G21
 -23238823.47444 -18108152.07444  20602990.0504   20602989.5034
   2756034.24944   2147560.53744  23901041.0484   23901043.1644
 -11704244.884 4  -9120185.771 4  22358945.594    22358946.537
 -13322030.38644 -10380784.52344  22623268.1514   22623266.8444
  -6727514.87544  -5242207.30844  22739381.2644   22739379.4104
 -23997625.07644 -18699428.19644  20619079.8224   20619079.5424
   -331236.15744   -258105.63044  25138699.1224
 -14785355.66344 -11521046.89444  22198242.1394   22198242.1544
 96  4 21  4 32  0.0000000  0  8G23G22G28G 6G26G17G 1G21
 -23234678.52544 -18104922.23844  20603778.9154   20603778.3734
   2803817.90444   2184794.58144  23910134.2984   23910135.9634
 -11786444.853 4  -9184237.665 4  22343303.019    22343304.580
 -13221172.80044 -10302194.19944  22642460.7574   22642460.1064
  -6667242.40644  -5195241.75044  22750850.4664   22750849.0724
 -23991385.98344 -18694566.56044  20620267.3044   20620266.6084
   -441781.99144   -344245.09644  25117661.9584   25117664.2854
 -14846106.31544 -11568385.04444  22186680.9714   22186680.8154
 96  4 21  4 32 30.0000000  0  8G23G22G28G 6G26G17G 1G21
 -23230174.65844 -18101412.72044  20604636.0654   20604635.1554
   2851939.05644   2222291.60944  23919291.7024   23919292.1634
 -11868291.134 4  -9248013.964 4  22327728.430    22327729.732
 -13120030.82244 -10223382.27644  22661707.4304   22661707.0854
  -6606476.20344  -5147891.44044  22762414.1054   22762412.4014
 -23984904.87044 -18689516.33444  20621500.7034   20621500.2434
   -552371.53344   -430418.69144  25096617.2474
 -14906579.16844 -11615506.72844  22175173.7984   22175173.4194
 96  4 21  4 33  0.0000000  0  8G23G22G28G 6G26G17G 1G21
 -23225325.77444 -18097634.35744  20605558.7024   20605558.1924
   2900378.20344   2260036.39144  23928510.4194   23928510.0384
 -11949776.411 4  -9311508.947 4  22312222.607    22312223.414
 -13018605.81844 -10144349.80444  22681007.8334   22681007.3654
  -6545219.77044  -5100159.14544  22774070.7854   22774070.1014
 -23978187.41144 -18684281.94544  20622778.6034   20622778.1344
   -662982.10444   -516608.62744  25075569.8984   25075572.6834
 -14966776.67844 -11662413.85844  22163718.3504   22163718.0004
 96  4 21  4 33 30.0000000  0  8G23G22G28G 6G26G17G 1G21
 -23220139.29244 -18093592.93644  20606545.3404   20606544.9484
   2949130.07244   2298024.86444  23937787.3544   23937786.9294
 -12030893.292 4  -9374716.883 4  22296786.152    22296787.212
 -12916889.50444 -10065090.34844  22700364.0724   22700363.5644
  -6483481.15844  -5052051.14444  22785818.5174   22785817.9394
 -23971222.81144 -18678854.97944  20624104.0304   20624103.6944
   -773601.44544   -602805.41844  25054520.6464
 -15026701.02344 -11709108.14244  22152315.3854   22152315.3394
 96  4 21  4 34  0.0000000  0  8G23G22G28G 6G26G17G 1G21
 -23214622.19444 -18089293.88744  20607595.4814   20607594.7394
   2998169.37744   2336237.34044  23947119.0564   23947118.9794
 -12111649.464 4  -9437643.751 4  22281418.725    22281419.897
 -12814880.71344  -9985602.98744  22719775.6414   22719775.2504
  -6421271.80844  -5003576.32144  22797657.4094   22797656.4224
 -23964016.09244 -18673239.34944  20625475.2984   20625474.9134
   -884245.73044   -689021.63644  25033464.1554   25033466.3094
 -15086374.08544 -11755606.60744  22140959.8974   22140959.7994
 96  4 21  4 34 30.0000000  0  8G23G22G28G 6G26G17G 1G21
 -23208802.94944 -18084759.40544  20608702.7154   20608702.3684
   3047487.02444   2374666.67444  23956503.6734   23956505.1544
 -12192052.808 4  -9500295.681 4  22266118.561    22266119.728
 -12712598.93444  -9905902.90744  22739239.0404   22739238.5134
  -6358604.71244  -4954744.82544  22809582.5224   22809581.7324
 -23956578.31844 -18667443.67544  20626890.7414   20626890.3164
   -994933.48544   -775271.68144  25012401.0364
 -15145816.46244 -11801925.31344  22129648.7514   22129648.1374
 96  4 21  4 35  0.0000000  0  8G23G22G28G 6G26G17G 1G21
 -23202666.61644 -18079977.84744  20609870.6154   20609870.0694
   3097099.94144   2413326.07844  23965943.8574   23965945.3924
 -12272092.952 4  -9562664.602 4  22250887.554    22250888.716
 -12610047.00044  -9825992.31244  22758754.1734   22758754.4594
  -6295477.45844  -4905554.75144  22821594.8484   22821593.2284
 -23948888.29244 -18661451.44044  20628353.9044   20628353.7364
  -1105659.54944   -861551.66644  24991330.6604
 -15205026.76644 -11848063.19344  22118381.3874   22118381.4224
 96  4 21  4 35 30.0000000  0  8G23G22G28G 6G26G17G 1G21
 -23196210.61844 -18074947.19044  20611099.0514   20611098.4414
   3147013.01044   2452219.37544  23975442.5974   23975441.9104
 -12351782.836 4  -9624760.591 4  22235722.924    22235724.323
 -12507244.95044  -9745886.83944  22778316.7224   22778316.4804
  -6231900.29944  -4856014.08444  22833692.9924   22833691.2774
 -23940946.07044 -18655262.69044  20629865.1894   20629864.8664
  -1216445.14544   -947878.00944  24970249.9324   24970248.7304
 -15264006.89444 -11894021.71644  22107157.4934   22107157.4734
 96  4 21  4 36  0.0000000  0  8G23G22G28G 6G26G17G 1G21
 -23189422.31144 -18069657.59444  20612390.6804   20612390.0744
   3197239.82344   2491357.17544  23985001.2874   23985000.6544
 -12431106.140 4  -9686570.935 4  22220627.848    22220629.469
 -12404184.11844  -9665579.71644  22797928.2294   22797926.8174
  -6167857.02944  -4806110.23344  22845880.2514   22845878.9564
 -23932729.44244 -18648860.11844  20631429.2134   20631428.7214
  -1327281.28344  -1034243.77744  24949157.8074   24949156.6304
 -15322729.71644 -11939779.74144  22095982.6834   22095983.1624
 96  4 21  4 36 30.0000000  0  8G23G22G28G 6G26G17G 1G21
 -23182308.80844 -18064114.59644  20613744.4374   20613743.7694
   3247778.43944   2530737.94844  23994618.0904   23994617.6664
 -12510056.144 4  -9748090.396 4  22205604.199    22205605.727
 -12300874.26944  -9585078.54344  22817587.7414   22817587.1154
  -6103345.77844  -4755841.74044  22858156.0944   22858155.4854
 -23924225.45144 -18642233.62344  20633047.1144   20633046.6924
  -1438161.16344  -1120643.54744  24928058.0294
 -15381183.53444 -11985328.15244  22084859.5554   22084860.1474
 96  4 21  4 37  0.0000000  0  8G23G22G28G 6G26G17G 1G21
 -23174864.18444 -18058313.57944  20615160.9884   20615160.3864
   3298617.47344   2570352.77044  24004292.3764   24004292.1884
 -12588629.149 4  -9809316.108 4  22190652.262    22190653.606
 -12197325.88144  -9504391.50544  22837291.5564   22837291.9494
  -6038366.49344  -4705208.53144  22870521.1694   22870520.5514
 -23915432.16844 -18635381.70844  20634720.4684   20634720.2164
  -1549092.81044                  24906948.1774
 -15439363.00044 -12030662.77844  22073788.3004   22073788.4174
 96  4 21  4 37 30.0000000  0  8G23G22G28G 6G26G17G 1G21
 -23167122.69144 -18052281.24144  20616634.2834   20616633.4714
   3349723.56944   2610175.68344  24014016.8474   24014018.2894
 -12666847.992 4  -9870265.830 4  22175768.062    22175768.957
 -12093562.02044  -9423536.56144  22857037.7374   22857037.3814
  -5972945.65144  -4654231.24844  22882971.1224   22882969.4264
 -23906386.75944 -18628333.33344  20636441.9144   20636441.5654
  -1659959.63444                  24885816.1454
 -15497292.29444 -12075802.46344  22062765.2614   22062764.9694
 96  4 21  4 38  0.0000000  0  7G23G22G28G 6G26G17G21
 -23159075.75544 -18046010.89244  20618165.4464   20618164.8364
   3401096.42444   2650206.45544  24023792.7364   24023793.0544
 -12744689.676 4  -9930921.652 4  22160955.340    22160956.342
 -11989560.39244  -9342496.34244  22876828.8864   22876827.8724
  -5907065.82044  -4602896.31344  22895507.1514   22895505.4914
 -23897080.86144 -18621081.97944  20638212.5904   20638212.1974
 -15554955.35444 -12120734.69644  22051792.1364   22051791.8474
 96  4 21  4 38 30.0000000  0  7G23G22G28G 6G26G17G21
 -23150714.02344 -18039495.25244  20619756.6654   20619755.7524
   3452749.02344   2690455.20044  24033622.0144   24033622.4774
 -12822146.509 4  -9991277.598 4  22146215.549    22146217.073
 -11885305.99644  -9261259.16444  22896667.5834   22896667.1614
  -5840724.16044  -4551201.51044  22908131.4454   22908131.0314
 -23887527.50844 -18613637.80544  20640030.4914   20640030.2544
 -15612344.39744 -12165453.40444  22040871.1954   22040871.1284
 96  4 21  4 39  0.0000000  0  7G23G22G28G 6G26G17G21
 -23142009.76244 -18032712.70244  20621413.2624   20621412.6324
   3504717.70244   2730950.24944  24043511.9164   24043512.5104
 -12899197.314 4 -10051317.177 4  22131553.200    22131554.761
 -11780769.12644  -9179801.86644  22916560.0734   22916559.9974
  -5773896.05644  -4499127.66644  22920848.5944   22920848.0694
 -23877722.40944 -18605997.46444  20641896.4984   20641896.0354
 -15669442.95444 -12209945.77044  22030005.5484   22030005.3394
 96  4 21  4 39 30.0000000  0  8G23G22G28G 6G26G17G 1G21
 -23132986.31144 -18025681.43744  20623130.2184   20623129.5264
   3556972.60744   2771668.38544  24053455.8444   24053454.9894
 -12975855.758 4 -10111051.006 4  22116965.623    22116966.700
 -11675965.00144  -9098136.32344  22936504.2584   22936502.5794
  -5706597.45044  -4446687.17244  22933654.9194   22933653.0264
 -23867678.97944 -18598171.41044  20643807.5954   20643807.1334
        -0.35454        -0.38354  24801255.7414   24801256.7074
 -15726261.07444 -12254219.61244  22019193.5754   22019193.3874
 96  4 21  4 40  0.0000000  0  8G23G22G28G 6G26G17G 1G21
 -23123643.35744 -18018401.20944  20624908.1544   20624907.5084
   3609512.69244   2812608.74044  24063454.0174   24063451.7214
 -13052120.497 4 -10170478.052 4  22102453.252    22102454.046
 -11570900.32944  -9016267.75444  22956497.6264   22956497.5674
  -5638833.65444  -4393884.21044  22946550.3894   22946548.4664
 -23857388.86044 -18590153.13444  20645765.9064   20645765.3534
   -111116.78544    -86584.53744  24780111.6074
 -15782789.84444 -12298267.98544  22008436.4294   22008436.6384
 96  4 21  4 40 30.0000000  0  8G23G22G28G 6G26G17G 1G21
 -23113992.32544 -18010880.91744  20626744.5874   20626744.0134
   3662338.74144   2853771.88444  24073505.3804   24073506.8834
 -13128005.034 4 -10229608.840 4  22088012.772    22088013.605
 -11465598.10444  -8934214.08644  22976535.7604   22976534.7724
  -5570628.60444  -4340737.43044  22959529.0754   22959527.7464
 -23846856.77244 -18581946.30944  20647770.2154   20647769.7944
   -222249.48144   -173181.38044  24758962.8684
 -15839052.15244 -12342108.72144  21997729.8754   21997729.9064
 96  4 21  4 41  0.0000000  0  8G23G22G28G 6G26G17G 1G21
 -23104049.06544 -18003132.91944  20628636.7534   20628636.1084
   3715422.46944   2895135.82844  24083607.6964   24083606.2804
 -13203518.053 4 -10288450.138 4  22073642.834    22073644.015
 -11360100.25044  -8852007.97644  22996610.9654   22996610.7284
  -5502011.51244  -4287269.57844  22972586.3604   22972585.7604
 -23836070.89644 -18573541.72544  20649822.4704   20649822.0914
   -333408.40444   -259798.66244  24737809.6954   24737811.8584
 -15895067.77744 -12385757.23844  21987070.6424   21987070.6214
 96  4 21  4 41 30.0000000  0  8G23G22G28G 6G26G17G 1G21
 -23093817.49544 -17995160.25844  20630583.8724   20630583.0494
   3768748.24044   2936688.36244  24093755.1584   24093753.3714
 -13278660.021 4 -10347002.302 4  22059343.774    22059344.914
 -11254418.91144  -8769658.87444  23016721.7854   23016721.4694
  -5433013.12544  -4233504.59844  22985716.9044   22985715.1234
 -23825026.17744 -18564935.44644  20651924.2394   20651923.9834
   -444615.17044   -346453.24144  24716647.8734   24716651.0794
 -15950836.39644 -12429213.28844  21976457.8464   21976458.0394
 96  4 21  4 42  0.0000000  0  8G23G22G28G 6G26G17G 1G21
 -23083244.45344 -17986921.51444  20632595.5484   20632595.0374
   3822371.88344   2978473.00744  24103959.9354   24103958.6354
 -13353385.016 4 -10405229.545 4  22045124.062    22045125.512
 -11148506.55844  -8687129.77944  23036876.1384   23036876.0674
  -5363598.36244  -4179415.18744  22998925.6664   22998924.1214
 -23813692.37344 -18556103.90244  20654081.0104   20654080.6394
   -555838.75844   -433120.87544  24695482.5574   24695482.9464
 -16006327.92544 -12472453.41744  21965898.1154   21965897.9284
 96  4 21  4 42 30.0000000  0  8G23G22G28G 6G26G17G 1G21
 -23072353.03144 -17978434.68544  20634668.0304   20634667.6524
   3876264.10344   3020466.92944  24114214.8434   24114214.4104
 -13427703.137 4 -10463139.754 4  22030981.863    22030983.254
 -11042386.54144  -8604438.87044  23057070.2194   23057070.3014
  -5293779.29044  -4125010.72044  23012211.9294   23012210.4804
 -23802091.89844 -18547064.56744  20656288.6194   20656288.0784
   -667079.00644   -519801.52844  24674314.1874   24674314.7334
 -16061561.92444 -12515492.87644  21955387.5394   21955387.3964
 96  4 21  4 43  0.0000000  0  7G28G23G 6G26G17G 1G21
 -13501611.024 4 -10520730.290 4  22016917.663    22016918.809
 -23061147.95544 -17969703.45144  20636800.4114   20636799.9954
 -10936057.61044  -8521585.18244  23077303.8754   23077303.2144
  -5223549.12744  -4070285.91244  23025576.6014   23025575.0594
 -23790230.05244 -18537821.56944  20658545.8544   20658545.2744
   -778326.83144   -606488.11544  24653143.2204   24653144.4794
 -16116539.60444 -12558332.60944  21944925.7044   21944925.3594
 96  4 21  4 43 30.0000000  0  7G28G23G 6G26G17G 1G21
 -13575095.723 4 -10577991.072 4  22002934.025    22002934.991
 -23049615.19244 -17960716.87944  20638995.0114   20638994.4284
 -10829491.20244  -8438546.42144  23097582.6754   23097582.1624
  -5152869.46844  -4015210.83844  23039026.7414   23039025.1444
 -23778112.77644 -18528379.53544  20660851.2914   20660850.8444
   -889580.53544   -693179.24844  24631971.8164   24631972.0904
 -16171248.25144 -12600962.70344  21934514.7954   21934514.7914
 96  4 21  4 44  0.0000000  0  7G28G23G 6G26G17G 1G21
 -13648138.669 4 -10634907.640 4  21989034.309    21989035.321
 -23037741.62944 -17951464.74344  20641254.7644   20641254.0224
 -10722676.72944  -8355314.37444  23117908.1204   23117907.8804
  -5081694.40144  -3959749.73744  23052569.8194   23052569.3544
 -23765726.79544 -18518728.11944  20663208.5534   20663208.0384
  -1000808.56244   -779850.34544  24610805.3884   24610808.1934
 -16225672.25144 -12643370.99544  21924158.6424   21924158.3254
 96  4 21  4 44 30.0000000  0  7G28G23G 6G26G17G 1G21
 -13720749.710 4 -10691487.653 4  21975216.765    21975218.113
 -23025548.44644 -17941963.55044  20643574.9874   20643574.3464
 -10615628.90044  -8271900.46944  23138278.6114   23138278.5724
  -5010027.61644  -3903905.48944  23066207.8874   23066206.7234
 -23753069.21544 -18508865.06844  20665616.9584   20665616.6634
  -1112028.70744   -866515.36444  24589641.1894   24589642.5934
 -16279815.93144 -12685560.85244  21913855.3474   21913855.1774
 96  4 21  4 45  0.0000000  0  7G28G 6G23G26G17G 1G21
 -13792949.375 4 -10747747.115 4  21961477.669    21961478.799
 -10508358.20844  -8188312.93444  23158691.9714   23158692.2094
 -23013053.80344 -17932227.46044  20645952.3664   20645952.0114
  -4937896.63744  -3847699.52544  23079934.2434   23079932.8604
 -23740157.20944 -18498803.75744  20668074.3954   20668074.0544
  -1223274.92844   -953200.65744  24568472.2004   24568469.6224
 -16333707.00944 -12727553.88144  21903600.1034   21903599.9644
 96  4 21  4 45 30.0000000  0  7G28G23G 6G26G17G 1G21
 -13864731.293 4 -10803681.057 4  21947817.968    21947819.179
 -23000256.08744 -17922255.21144  20648387.8334   20648387.2454
 -10400860.76244  -8104548.71744  23179148.6724   23179150.1024
  -4865312.06244  -3791140.13444  23093746.0444   23093744.1054
 -23726986.54544 -18488540.89644  20670580.5574   20670580.1274
  -1334546.52844  -1039905.70744  24547298.8164   24547299.2164
 -16387339.42344 -12769345.34944  21893394.1374   21893394.1494
 96  4 21  4 46  0.0000000  0  7G28G23G 6G26G17G 1G21
 -13936106.702 4 -10859298.235 4  21934235.899    21934236.903
 -22987174.45344 -17912061.72344  20650876.9214   20650876.2974
 -10293159.48144  -8020625.67144  23199643.4124   23199642.4484
  -4792312.06144  -3734257.02644  23107637.9434   23107636.6194
 -23713560.16844 -18478078.78244  20673135.4744   20673135.2044
  -1445842.23244  -1126629.59744  24526119.9134   24526119.5744
 -16440734.34144 -12810951.75944  21883233.5294   21883233.1914
 96  4 21  4 46 30.0000000  0  7G23G28G 6G26G17G 1G21
 -22973812.36344 -17901649.70244  20653419.7524   20653419.2284
 -14007071.492 4 -10914595.456 4  21920731.731    21920732.852
 -10185255.51744  -7936544.65744  23220175.8784   23220174.9434
  -4718921.53444  -3677069.61444  23121603.9874   23121602.7924
 -23699869.20044 -18467410.49244  20675740.8794   20675740.4664
  -1557150.77744  -1213363.51644  24504938.3864   24504940.0164
 -16493897.75844 -12852377.78144  21873116.8774   21873116.3264
 96  4 21  4 47  0.0000000  0  7G28G23G 6G26G17G 1G21
 -14077628.218 4 -10969574.712 4  21907305.203    21907306.186
 -22960168.41544 -17891018.04844  20656016.2694   20656015.6124
 -10077158.01344  -7852312.85844  23240746.9384   23240746.0444
  -4645166.75944  -3619598.35844  23135638.6904   23135637.4144
 -23685930.34444 -18456549.04444  20678393.2594   20678393.3104
  -1668462.43244  -1300099.78444  24483756.7044   24483756.3374
 -16546834.70444 -12893627.32544  21863043.6944   21863043.4394
 96  4 21  4 47 30.0000000  0  7G23G28G 6G26G17G 1G21
 -22946221.43644 -17880150.27044  20658670.1984   20658669.6404
 -14147755.770 4 -11024219.535 4  21893960.406    21893961.354
  -9968856.26944  -7767921.89244  23261355.5184   23261354.9964
  -4571024.65344  -3561825.27344  23149747.7324   23149747.6754
 -23671720.35144 -18445476.32044  20681097.3134   20681096.9104
  -1779737.46644  -1386807.54344  24462581.7204   24462581.2114
 -16599516.05644 -12934677.71344  21853018.6134   21853018.2314
 96  4 21  4 48  0.0000000  0  7G28G 6G23G26G17G 1G21
 -14217446.237 4 -11078523.775 4  21880698.530    21880699.866
  -9860355.45144  -7683375.78844  23282003.6994   23282002.8974
 -22931979.40644 -17869052.57944  20661380.3204   20661379.7124
  -4496473.16144  -3503733.21344  23163934.0024   23163932.4254
 -23657227.36344 -18434183.08044  20683855.2464   20683854.8054
  -1890956.89144  -1473471.98444  24441415.3434   24441414.9744
 -16651923.57444 -12975514.72344  21843045.5714   21843045.6574
 96  4 21  4 48 30.0000000  0  7G23G28G 6G26G17G 1G21
 -22917444.12444 -17857726.38144  20664146.3384   20664145.7084
 -14286692.680 4 -11132482.032 4  21867521.173    21867522.587
  -9751646.41544  -7598667.45844  23302689.9544   23302690.4564
  -4421502.94944  -3445314.85144  23178200.3314   23178199.1644
 -23642444.44344 -18422663.91644  20686668.0484   20686667.8884
  -2002130.31344  -1560100.57644  24420259.3514   24420260.6504
 -16704042.36544 -13016126.75044  21833127.6614   21833127.2334
 96  4 21  4 49  0.0000000  0  8G23G 9G28G 6G26G17G 1G21
 -22902619.13344 -17846174.43344  20666967.4304   20666966.9064
        -0.39554                  25079605.3064
 -14355497.284 4 -11186095.998 4  21854428.334    21854429.564
  -9642737.10144  -7513803.08044  23323415.3644   23323414.4624
  -4346105.85744  -3386563.86844  23192547.6754   23192547.3674
 -23627380.49144 -18410925.76944  20689534.7514   20689534.3904
  -2113266.70744  -1646700.28044  24399111.1544   24399114.1884
 -16755870.37944 -13056512.20144  21823265.2114   21823264.9004
